[[{"header":{"parameterUnit":"m.s-1","parameterCategory":1,"la1":30.6,"la2":29.2853,"lo1":-89.7004,"lo2":-87.6739,"dy":0.0162,"dx":0.0183,"nx":112,"ny":82,"refTime":"2026-04-02T00:00:00:Z","depth":0,"parameterNumber":2,"parameterNumberName":"U-component_of_WINDS"},"data":[0.0,0.0,0.0,0.0,0.0,0.0,0.0,0.0,0.0,0.0,0.0,0.0,0.0,0.0,0.0,0.0,0.0,0.0,0.0,0.0,0.0,0.0,0.0,0.0,0.0,0.0,0.0,0.0,0.0,0.0,0.0,0.0,0.0,0.0,0.0,0.0,0.0,0.0,0.0,0.0,0.0,0.0,0.0,0.0,0.0,0.0,0.0,0.0,0.0,0.0,0.0,0.0,0.0,0.0,0.0,0.0,0.0,0.0,0.0,0.0,0.0,0.0,0.0,0.0,0.0,0.0,0.0,0.0,0.0,0.0,0.0,0.0,0.0,0.0,0.0,0.0,0.0,0.0,0.0,0.0,0.0,0.0,0.0,0.0,0.0,0.0,0.0,0.0,0.0,0.0,-2.1308,-2.3569,-2.6082,-2.7076,-2.5704,-2.4993,-2.3325,-2.0369,0.0,0.0,0.0,0.0,0.0,0.0,0.0,0.0,0.0,0.0,0.0,0.0,0.0,0.0,0.0,0.0,0.0,0.0,0.0,0.0,0.0,0.0,0.0,0.0,0.0,0.0,0.0,0.0,0.0,0.0,0.0,0.0,0.0,0.0,0.0,0.0,0.0,0.0,0.0,0.0,0.0,0.0,0.0,0.0,0.0,0.0,0.0,0.0,0.0,0.0,0.0,0.0,0.0,0.0,0.0,0.0,0.0,0.0,0.0,0.0,0.0,0.0,0.0,0.0,0.0,0.0,0.0,0.0,0.0,0.0,0.0,0.0,0.0,0.0,0.0,0.0,0.0,0.0,0.0,0.0,0.0,0.0,0.0,0.0,0.0,0.0,0.0,0.0,0.0,0.0,0.0,0.0,0.0,0.0,0.0,0.0,0.0,0.0,0.0,0.0,0.0,0.0,0.0,0.0,-2.1755,-2.5664,-2.7005,-2.7076,-2.5704,-2.4993,-2.3686,-2.1565,0.0,0.0,0.0,0.0,0.0,0.0,0.0,0.0,0.0,0.0,0.0,0.0,0.0,0.0,0.0,0.0,0.0,0.0,0.0,0.0,0.0,0.0,0.0,0.0,0.0,0.0,0.0,0.0,0.0,0.0,0.0,0.0,0.0,0.0,0.0,0.0,0.0,0.0,0.0,0.0,0.0,0.0,0.0,0.0,0.0,0.0,0.0,0.0,0.0,0.0,0.0,0.0,0.0,0.0,0.0,0.0,0.0,0.0,0.0,0.0,0.0,0.0,0.0,0.0,0.0,0.0,0.0,0.0,0.0,0.0,0.0,0.0,0.0,0.0,0.0,0.0,0.0,0.0,0.0,0.0,0.0,0.0,0.0,0.0,0.0,0.0,0.0,0.0,0.0,0.0,0.0,0.0,0.0,0.0,0.0,0.0,0.0,0.0,0.0,0.0,0.0,0.0,0.0,-2.1317,-2.3091,-2.6261,-2.7195,-2.7076,-2.5704,-2.4993,-2.3658,-2.1401,-1.8241,0.0,0.0,0.0,0.0,0.0,0.0,0.0,0.0,0.0,0.0,0.0,0.0,0.0,0.0,0.0,0.0,0.0,0.0,0.0,0.0,0.0,0.0,0.0,0.0,0.0,0.0,0.0,0.0,0.0,0.0,0.0,0.0,0.0,0.0,0.0,0.0,0.0,0.0,0.0,0.0,0.0,0.0,0.0,0.0,0.0,0.0,0.0,0.0,0.0,0.0,0.0,0.0,0.0,0.0,0.0,0.0,0.0,0.0,0.0,0.0,0.0,0.0,0.0,0.0,0.0,0.0,0.0,0.0,0.0,0.0,0.0,0.0,0.0,0.0,0.0,0.0,0.0,0.0,0.0,0.0,0.0,0.0,0.0,0.0,0.0,0.0,0.0,0.0,0.0,0.0,0.0,0.0,0.0,0.0,0.0,0.0,0.0,0.0,0.0,0.0,0.0,0.0,-2.3564,-2.4548,-2.6615,-2.7285,-2.7076,-2.5704,-2.4844,-2.3436,-2.1228,-1.7683,0.0,0.0,0.0,0.0,0.0,0.0,0.0,0.0,0.0,0.0,0.0,0.0,0.0,0.0,0.0,0.0,0.0,0.0,0.0,0.0,0.0,0.0,0.0,0.0,0.0,0.0,0.0,0.0,0.0,0.0,0.0,0.0,0.0,0.0,0.0,0.0,0.0,0.0,0.0,0.0,0.0,0.0,0.0,0.0,0.0,0.0,0.0,0.0,0.0,0.0,0.0,0.0,0.0,0.0,0.0,0.0,0.0,0.0,0.0,0.0,0.0,0.0,0.0,0.0,0.0,0.0,0.0,0.0,0.0,0.0,0.0,0.0,0.0,0.0,0.0,0.0,0.0,0.0,0.0,0.0,0.0,0.0,0.0,0.0,0.0,0.0,0.0,0.0,0.0,0.0,0.0,0.0,0.0,0.0,0.0,0.0,0.0,0.0,0.0,0.0,0.0,0.0,-2.4162,-2.5779,-2.7365,-2.7555,-2.7076,-2.5704,-2.4418,-2.308,-2.1744,-1.7667,0.0,0.0,0.0,0.0,0.0,0.0,0.0,0.0,0.0,0.0,0.0,0.0,0.0,0.0,0.0,0.0,0.0,0.0,0.0,0.0,0.0,0.0,0.0,0.0,0.0,0.0,0.0,0.0,0.0,0.0,0.0,0.0,0.0,0.0,0.0,0.0,0.0,0.0,0.0,0.0,0.0,0.0,0.0,0.0,0.0,0.0,0.0,0.0,0.0,0.0,0.0,0.0,0.0,0.0,0.0,0.0,0.0,0.0,0.0,0.0,0.0,0.0,0.0,0.0,0.0,0.0,0.0,0.0,0.0,0.0,0.0,0.0,0.0,0.0,0.0,0.0,0.0,0.0,0.0,0.0,0.0,0.0,0.0,0.0,0.0,0.0,0.0,0.0,0.0,0.0,0.0,0.0,0.0,0.0,0.0,0.0,0.0,0.0,0.0,0.0,0.0,0.0,-2.3753,-2.51,-2.737,-2.7585,-2.7076,-2.5704,-2.5136,-2.365,-2.0882,0.0,0.0,0.0,0.0,0.0,0.0,0.0,0.0,0.0,0.0,0.0,0.0,0.0,0.0,0.0,0.0,0.0,0.0,0.0,0.0,0.0,0.0,0.0,0.0,0.0,0.0,0.0,0.0,0.0,0.0,0.0,0.0,0.0,0.0,0.0,0.0,0.0,0.0,0.0,0.0,0.0,0.0,0.0,0.0,0.0,0.0,0.0,0.0,0.0,0.0,0.0,0.0,0.0,0.0,0.0,0.0,0.0,0.0,0.0,0.0,0.0,0.0,0.0,0.0,0.0,0.0,0.0,0.0,0.0,0.0,0.0,0.0,0.0,0.0,0.0,0.0,0.0,0.0,0.0,0.0,0.0,0.0,0.0,0.0,0.0,0.0,0.0,0.0,0.0,0.0,0.0,0.0,0.0,0.0,0.0,0.0,0.0,0.0,0.0,0.0,0.0,0.0,-2.2678,-2.3828,-2.5106,-2.7345,-2.7585,-2.7076,-2.5704,-2.5046,-2.3369,-2.0283,0.0,0.0,0.0,0.0,0.0,0.0,0.0,0.0,0.0,0.0,0.0,0.0,0.0,0.0,0.0,0.0,0.0,0.0,0.0,0.0,0.0,0.0,0.0,0.0,0.0,0.0,0.0,0.0,0.0,0.0,0.0,0.0,0.0,0.0,0.0,0.0,0.0,0.0,0.0,0.0,0.0,0.0,0.0,0.0,0.0,0.0,0.0,0.0,0.0,0.0,0.0,0.0,0.0,0.0,0.0,0.0,0.0,0.0,0.0,0.0,0.0,0.0,0.0,0.0,0.0,0.0,0.0,0.0,0.0,0.0,0.0,0.0,0.0,0.0,0.0,0.0,0.0,0.0,0.0,0.0,0.0,0.0,0.0,0.0,0.0,0.0,0.0,0.0,0.0,0.0,0.0,0.0,0.0,0.0,0.0,0.0,0.0,0.0,0.0,0.0,0.0,0.0,-2.2723,-2.4631,-2.6123,-2.7465,-2.7585,-2.7076,-2.5734,-2.3841,-2.1971,0.0,0.0,0.0,0.0,0.0,0.0,0.0,0.0,0.0,0.0,0.0,0.0,0.0,0.0,0.0,0.0,0.0,0.0,0.0,0.0,0.0,0.0,0.0,0.0,0.0,0.0,0.0,0.0,0.0,0.0,0.0,0.0,0.0,0.0,0.0,0.0,0.0,0.0,0.0,0.0,0.0,0.0,0.0,0.0,0.0,0.0,0.0,0.0,0.0,0.0,0.0,0.0,0.0,0.0,0.0,0.0,0.0,0.0,0.0,0.0,0.0,0.0,0.0,0.0,0.0,0.0,0.0,0.0,0.0,0.0,0.0,0.0,0.0,0.0,0.0,0.0,0.0,0.0,0.0,0.0,0.0,0.0,0.0,0.0,0.0,0.0,0.0,0.0,0.0,0.0,0.0,0.0,0.0,0.0,0.0,0.0,0.0,0.0,0.0,0.0,0.0,0.0,0.0,-2.3799,-2.5094,-2.6123,-2.7465,-2.7585,-2.7255,-2.6363,-2.4926,-2.2773,-1.9806,0.0,0.0,0.0,0.0,0.0,0.0,0.0,0.0,0.0,0.0,0.0,0.0,0.0,0.0,0.0,0.0,0.0,0.0,0.0,0.0,0.0,0.0,0.0,0.0,0.0,0.0,0.0,0.0,0.0,0.0,0.0,0.0,0.0,0.0,0.0,0.0,0.0,0.0,0.0,0.0,0.0,0.0,0.0,0.0,0.0,0.0,0.0,0.0,0.0,0.0,0.0,0.0,0.0,0.0,0.0,0.0,0.0,0.0,0.0,0.0,0.0,0.0,0.0,0.0,0.0,0.0,0.0,0.0,0.0,0.0,0.0,0.0,0.0,0.0,0.0,0.0,0.0,0.0,0.0,0.0,0.0,0.0,0.0,0.0,0.0,0.0,0.0,0.0,0.0,0.0,0.0,0.0,0.0,0.0,0.0,0.0,0.0,0.0,0.0,0.0,0.0,0.0,-2.4143,-2.5673,-2.6692,-2.7495,-2.7854,-2.7615,-2.6662,-2.5352,-2.3297,-2.021,0.0,0.0,0.0,0.0,0.0,0.0,0.0,0.0,0.0,0.0,0.0,0.0,0.0,0.0,0.0,0.0,0.0,0.0,0.0,0.0,0.0,0.0,0.0,0.0,0.0,0.0,0.0,0.0,0.0,0.0,0.0,0.0,0.0,0.0,0.0,0.0,0.0,0.0,0.0,0.0,0.0,0.0,0.0,0.0,0.0,0.0,0.0,0.0,0.0,0.0,0.0,0.0,0.0,0.0,0.0,0.0,0.0,0.0,0.0,0.0,0.0,0.0,0.0,0.0,0.0,0.0,0.0,0.0,0.0,0.0,0.0,0.0,0.0,0.0,0.0,0.0,0.0,0.0,0.0,0.0,0.0,0.0,0.0,0.0,0.0,0.0,0.0,0.0,0.0,0.0,0.0,0.0,0.0,0.0,0.0,0.0,0.0,0.0,0.0,0.0,0.0,0.0,-2.406,-2.6296,-2.7645,-2.7764,-2.8248,-2.8098,-2.6871,-2.5442,-2.3592,-2.1245,0.0,0.0,0.0,0.0,0.0,0.0,0.0,0.0,0.0,0.0,0.0,0.0,0.0,0.0,0.0,0.0,0.0,0.0,0.0,0.0,0.0,0.0,0.0,0.0,0.0,0.0,0.0,0.0,0.0,0.0,0.0,0.0,0.0,0.0,0.0,0.0,0.0,0.0,0.0,0.0,0.0,0.0,0.0,0.0,0.0,0.0,0.0,0.0,0.0,0.0,0.0,0.0,0.0,0.0,0.0,0.0,0.0,0.0,0.0,0.0,-3.0354,-2.9189,0.0,0.0,0.0,0.0,0.0,0.0,0.0,0.0,0.0,0.0,0.0,0.0,0.0,0.0,0.0,0.0,0.0,0.0,0.0,0.0,0.0,0.0,0.0,0.0,0.0,0.0,0.0,0.0,0.0,0.0,0.0,0.0,0.0,0.0,0.0,0.0,0.0,0.0,0.0,0.0,-2.5049,-2.6757,-2.8004,-2.9052,-2.8816,-2.8487,-2.8188,-2.598,-2.3792,-2.1929,-1.8865,0.0,0.0,0.0,0.0,0.0,0.0,0.0,0.0,0.0,0.0,0.0,0.0,0.0,0.0,0.0,0.0,0.0,0.0,0.0,0.0,0.0,0.0,0.0,0.0,0.0,0.0,0.0,0.0,0.0,0.0,0.0,0.0,0.0,0.0,0.0,0.0,0.0,0.0,0.0,0.0,0.0,0.0,0.0,0.0,0.0,0.0,0.0,0.0,0.0,0.0,0.0,0.0,0.0,0.0,0.0,0.0,0.0,0.0,0.0,-3.4472,-3.2957,0.0,0.0,0.0,0.0,0.0,0.0,0.0,0.0,0.0,0.0,0.0,0.0,0.0,0.0,0.0,0.0,0.0,0.0,0.0,0.0,0.0,0.0,0.0,0.0,0.0,0.0,0.0,0.0,0.0,0.0,0.0,0.0,0.0,0.0,0.0,0.0,0.0,0.0,0.0,0.0,-2.5217,-2.7333,-2.8843,-2.9532,-2.9535,-2.9265,-2.8637,-2.7021,-2.5222,-2.3386,-2.0436,0.0,0.0,0.0,0.0,0.0,0.0,0.0,0.0,0.0,0.0,0.0,0.0,0.0,0.0,0.0,0.0,0.0,0.0,0.0,0.0,0.0,0.0,0.0,0.0,0.0,0.0,0.0,0.0,0.0,0.0,0.0,0.0,0.0,0.0,0.0,0.0,0.0,0.0,0.0,0.0,0.0,0.0,0.0,0.0,0.0,0.0,0.0,0.0,0.0,0.0,0.0,0.0,0.0,-4.276,-4.372,-4.4125,-4.2883,-4.2775,-4.332,-3.9182,-3.7655,-3.7866,-3.4473,0.0,0.0,0.0,0.0,0.0,0.0,0.0,0.0,0.0,0.0,0.0,0.0,0.0,0.0,0.0,0.0,0.0,0.0,0.0,0.0,0.0,0.0,-2.9419,-2.9322,-2.989,-2.9352,-2.5279,0.0,0.0,0.0,0.0,0.0,0.0,0.0,0.0,0.0,0.0,0.0,-2.5364,-2.8066,-2.9774,-2.9924,-3.0283,-3.0043,-2.8876,-2.8064,-2.6806,-2.4903,-2.2191,-1.9624,0.0,0.0,0.0,0.0,0.0,0.0,0.0,0.0,0.0,0.0,0.0,0.0,0.0,0.0,0.0,0.0,0.0,0.0,0.0,0.0,0.0,0.0,0.0,0.0,0.0,0.0,0.0,0.0,0.0,0.0,0.0,0.0,-3.165,-3.2713,0.0,0.0,0.0,0.0,0.0,0.0,0.0,0.0,0.0,0.0,0.0,0.0,0.0,-4.002,-4.1407,-4.4215,-4.5703,-4.5906,-4.7394,-4.7768,-4.7172,-4.7675,-4.7138,-4.5736,-4.5094,0.0,-3.9212,-3.731,0.0,0.0,0.0,0.0,0.0,0.0,0.0,0.0,0.0,0.0,0.0,0.0,0.0,0.0,0.0,0.0,0.0,0.0,0.0,0.0,0.0,0.0,-3.4386,-3.3817,-3.3756,-3.3395,-3.1599,-2.7654,-2.4156,-2.3161,-2.1665,-2.0109,0.0,0.0,0.0,0.0,0.0,0.0,-2.6635,-2.8953,-3.0612,-3.1182,-3.0821,-3.0223,-2.9532,-2.8334,-2.6986,-2.5585,-2.3635,-2.1672,-1.9719,-1.7522,0.0,0.0,0.0,0.0,0.0,0.0,0.0,0.0,0.0,0.0,0.0,0.0,0.0,0.0,0.0,0.0,0.0,0.0,0.0,0.0,0.0,0.0,0.0,0.0,0.0,0.0,0.0,0.0,0.0,-3.163,-3.4438,-3.5216,-3.5385,-3.481,0.0,0.0,0.0,0.0,0.0,0.0,0.0,0.0,0.0,-4.3436,-4.4153,-4.537,-4.7293,-4.9018,-5.0101,-5.0574,-5.1623,-5.2168,-5.2167,-5.1629,-5.0763,-4.9661,-4.8326,-4.6105,-4.3152,-4.0232,-3.7519,-3.5194,0.0,0.0,0.0,0.0,-3.4541,-3.3898,-3.6193,-3.5983,-3.4576,-3.3723,0.0,0.0,0.0,0.0,0.0,0.0,0.0,-3.1517,-3.3095,-3.4485,-3.5609,-3.6028,-3.6118,-3.5759,-3.4472,-3.2078,-2.9295,-2.6417,-2.5764,-2.4567,-2.1006,-2.0976,0.0,0.0,0.0,-2.5505,-2.7714,-2.9459,-3.0761,-3.1421,-3.1241,-3.0821,-3.0163,-2.9262,-2.8154,-2.6836,-2.5277,-2.358,-2.1741,-1.9705,-1.7639,0.0,0.0,0.0,0.0,0.0,0.0,0.0,0.0,0.0,0.0,0.0,0.0,0.0,0.0,0.0,0.0,0.0,0.0,0.0,0.0,0.0,0.0,0.0,0.0,0.0,0.0,0.0,0.0,-3.445,-3.7178,-3.7608,-3.8633,-3.8362,0.0,0.0,0.0,0.0,0.0,0.0,-4.2794,-4.3606,-4.5534,-4.892,-4.9224,-5.0236,-5.2063,-5.2807,-5.3484,-5.4093,-5.4634,-5.5175,-5.5647,-5.4405,-5.3344,-5.2413,-5.0632,-4.883,-4.68,-4.315,-4.0487,-3.8607,-3.8129,-3.7142,-3.6197,-3.8214,-3.8209,-3.7569,-4.0331,-4.0127,-3.8482,-3.7375,-3.6088,-3.4474,-3.1509,0.0,0.0,0.0,0.0,-3.3073,-3.5492,-3.6174,-3.6537,-3.7644,-3.7793,-3.7345,-3.6237,-3.5459,-3.3785,-2.9681,-2.9382,-2.8457,-2.4208,-2.4118,0.0,-2.3101,-2.5046,-2.723,-2.8876,-3.0223,-3.1182,-3.169,-3.16,-3.1241,-3.0552,-3.0073,-2.9292,-2.7944,-2.6752,-2.5373,-2.3688,-2.1817,-1.9863,-1.7858,0.0,0.0,0.0,0.0,0.0,0.0,0.0,0.0,0.0,0.0,0.0,0.0,0.0,0.0,0.0,0.0,0.0,0.0,0.0,0.0,0.0,0.0,0.0,0.0,0.0,0.0,0.0,0.0,0.0,-4.0011,-4.1813,0.0,0.0,0.0,0.0,-4.0764,-4.2286,-4.4423,-4.7398,-4.8274,-4.9729,-5.1995,-5.2841,-5.3619,-5.4397,-5.5175,-5.5581,-5.5615,-5.5614,-5.5647,-5.5681,-5.5612,-5.4468,-5.2517,-5.2373,-5.1111,-4.894,-4.6172,-4.3898,-4.2141,-4.2119,-4.128,-4.0104,-4.0267,-3.9841,-3.9356,-4.0201,-3.9984,-3.9559,-4.0696,-3.896,-3.6357,-3.6148,-3.4728,0.0,0.0,-3.57,-3.6473,-3.788,-3.8247,-3.8422,-3.914,-3.8811,-3.8153,-3.7464,-3.6836,-3.5579,-3.2796,-3.13,-2.9983,-2.8517,0.0,-2.7165,-2.6452,-2.8094,-2.9624,-3.0313,-3.1569,-3.2407,-3.2437,-3.1869,-3.1241,-3.0552,-3.0462,-2.9924,-2.8637,-2.7914,-2.6916,-2.5611,-2.3757,-2.214,-2.0828,-1.803,0.0,0.0,0.0,0.0,0.0,0.0,0.0,0.0,0.0,0.0,0.0,0.0,0.0,0.0,0.0,0.0,0.0,0.0,0.0,0.0,0.0,0.0,0.0,0.0,0.0,0.0,0.0,0.0,-4.4248,-4.594,0.0,-4.4215,-4.4451,-4.4959,-4.5471,-4.7297,-4.9323,-5.1386,-5.2198,-5.3382,-5.5141,-5.548,-5.5987,-5.6697,-5.6968,-5.7103,-5.7103,-5.7103,-5.7103,-5.7103,-5.7103,-5.5933,-5.3821,-5.3413,-5.1934,-4.9793,-4.8416,-4.6681,-4.4825,-4.3958,-4.306,-4.2342,-4.2761,-4.2761,-4.2671,-4.3329,-4.2851,-4.1825,-4.1504,-4.0307,-3.899,-3.899,-3.8206,-3.7379,-3.7893,-3.8176,-3.843,-3.8906,-3.905,-3.911,-3.9313,-3.923,-3.8751,-3.7644,-3.7225,-3.6567,-3.4801,-3.3694,-3.2377,-3.0193,-3.0342,-3.0372,-2.9265,-3.0462,-3.1689,-3.2347,-3.2856,-3.2976,-3.2557,-3.2288,-3.1869,-3.1182,-3.0402,-2.9714,-2.9265,-2.7824,-2.6559,-2.5662,-2.4212,-2.2833,-2.1597,-1.9786,-1.7672,0.0,0.0,0.0,0.0,0.0,0.0,0.0,0.0,0.0,0.0,0.0,0.0,0.0,0.0,0.0,0.0,0.0,0.0,0.0,0.0,0.0,0.0,0.0,0.0,0.0,-4.232,-4.5771,-4.7022,-4.9154,-4.983,-4.8071,-4.8815,-4.9526,-4.9796,-5.1386,-5.301,-5.4532,-5.5074,-5.5886,-5.7137,-5.7408,-5.778,-5.8254,-5.8254,-5.8254,-5.8254,-5.8017,-5.7881,-5.7881,-5.7881,-5.6887,-5.5093,-5.4282,-5.2867,-5.1001,-5.0035,-4.8835,-4.7519,-4.6562,-4.5637,-4.4919,-4.5743,-4.5861,-4.5699,-4.5829,-4.4881,-4.3439,-4.2402,-4.1594,-4.1025,-4.0786,-4.0427,-4.0068,-4.0068,-4.0068,-4.0038,-3.9798,-3.9738,-3.9679,-3.9433,-3.923,-3.8841,-3.7943,-3.7404,-3.6836,-3.5998,-3.528,-3.4173,-3.2198,-3.2587,-3.2796,-3.1689,-3.2467,-3.3335,-3.3754,-3.3814,-3.3664,-3.3215,-3.2766,-3.2318,-3.1869,-3.0642,-2.9831,-2.9621,-2.7944,-2.6632,-2.5974,-2.4705,-2.3431,-2.2178,-2.0382,-1.8445,-1.6369,0.0,0.0,0.0,0.0,0.0,0.0,0.0,0.0,0.0,0.0,0.0,0.0,0.0,0.0,0.0,0.0,0.0,0.0,0.0,0.0,0.0,0.0,0.0,-4.1373,-4.5838,-4.8849,-4.821,-5.1352,-5.2706,-5.0507,-5.1589,-5.2739,-5.3551,-5.4296,-5.5344,-5.6799,-5.69,-5.7239,-5.7949,-5.866,-5.9032,-5.9032,-5.9032,-5.9032,-5.9032,-5.8321,-5.7949,-5.7915,-5.7915,-5.7297,-5.6165,-5.5125,-5.3999,-5.2781,-5.1031,-5.0242,-5.0184,-4.9868,-4.8975,-4.796,-4.8955,-4.8925,-4.8206,-4.7215,-4.5785,-4.4257,-4.3559,-4.294,-4.2351,-4.1722,-4.1474,-4.1482,-4.1452,-4.1452,-4.1265,-4.0606,-4.0427,-4.0247,-3.9619,-3.8931,-3.8422,-3.8392,-3.7404,-3.6537,-3.6507,-3.5968,-3.531,-3.4653,-3.4533,-3.4324,-3.3664,-3.4113,0.0,-3.4533,-3.4533,-3.4533,-3.4503,-3.3335,-3.2557,-3.2527,-3.127,-3.0253,-2.9651,-2.8304,-2.7255,-2.6656,-2.5292,-2.4006,-2.2797,-1.9828,-1.8036,-1.7529,0.0,0.0,0.0,0.0,0.0,0.0,0.0,0.0,0.0,0.0,0.0,0.0,0.0,0.0,0.0,0.0,0.0,0.0,0.0,0.0,0.0,-4.2692,-4.5263,-4.5263,-4.8342,-5.1352,-5.3315,-5.4499,-5.5074,-5.4972,-5.4837,-5.5074,-5.5852,-5.6562,-5.7408,-5.8355,-5.8896,-5.9302,-5.9471,-5.9708,-5.981,-5.981,-5.981,-5.981,-5.981,-5.9573,-5.9235,-5.8693,-5.8693,-5.7763,-5.6204,-5.5889,-5.4681,-5.2856,-5.2359,-5.1379,-5.0152,-4.9643,-4.893,-4.8218,-4.8487,-4.8187,-4.7505,-4.6758,-4.6154,-4.5622,-4.4975,-4.4317,-4.3748,-4.3569,-4.318,-4.2701,-4.2261,-4.2141,-4.1991,-4.1294,-4.0756,-4.0337,-4.0187,-3.9619,-3.899,-3.8482,-3.8123,-3.7584,-3.6656,-3.6327,-3.5998,-3.534,-3.522,-3.516,-3.4981,-3.51,-3.522,-3.522,-3.522,-3.504,-3.4563,-3.4174,-3.3544,-3.2557,-3.127,-3.0253,-2.9651,-2.741,-2.6273,-2.6572,-2.5292,-2.4447,-2.4059,-2.1597,-1.9789,0.0,0.0,0.0,0.0,0.0,0.0,0.0,0.0,0.0,0.0,0.0,0.0,0.0,0.0,0.0,0.0,0.0,0.0,0.0,0.0,0.0,0.0,-4.6684,-4.9424,-5.0405,-5.1995,-5.3991,-5.6359,-5.69,-5.7374,-5.8118,-5.778,-5.7712,-5.8152,-5.8592,-5.8998,-5.9438,-5.9877,-6.0114,-6.0114,-6.0419,-6.0588,-6.0588,-6.0588,-6.0588,-6.0588,-6.025,-5.9708,-5.9032,-5.9032,-5.8223,-5.6887,-5.6398,-5.5458,-5.4221,-5.3265,-5.2284,-5.1243,0.0,0.0,0.0,0.0,-4.8875,-4.7843,-4.7479,-4.6882,-4.6262,-4.5873,-4.5274,-4.4676,-4.4407,-4.4047,-4.3559,-4.294,-4.2761,-4.2611,-4.1991,-4.1542,-4.1085,-4.0516,-4.0098,-3.9649,-3.896,-3.8601,-3.8182,-3.7434,-3.6866,0.0,-3.5998,-3.5699,-3.5519,-3.5519,-3.5519,-3.5519,-3.5519,-3.5519,-3.534,-3.4951,-3.4683,-3.4173,-3.3395,-3.1869,0.0,0.0,0.0,-2.6363,-2.6183,-2.5143,0.0,0.0,0.0,0.0,0.0,0.0,0.0,0.0,-1.7478,-1.6823,0.0,0.0,0.0,0.0,0.0,0.0,0.0,0.0,0.0,0.0,0.0,0.0,0.0,0.0,0.0,0.0,-5.0338,-5.345,-5.5649,-5.6021,-5.6562,-5.7848,-5.8693,-5.9404,-6.0047,-6.0114,-6.0114,-6.0114,-6.0182,-6.025,-6.025,-6.0317,0.0,0.0,0.0,-6.1434,-6.1434,-6.1434,-6.1434,-6.1434,-6.0689,-5.9979,-5.9268,-5.9167,-5.8727,-5.798,-5.6882,-5.6243,-5.5889,-5.3882,-5.2945,-5.2617,-5.1924,-5.1233,-5.0758,-5.0979,-5.0075,-4.8728,-4.8666,0.0,0.0,-4.6399,-4.5963,-4.5304,-4.4736,-4.4436,-4.4197,-4.3559,-4.3349,-4.317,-4.2611,-4.244,-4.2111,-4.0905,-4.0516,-4.0247,-3.9649,-3.899,-3.8482,-3.8392,-3.7464,-3.6656,-3.6507,-3.5938,-3.5519,-3.5519,-3.5519,-3.5519,-3.5519,-3.5519,-3.5519,-3.5519,-3.4951,0.0,-3.4503,-3.2796,-3.166,-3.1511,-2.9175,-2.7255,-2.6004,-2.5442,-2.5412,-2.5944,-2.4751,-2.4693,-2.5817,-2.514,-2.4904,-2.4985,-2.0826,-1.9433,0.0,0.0,0.0,0.0,0.0,0.0,0.0,0.0,0.0,0.0,0.0,0.0,0.0,0.0,0.0,-4.9864,-5.301,-5.5615,-5.7239,-5.7983,-5.849,-5.8761,-5.9438,-5.9945,-6.008,-6.0114,-6.0114,-6.0114,-6.0689,-6.1061,-6.1061,-6.1637,-6.1941,-6.1941,-6.211,-6.2178,-6.2178,-6.2178,-6.2178,-6.2178,-6.2009,0.0,-6.0825,-6.0182,-5.9471,-5.8724,-5.7934,-5.6547,-5.4879,-5.4463,-5.3209,-5.1435,-5.0803,-5.0442,-5.0171,-4.923,-4.8672,-4.8347,-4.7804,-4.7362,-4.713,-4.713,-4.6651,-4.607,-4.592,-4.5185,0.0,-4.4167,-4.3708,-4.326,-4.314,-4.2761,-4.2321,-4.2081,-4.1175,-4.0367,-4.0247,-3.9679,-3.905,-3.8482,-3.8182,-3.7704,-3.6656,-3.5938,-3.5519,-3.5519,-3.5519,-3.5519,-3.5519,-3.5519,-3.5519,-3.5519,-3.54,-3.507,-3.4563,-3.3634,-3.2647,-3.157,-3.0073,-2.8873,-2.8038,-2.8397,-2.8427,-2.8038,-2.7261,-2.6712,-2.6425,-2.5815,-2.5743,-2.6134,-2.4118,-2.3473,0.0,0.0,0.0,0.0,0.0,0.0,0.0,0.0,0.0,0.0,0.0,-4.2049,-4.4621,0.0,-5.0439,-5.3044,-5.5344,-5.7205,-5.8287,-5.9438,-6.0148,-6.0148,-6.0486,-6.0858,-6.1197,-6.1231,-6.1231,-6.1231,-6.1603,-6.1839,-6.1839,-6.2178,-6.2381,-6.2381,-6.2381,-6.2381,-6.2381,-6.2381,-6.2381,-6.2381,-6.2381,-6.2009,-6.1298,-6.0892,-6.008,-5.8998,-5.8626,-5.7292,-5.5296,-5.4211,-5.2723,-5.1199,-5.0794,-5.0495,-5.0106,-4.9494,-4.9045,-4.8686,-4.8027,-4.7788,-4.7758,-4.7429,-4.707,-4.6741,-4.6369,-4.5801,-4.5185,-4.4496,-4.4077,-4.3708,-4.3379,-4.309,-4.2761,-4.247,-4.1901,-4.1205,-4.0546,-4.0157,-3.9709,-3.902,-3.8631,-3.8182,-3.7554,-3.6626,-3.5878,-3.5549,-3.5519,-3.5519,-3.5519,-3.5519,-3.5519,-3.5519,-3.5519,-3.537,-3.5011,-3.4382,-3.3425,-3.2079,-3.142,-3.0761,-3.0076,-3.0372,-3.0402,-3.0046,-2.9383,-2.9215,-2.9569,-2.8559,-2.8768,-2.9987,-2.8499,-2.7193,0.0,0.0,0.0,0.0,0.0,0.0,0.0,-3.871,-4.0087,-4.2455,-4.4621,-4.6853,-4.9424,-5.1589,-5.3721,-5.5784,-5.7239,-5.8423,-5.9336,-6.0385,-6.1129,-6.1298,-6.1434,-6.1738,-6.2347,-6.2381,-6.2381,-6.2381,-6.2381,-6.2381,-6.2381,-6.2381,-6.2381,-6.2381,-6.2381,-6.2381,-6.2381,-6.2381,-6.2381,-6.2381,-6.2381,-6.2076,-6.1501,-6.1366,-6.0554,-5.9163,-5.8673,-5.7606,-5.6087,-5.4263,-5.2723,-5.1542,-5.1773,-5.1287,-5.0375,-5.0255,-4.9912,-4.9374,-4.8716,-4.8386,-4.8207,-4.7668,-4.7399,-4.7219,-4.6681,-4.6369,-4.604,-4.5005,-4.4526,-4.4197,-4.3618,-4.3379,-4.317,-4.2671,-4.25,-4.2111,-4.0995,-4.0576,-4.0247,-3.9709,-3.905,-3.8542,-3.8422,-3.7524,-3.6596,-3.5818,-3.5579,-3.5519,-3.5519,-3.5519,-3.5519,-3.5519,-3.5519,-3.5519,-3.5519,-3.4891,-3.4054,-3.2976,-3.2766,-3.2437,-3.1899,-3.1899,-3.1899,-3.1899,-3.136,-3.1629,-3.2706,-3.1599,-3.1928,-3.3484,-3.2216,-3.0528,-3.5538,-3.4262,-3.5013,-3.7686,-3.8058,-3.9309,0.0,-4.5669,-4.5635,-4.8511,-5.0338,-5.1758,-5.2807,-5.4296,-5.5852,-5.7408,-5.8355,-5.9404,-6.0858,-6.0588,-6.0486,-6.1231,-6.1873,-6.2313,-6.2381,-6.2381,-6.2381,-6.2381,-6.2381,-6.2381,-6.2381,-6.2381,-6.2381,-6.2381,-6.2381,-6.2381,-6.2381,-6.2381,-6.2381,-6.2381,-6.2381,-6.2347,-6.2245,-6.1603,-6.0825,-5.9873,-5.7515,-5.6387,-5.6204,-5.5936,-5.4598,-5.2812,-5.3828,-5.2958,-5.105,-5.0405,-5.0136,-4.9986,-4.9374,-4.882,-4.8267,-4.8207,-4.7788,-4.7309,-4.7219,-4.68,-4.6249,-4.61,-4.5244,-4.4287,-4.4227,-4.3738,-4.326,-4.32,-4.2791,-4.2351,-4.2201,-4.1235,-4.0367,-4.0307,-3.9768,-3.911,-3.8482,-3.8272,-3.7764,-3.6567,-3.5878,-3.5519,-3.5519,-3.5519,-3.5519,-3.5519,-3.5519,-3.5519,-3.5519,-3.4891,-3.4444,-3.4294,-3.3694,-3.3335,-3.3275,-3.3275,-3.3275,-3.3275,-3.3185,-3.3245,-3.3395,-3.3245,-3.3275,-3.3484,-3.3303,-3.3092,-4.0373,-3.9993,-4.0688,-4.1941,-4.3639,-4.5635,-4.8003,-4.9052,-5.0033,-5.1725,-5.3247,-5.4532,-5.5277,-5.6292,-5.7306,-5.8389,-5.9167,-5.9877,-6.052,-6.0723,-6.0588,-6.0047,-6.0622,-6.1231,-6.1704,-6.1772,-6.1941,-6.2347,-6.2381,-6.2381,-6.2381,-6.2381,-6.2381,-6.2381,-6.2381,-6.2381,-6.2381,-6.2381,-6.2381,-6.2381,-6.2381,-6.2381,-6.2381,-6.2076,-6.1264,-6.0009,-5.783,-5.6632,-5.6126,-5.4806,-5.3742,-5.2945,-5.3396,-5.262,-5.1199,-5.0853,-5.0764,-5.072,-5.0062,-4.9643,-4.9284,-4.8536,-4.8087,-4.7818,-4.7429,-4.71,-4.68,-4.6399,-4.5891,-4.5263,-4.4526,-4.4107,-4.3768,-4.3379,-4.312,-4.2821,-4.25,-4.1961,-4.1324,-4.0546,-4.0187,-3.9768,-3.911,-3.8661,-3.8212,-3.7674,-3.6716,-3.5938,-3.5549,-3.5519,-3.5519,-3.5519,-3.5519,-3.5519,-3.5519,-3.525,-3.507,-3.507,-3.4831,-3.4651,-3.4651,-3.4651,-3.4651,-3.4651,-3.4262,-3.4262,-3.4651,-3.3873,-3.3903,-3.4651,-3.4262,-3.4292,-4.2861,-4.3673,-4.475,-4.5331,-4.797,-5.0439,-5.0507,-5.1961,-5.345,-5.4262,-5.5412,-5.6461,-5.7002,-5.7543,-5.8186,-5.9167,-5.9742,-6.0182,-6.0385,-6.0588,-6.0182,-5.8863,-5.8829,-5.9268,-6.0283,-6.0723,-6.1264,-6.2042,-6.2076,-6.2178,-6.2381,-6.2381,-6.2381,-6.2381,-6.2381,-6.2381,-6.2381,-6.2381,-6.2381,-6.2381,-6.2381,-6.2381,-6.2381,-6.2178,-6.1501,-6.0347,-5.8608,-5.7336,-5.6382,-5.4569,-5.3439,-5.29,-5.29,-5.2169,-5.1229,-5.1229,-5.1229,-5.1139,-5.0614,-5.0345,-5.0046,-4.9134,-4.8596,-4.8207,-4.7728,-4.7459,-4.7219,-4.6741,-4.6471,-4.607,-4.5125,-4.4586,-4.4197,-4.3678,-4.3409,-4.317,-4.2731,-4.253,-4.2111,-4.1115,-4.0636,-4.0247,-3.9768,-3.914,-3.8601,-3.8422,-3.7614,-3.6716,-3.5878,-3.5609,-3.5519,-3.5519,-3.5519,-3.5519,-3.5519,-3.5519,-3.5519,-3.5519,-3.5519,-3.5519,-3.5519,-3.5519,-3.5519,-3.5519,-3.5011,-3.5011,-3.5519,-3.4532,-3.4562,-3.5489,-3.4981,-3.504,-4.1044,-4.2895,-4.5122,-4.7259,-4.9494,-5.1758,-5.3923,-5.504,-5.5818,-5.6562,-5.7306,-5.7814,-5.7848,-5.7881,-5.8355,-5.9844,-6.008,-6.0385,-6.1163,-6.0013,-5.8795,-5.8017,-5.6697,-5.6427,-5.7848,-5.9302,-6.0486,-6.1264,-6.1332,-6.1637,-6.2347,-6.2381,-6.2381,-6.2381,-6.2381,-6.2381,-6.2381,-6.2381,-6.2381,-6.2381,-6.2381,-6.2381,-6.2381,-6.167,-6.1298,-6.1197,-5.9637,-5.8361,-5.7331,-5.6461,-5.4847,-5.29,-5.29,-5.2169,-5.1229,-5.1229,-5.1229,-5.1229,-5.1199,-5.0734,-5.0196,-5.0136,-4.9314,-4.8297,-4.8267,-4.7818,-4.7309,-4.7279,-4.68,-4.6279,-4.6219,-4.5263,-4.4317,-4.4287,-4.3768,-4.329,-4.326,-4.2791,-4.2381,-4.2351,-4.1265,-4.0397,-4.0367,-3.9828,-3.917,-3.8482,-3.8362,-3.7883,-3.6626,-3.5908,-3.5519,-3.5519,-3.5519,-3.5519,-3.5519,-3.5519,-3.5519,-3.5519,-3.5519,-3.5519,-3.5519,-3.5519,-3.5519,-3.5519,-3.5489,-3.5489,-3.5519,-3.5459,-3.5459,-3.5519,-3.5489,-3.5489,-4.5038,-4.6921,-4.8781,-5.1048,-5.2909,-5.4532,-5.5784,-5.663,-5.7103,-5.6867,-5.663,-5.6292,-5.5784,-5.5683,-5.619,-5.7679,-5.8727,-5.9471,-5.9742,-5.9742,-5.893,-5.6697,-5.6427,-5.6427,-5.6461,-5.778,-5.937,-6.1163,-6.1298,-6.1637,-6.2347,-6.2381,-6.2381,-6.2381,-6.2381,-6.2381,-6.2381,-6.2381,-6.2381,-6.2381,-6.2381,-6.2381,-6.2381,-6.2144,-6.1772,-6.1226,-5.9917,-5.8568,-5.7277,-5.5399,-5.3978,-5.29,-5.29,-5.2169,-5.1293,-5.2063,-5.1835,-5.1229,-5.1229,-5.1079,-5.0764,-5.0345,-4.9897,-4.9434,-4.8566,-4.8117,-4.7878,-4.7429,-4.716,-4.686,-4.6441,-4.595,-4.5502,-4.5065,-4.4466,-4.3947,-4.3947,-4.3479,-4.288,-4.25,-4.2051,-4.1414,-4.0546,-4.0217,-3.9858,-3.917,-3.8302,-3.7434,-3.6596,-3.6297,-3.5998,-3.5549,-3.5519,-3.5519,-3.5519,-3.5519,-3.5519,-3.5519,-3.5519,-3.5519,-3.5519,-3.5519,-3.5519,-3.5519,-3.5519,-3.5519,-3.5519,-3.5519,-3.5519,-3.5519,-3.5519,-3.5519,-4.7521,-4.956,-5.142,-5.3721,-5.5209,-5.6292,-5.7036,-5.734,-5.7205,-5.6224,-5.5209,-5.4262,-5.3518,-5.2942,-5.3416,-5.5987,-5.7205,-5.822,-5.9268,-5.9573,-5.893,-5.6765,-5.6461,-5.6325,-5.6122,-5.6934,-5.8321,-6.0351,-6.0723,-6.1197,-6.1975,-6.2245,-6.2381,-6.2381,-6.2381,-6.2381,-6.2381,-6.2381,-6.2381,-6.2381,-6.2381,-6.2381,-6.2381,-6.2381,-6.1914,-6.1013,-5.9919,-5.8484,-5.6733,-5.4737,-5.3404,-5.2642,-5.2397,-5.1835,-5.1293,-5.2018,-5.1865,-5.1229,-5.1229,-5.1229,-5.1139,-5.0674,-5.0375,-5.0046,-4.9254,-4.8656,-4.8207,-4.7788,-4.7489,-4.7219,-4.68,-4.6501,-4.6202,-4.5753,-4.5155,-4.4586,-4.4377,-4.3947,-4.3479,-4.2821,-4.256,-4.2141,-4.1235,-4.0696,-4.0247,-3.9828,-3.8841,-3.7883,-3.7255,-3.6956,-3.6567,-3.5938,-3.5848,-3.5759,-3.5519,-3.5519,-3.5519,-3.5519,-3.5519,-3.5519,-3.5519,-3.5519,-3.5519,-3.5519,-3.5519,-3.5519,-3.5519,-3.5519,-3.5519,-3.5519,-3.5519,-3.5519,-4.8565,-5.0845,-5.3078,-5.5277,-5.6359,-5.7036,-5.7679,-5.7203,-5.6187,-5.4701,-5.3078,-5.1761,-5.095,-4.9799,-5.0371,-5.4735,-5.5615,-5.6765,-5.9641,-5.9471,-5.8795,-5.8017,-5.6697,-5.6122,-5.6833,-5.6867,-5.7476,-5.8964,-5.9708,-6.0452,-6.1298,-6.2009,-6.2381,-6.2381,-6.2381,-6.2381,-6.2381,-6.2381,-6.2381,-6.2381,-6.2381,-6.2381,-6.2381,-6.2381,-6.1756,-6.0553,-5.9786,-5.8119,-5.586,-5.439,-5.3177,-5.2097,-5.1468,-5.1229,-5.1229,-5.1229,-5.1229,-5.1229,-5.1229,-5.1229,-5.1229,-5.1229,-5.0764,-5.0226,-5.0196,-4.9374,-4.8356,-4.8297,-4.7848,-4.7339,-4.7309,-4.683,-4.6339,-4.6339,-4.5843,-4.5185,-4.4556,-4.4377,-4.4137,-4.3469,-4.2821,-4.241,-4.241,-4.1332,-4.0427,-4.0397,-3.9858,-3.92,-3.8482,-3.7853,-3.7225,-3.6596,-3.6537,-3.6267,-3.5669,-3.5579,-3.5549,-3.5549,-3.5519,-3.5519,-3.5519,-3.5519,-3.5519,-3.5519,-3.5519,-3.5519,-3.5519,-3.5519,-3.5519,-3.5519,-3.5519,-3.5519,-5.1562,-5.3991,-5.5919,-5.707,-5.7476,-5.7509,-5.7171,-5.5593,-5.3625,-5.1626,-4.9526,-4.7499,-4.5735,-4.6898,-4.8917,-5.115,-5.4329,-5.7171,-5.9032,-5.9607,-5.9539,-5.8829,-5.7915,-5.7645,-5.8389,-5.7949,-5.822,-5.9708,-5.9979,-6.0689,-6.2042,-6.2279,-6.2381,-6.2381,-6.2381,-6.2381,-6.2381,-6.2381,-6.2381,-6.2381,-6.2381,-6.2381,-6.2381,-6.2381,-6.1756,-6.0511,-5.8917,-5.7128,-5.5086,-5.3357,-5.2171,-5.1439,-5.1289,-5.1229,-5.1229,-5.1229,-5.1229,-5.1229,-5.1229,-5.1229,-5.1229,-5.1229,-5.1063,-5.0823,-5.0345,-4.9956,-4.9553,-4.8566,-4.8177,-4.7908,-4.7429,-4.7189,-4.707,-4.707,-4.6531,-4.6022,-4.5801,-4.5035,-4.4257,-4.4107,-4.315,-4.241,-4.241,-4.1722,-4.0965,-4.0487,-4.0247,-3.9709,-3.8542,-3.8242,-3.7883,-3.7255,-3.7165,-3.7105,-3.6926,-3.6507,-3.6237,-3.6237,-3.5789,-3.5519,-3.5519,-3.5519,-3.5519,-3.5519,-3.5519,-3.5519,-3.5519,-3.5519,-3.5519,-3.5519,-3.5519,-3.5519,-5.3855,-5.5852,-5.7374,-5.778,-5.7645,-5.7036,-5.5683,-5.3573,-5.1017,-4.7868,-4.5588,-4.3578,-4.1427,-4.3193,-4.5771,-4.824,-5.2131,-5.5818,-5.8626,-5.9641,-6.008,-6.0013,-5.9336,-5.9032,-5.9438,-5.9099,-5.937,-6.0554,-6.0317,-6.0622,-6.1839,-6.2212,-6.2381,-6.2381,-6.2381,-6.2381,-6.2381,-6.2381,-6.2381,-6.2381,-6.2381,-6.2381,-6.2381,-6.1837,-6.0788,-5.9263,-5.7694,-5.5904,-5.4107,-5.2791,-5.1977,-5.1618,-5.1319,-5.1229,-5.1229,-5.1229,-5.1229,-5.1229,-5.1229,-5.1229,-5.1229,-5.1229,-5.1229,-5.1139,-5.0734,-5.0435,-5.0046,-4.9344,-4.8716,-4.8207,-4.7848,-4.7519,-4.7309,-4.7309,-4.701,-4.6681,-4.6339,-4.5681,-4.5005,-4.4436,-4.3479,-4.2791,-4.2791,-4.2252,-4.1722,-4.1324,-4.0756,-4.0127,-3.9379,-3.902,-3.8571,-3.7913,-3.7853,-3.7734,-3.7434,-3.7075,-3.6896,-3.6896,-3.6537,-3.6237,-3.5938,-3.5938,-3.5789,-3.5519,-3.5519,-3.5519,-3.5519,-3.5519,-3.5519,-3.5519,-3.5519,-3.5519,-5.5615,-5.6934,-5.7915,-5.8017,-5.734,-5.6053,-5.372,-5.1128,-4.8002,-4.3655,-4.1395,-3.9631,-3.7768,-3.9439,-4.2307,-4.6041,-4.983,-5.3822,-5.8254,-5.9505,-6.0283,-6.1197,-6.0689,-6.0283,-6.0385,-6.0317,-6.0588,-6.14,-6.0723,-6.0622,-6.14,-6.2042,-6.2381,-6.2381,-6.2381,-6.2381,-6.2381,-6.2381,-6.2381,-6.2381,-6.2381,-6.2381,-6.2341,-6.106,-5.9467,-5.7692,-5.6353,-5.4819,-5.3206,-5.2432,-5.2162,-5.2214,-5.1486,-5.1229,-5.1229,-5.1229,-5.1229,-5.1229,-5.1229,-5.1229,-5.1229,-5.1229,-5.1229,-5.1229,-5.1229,-5.0764,-5.0315,-5.0226,-4.9434,-4.8536,-4.8446,-4.7938,-4.7429,-4.7429,-4.7369,-4.716,-4.6591,-4.6339,-4.5891,-4.4586,-4.3798,-4.3379,-4.3319,-4.288,-4.25,-4.241,-4.1384,-4.0636,-4.0546,-3.9888,-3.92,-3.8601,-3.8512,-3.8302,-3.7734,-3.7584,-3.7524,-3.7524,-3.7464,-3.7165,-3.6626,-3.6596,-3.6357,-3.5759,-3.5759,-3.5759,-3.5759,-3.5759,-3.5729,-3.5639,-3.5639,-3.5579,-5.7103,-5.7712,-5.8051,-5.866,-5.734,-5.5135,-5.2262,-4.8,0.0,-3.9752,-3.685,-3.4853,-3.4432,-3.7689,-4.1671,-4.5279,-4.9492,-5.3653,-5.7543,-5.8727,-5.9742,0.0,-6.1197,-6.1332,-6.1941,-6.1434,-6.14,-6.2144,-6.1501,-6.1434,-6.2144,-6.2313,-6.2381,-6.2381,-6.2381,-6.2381,-6.2381,-6.2381,-6.2381,-6.2381,-6.2381,-6.2381,-6.2308,-6.0603,-5.9053,-5.766,-5.5364,-5.4157,-5.3668,-5.2041,-5.1955,-5.2684,-5.1602,-5.1229,-5.1229,-5.1229,-5.1229,-5.1229,-5.1229,-5.1229,-5.1229,-5.1229,-5.1229,-5.1229,-5.1229,-5.1139,-5.0883,-5.0345,-5.0016,-4.9793,-4.9224,-4.864,-4.8117,-4.8117,-4.7698,-4.7279,-4.716,-4.6711,-4.5891,-4.4586,-4.4227,-4.3917,-4.3379,-4.32,-4.297,-4.25,-4.2201,-4.1871,-4.1294,-4.0157,-3.9379,-3.926,-3.923,-3.92,-3.908,-3.8542,-3.8212,-3.8212,-3.7704,-3.7375,-3.7255,-3.7255,-3.7195,-3.7075,-3.7075,-3.7075,-3.7075,-3.7075,-3.6806,-3.6327,-3.6327,-3.6028,-5.7101,-5.7782,-5.8084,-5.8829,-5.6765,-5.3584,-4.9826,0.0,0.0,-3.6144,-3.3855,-3.236,-3.1608,-3.5052,-3.8827,-4.1337,-4.5433,-5.0019,-5.4938,-5.6596,-5.8287,-6.0994,-6.1637,-6.2009,-6.2347,-6.2076,-6.2009,-6.2347,-6.2076,-6.2009,-6.2381,-6.2381,-6.2381,-6.2381,-6.2381,-6.2381,-6.2381,-6.2381,-6.2381,-6.2381,-6.2381,-6.2381,-6.2308,-5.9786,-5.8141,-5.7117,-5.4311,-5.2855,-5.2428,-5.1553,-5.1526,-5.2002,-5.1824,-5.1738,-5.1738,-5.1738,-5.1738,-5.1678,-5.1349,-5.1229,-5.1229,-5.1229,-5.1229,-5.1229,-5.1229,-5.1229,-5.1139,-5.0794,-5.0465,-5.0106,-4.9853,-4.9284,-4.8716,-4.8356,-4.7788,-4.7309,-4.7309,-4.68,-4.61,-4.5484,-4.5065,-4.4616,-4.3958,-4.3798,-4.3629,-4.297,-4.262,-4.2291,-4.1961,-4.1025,-4.0307,-3.9978,-3.9619,-3.9373,-3.9373,-3.911,-3.8931,-3.8931,-3.8631,-3.8302,-3.7943,-3.7913,-3.7764,-3.7434,-3.7404,-3.7404,-3.7404,-3.7404,-3.7255,-3.6956,-3.6956,-3.6806,-5.6639,-5.7539,-5.8017,-5.8626,-5.5845,-5.1833,-4.7404,-4.2737,-3.7993,-3.3212,-3.142,-3.0495,-2.9664,-3.2519,-3.569,-3.7748,-4.1489,-4.6162,-5.1967,-5.4328,-5.6799,-6.0385,-6.1603,0.0,-6.2381,-6.2381,-6.2381,-6.2381,-6.2381,-6.2381,-6.2381,-6.2381,-6.2381,-6.2381,-6.2381,-6.2381,-6.2381,-6.2381,-6.2381,-6.2381,-6.2381,-6.2263,-6.1917,-5.8958,-5.7137,-5.6244,-5.3283,-5.182,-5.1572,-5.1293,-5.1339,-5.1632,-5.2042,-5.2127,-5.2007,-5.2157,-5.2127,-5.1917,-5.1409,-5.1229,-5.1229,-5.1229,-5.1229,-5.1229,-5.1229,-5.1229,-5.1229,-5.1229,-5.0794,-5.0405,-5.0405,-4.9972,-4.9284,-4.8476,-4.7908,-4.7489,-4.7339,-4.689,-4.6459,-4.6309,-4.5873,-4.5304,-4.4646,-4.4407,-4.4137,-4.3589,-4.3,-4.262,-4.262,-4.2021,-4.1384,-4.0876,-4.0217,-3.9798,-3.9649,-3.9619,-3.9559,-3.9403,-3.9373,-3.917,-3.8631,-3.8601,-3.8362,-3.7853,-3.7823,-3.7823,-3.7823,-3.7823,-3.7764,-3.7614,-3.7614,-3.7554,-5.6222,-5.7176,-5.7915,-5.7983,-5.4613,-5.0182,-4.5798,0.0,-3.5256,-3.149,-2.9248,-2.8309,-2.9385,-3.0998,-3.3467,-3.7375,-4.0648,-4.4514,-4.9659,-5.2908,-5.5818,-5.8863,0.0,0.0,-6.2313,-6.2381,-6.2381,-6.2381,-6.2381,-6.2381,-6.2381,-6.2381,-6.2381,-6.2381,-6.2381,-6.2381,-6.2381,-6.2381,-6.2381,-6.2381,-6.2381,-6.1837,-6.0679,-5.8097,-5.6252,-5.5021,-5.2409,-5.1834,-5.2634,-5.1635,-5.1819,-5.2726,-5.2312,-5.1828,-5.1379,-5.1977,-5.1828,-5.1289,-5.1229,-5.1229,-5.1229,-5.1229,-5.1229,-5.1229,-5.1229,-5.1229,-5.1229,-5.1229,-5.1169,-5.1139,-5.1139,-5.0631,-4.9823,-4.8596,-4.8237,-4.8027,-4.7429,-4.7249,-4.704,-4.6441,-4.6219,-4.6022,-4.5334,-4.4706,-4.4287,-4.4227,-4.3618,-4.32,-4.32,-4.2671,-4.2291,-4.2231,-4.1632,-4.0965,-4.0367,-4.0307,-4.0068,-3.9469,-3.9373,-3.9343,-3.932,-3.932,-3.929,-3.923,-3.923,-3.923,-3.923,-3.923,-3.8901,-3.8302,-3.8302,-3.7973,-5.4727,-5.6586,-5.7881,-5.7881,-5.4109,-4.9254,-4.4984,-3.9463,-3.4244,-3.0684,-2.8693,-2.7775,-2.8318,-2.9514,-3.1532,-3.4914,-3.713,0.0,-4.6002,-4.8593,-5.1657,-5.6461,-5.8355,-6.008,-6.2178,-6.2381,-6.2381,-6.2381,-6.2381,-6.2381,-6.2381,-6.2381,-6.2381,-6.2381,-6.2381,-6.2381,-6.2381,-6.2381,-6.2178,-6.1738,-6.1738,-6.12,-6.019,-5.74,-5.5889,-5.5291,-5.2444,-5.1865,-5.2812,-5.1681,-5.188,-5.2829,-5.2359,-5.2037,-5.1828,-5.2097,-5.2037,-5.1738,-5.1349,-5.1229,-5.1229,-5.1229,-5.1229,-5.1229,-5.1229,-5.1229,-5.1229,-5.1229,-5.1229,-5.1229,-5.1229,-5.0674,-5.0076,-4.9583,-4.8865,-4.8207,-4.7967,-4.7578,-4.7219,-4.695,-4.692,-4.6711,-4.6022,-4.5693,-4.5244,-4.4436,-4.4077,-4.3738,-4.3349,-4.312,-4.294,-4.294,-4.2013,-4.1265,-4.0995,-4.0995,-4.0696,-4.0038,-4.0008,-3.9828,-3.9439,-3.9373,-3.9373,-3.9373,-3.9373,-3.9373,-3.9373,-3.9373,-3.9254,-3.902,-3.902,-3.8871,-5.2258,-5.4665,-5.6229,-5.5833,-5.2059,-4.742,-4.3427,-3.818,-3.3255,-3.0238,-2.8543,-2.7585,-2.7585,-2.8505,-3.0097,-3.273,-3.4619,-3.7675,-4.3144,-4.5587,-4.868,-5.3788,-5.5683,-5.778,-6.0757,-6.1873,-6.2381,-6.2381,-6.2381,-6.2263,-6.1911,-6.1837,-6.203,-6.2381,-6.2381,-6.2381,-6.2381,-6.203,-6.1501,-6.0802,-6.0763,-6.0169,-5.9012,-5.6723,-5.5517,-5.5011,-5.2368,-5.1865,-5.2812,-5.1681,-5.188,-5.2829,-5.2359,-5.2067,-5.1947,-5.2127,-5.2067,-5.1858,-5.1379,-5.1229,-5.1229,-5.1229,-5.1229,-5.1229,-5.1229,-5.1229,-5.1229,-5.1229,-5.1229,-5.1229,-5.1229,-5.0823,-5.0435,-5.0255,-4.9478,-4.8745,-4.8356,-4.7908,-4.7549,-4.7339,-4.7309,-4.716,-4.6681,-4.6399,-4.595,-4.5035,-4.4736,-4.4377,-4.3678,-4.3589,-4.3499,-4.3319,-4.2521,-4.1893,-4.1722,-4.1722,-4.1384,-4.0726,-4.0696,-4.0487,-4.0008,-3.9798,-3.9709,-3.9709,-3.9529,-3.9373,-3.9373,-3.9373,-3.9373,-3.9373,-3.9373,-3.9373,-4.8662,-5.0816,-5.2348,-5.0936,-4.7801,-4.4174,-4.081,-3.6136,-3.1958,-3.0011,-2.8543,-2.7585,-2.7585,-2.8154,-2.926,-3.1283,-3.4038,0.0,-4.1704,-4.4926,-4.7902,-5.0881,-5.2604,-5.4702,-5.7645,-6.0622,-6.2381,-6.2381,-6.2381,-6.1877,-6.067,-6.0628,-6.1193,-6.2341,-6.2381,-6.2381,-6.2381,-6.1235,-6.0265,-5.9614,-5.954,-5.8563,-5.6712,-5.6007,-5.5043,-5.3847,-5.1983,-5.1865,-5.2812,-5.1681,-5.188,-5.2829,-5.2359,-5.1798,-5.1319,-5.1947,-5.1798,-5.1229,-5.1229,-5.1229,-5.1229,-5.1229,-5.1229,-5.1229,-5.1229,-5.1229,-5.1229,-5.1229,-5.1229,-5.1229,-5.1229,-5.1199,-5.1003,-5.0345,-5.0196,-4.9807,-4.8566,-4.8267,-4.8087,-4.7429,-4.7309,-4.7309,-4.7309,-4.6741,-4.6279,-4.6249,-4.5723,-4.5035,-4.4377,-4.4317,-4.4047,-4.3349,-4.329,-4.306,-4.244,-4.2381,-4.2111,-4.1414,-4.1422,-4.1422,-4.1392,-4.0726,-4.0397,-4.0397,-3.9738,-3.9373,-3.9373,-3.9373,-3.9373,-3.9373,-3.9373,-3.9373,-4.5104,-4.7395,-4.8905,-4.7487,-4.5056,-4.2122,-3.8716,-3.5125,-3.1839,-2.9415,-2.8214,-2.7585,-2.7585,-2.8116,-2.9525,-3.2532,-3.4126,-3.6518,-4.0803,-4.3595,-4.6402,-4.9691,-5.4572,-5.8541,-6.0786,-6.1839,-6.2381,-6.2381,-6.1635,-6.0995,-6.0628,-5.9827,-5.9522,-5.9913,-5.9913,-5.9913,-5.9913,-5.9566,-5.9035,-5.8324,-5.7839,-5.7013,-5.589,-5.4447,-5.3565,-5.3121,-5.1771,-5.1865,-5.2812,-5.1681,-5.188,-5.2798,-5.1876,-5.1409,-5.1259,-5.1439,-5.1409,-5.1229,-5.1229,-5.1229,-5.1229,-5.1229,-5.1229,-5.1229,-5.1229,-5.1229,-5.1229,-5.1229,-5.1229,-5.1229,-5.1229,-5.1229,-5.1169,-5.0913,-5.0524,-5.0076,-4.9703,-4.8925,-4.8237,-4.8027,-4.7608,-4.7309,-4.7309,-4.713,-4.683,-4.6339,-4.6142,-4.5753,-4.5065,-4.4586,-4.4227,-4.4018,-4.3559,-4.32,-4.303,-4.303,-4.2761,-4.2141,-4.2081,-4.1901,-4.1414,-4.1175,-4.1055,-4.1055,-4.0427,-4.0098,-4.0098,-3.9649,-3.9373,-3.9373,-3.9373,-3.9373,-4.1397,-4.3754,-4.5043,-4.3941,-4.1984,-3.9588,-3.6692,-3.3817,-3.115,-2.9026,-2.8094,-2.7585,-2.7585,-2.829,-2.9596,-3.1809,-3.353,-3.5717,-3.8962,-4.2055,-4.5654,-5.009,-5.5314,-5.9221,-6.0955,-6.1907,-6.2381,-6.2381,-6.1276,-6.0417,-5.9946,-5.8767,-5.79,-5.7465,-5.8314,-5.8812,-5.8812,-5.836,-5.7783,-5.7087,-5.6347,-5.5651,-5.4925,-5.3521,-5.29,-5.2812,-5.1681,-5.1865,0.0,-5.1681,-5.188,-5.2767,-5.1635,-5.1229,-5.1229,-5.1229,-5.1229,-5.1229,-5.1229,-5.1229,-5.1229,-5.1229,-5.1229,-5.1229,-5.1229,-5.1229,-5.1229,-5.1229,-5.1229,-5.1229,-5.1229,-5.1229,-5.1229,-5.1229,-5.09,-5.0495,-5.0255,-4.9613,-4.8865,-4.8386,-4.7967,-4.7608,-4.7339,-4.7309,-4.716,-4.6741,-4.6681,-4.6441,-4.5753,-4.5334,-4.4975,-4.4706,-4.4107,-4.3678,-4.3678,-4.3439,-4.311,-4.2761,-4.2731,-4.2551,-4.2132,-4.1893,-4.1782,-4.1782,-4.1115,-4.0756,-4.0756,-4.0367,-4.0157,-4.0157,-4.0157,-4.0157,0.0,-3.9738,-4.0606,-3.9978,-3.8392,-3.6477,-3.4593,-3.2198,0.0,-2.8786,-2.8034,-2.7615,-2.7735,-2.8717,-2.9596,-2.9844,-3.2567,-3.5213,-3.679,-4.0942,-4.5978,-5.1833,-5.51,-5.7426,-5.8875,-6.0974,-6.2263,-6.215,-6.1036,-5.9827,-5.8722,-5.7527,-5.6347,-5.5229,-5.7371,-5.8542,-5.8542,-5.7434,-5.6555,-5.5875,-5.5132,-5.4422,-5.3757,-5.3076,-5.2767,-5.2723,-5.1635,-5.1819,-5.2709,-5.1635,-5.1819,-5.2634,-5.1588,-5.1229,-5.1229,-5.1229,-5.1229,-5.1229,-5.1229,-5.1229,-5.1229,-5.1229,-5.1229,-5.1229,-5.1229,-5.1229,-5.1229,-5.1229,-5.1229,-5.1229,-5.1229,-5.1229,-5.1229,-5.1229,-5.1229,-5.105,-5.0405,-5.0226,-4.9837,-4.8656,-4.8386,-4.8147,-4.7489,-4.7369,-4.7369,-4.7309,-4.7309,-4.71,-4.6429,-4.6309,-4.6082,-4.5424,-4.4766,-4.4377,-4.4377,-4.3708,-4.329,-4.329,-4.329,-4.329,-4.329,-4.2761,-4.247,-4.247,-4.1811,-4.1482,-4.1422,-4.1422,-4.1422,-4.1422,-4.1422,-4.1422,-3.2138,0.0,-3.4562,-3.4412,-3.3603,-3.2497,0.0,-3.028,-2.9442,-2.8124,-2.7705,-2.7914,-2.8933,-2.9378,-3.0243,-3.2275,-3.4109,-3.6207,-3.8875,-4.4063,-4.9395,-5.4236,-5.6431,-5.7901,-5.8766,-6.0163,-6.0628,-5.9697,-5.8542,-5.7714,-5.7434,-5.628,-5.5501,-5.5179,-5.575,-5.6066,-5.6066,-5.5769,-5.5318,-5.4605,-5.3911,-5.3248,-5.2554,-5.189,-5.1588,-5.1588,-5.1293,-5.1339,-5.1588,-5.1293,-5.1339,-5.1542,-5.1293,-5.1229,-5.1229,-5.1229,-5.1229,-5.1229,-5.1229,-5.1229,-5.1229,-5.1229,-5.1229,-5.1229,-5.1229,-5.1229,-5.1229,-5.1229,-5.1229,-5.1229,-5.1229,-5.1229,-5.1229,-5.1229,-5.1229,-5.1169,-5.102,-5.0554,-5.0106,-4.9777,-4.9374,-4.888,-4.8177,-4.8057,-4.7878,-4.7369,-4.7309,-4.7249,-4.71,-4.6621,-4.6219,-4.6082,-4.5484,-4.5065,-4.5065,-4.3988,-4.329,-4.329,-4.329,-4.329,-4.329,-4.314,-4.312,-4.312,-4.2462,-4.1931,-4.1422,-4.1422,-4.1422,-4.1422,-4.1422,-4.1422,-2.9445,-3.127,-3.2976,-3.2976,-3.2437,-3.169,-3.0702,-2.9774,-2.8873,-2.7794,-2.7585,-2.7914,-2.8936,-2.9628,-3.0577,-3.2379,-3.4235,-3.7248,-4.2302,-4.7306,-5.1912,-5.5871,-5.8124,-5.9259,-5.8838,-5.987,-6.0118,-5.8902,-5.7668,-5.6991,-5.6991,-5.5869,-5.5179,-5.5179,-5.491,-5.473,-5.473,-5.473,-5.4401,-5.3713,-5.3054,-5.2546,-5.2187,-5.1528,-5.1229,-5.1229,-5.1229,-5.1229,-5.1229,-5.1229,-5.1229,-5.1229,-5.1229,-5.1229,-5.1229,-5.1229,-5.1229,-5.1229,-5.1229,-5.1229,-5.1229,-5.1229,-5.1229,-5.1229,-5.1229,-5.1229,-5.1229,-5.1229,-5.1229,-5.1229,-5.1229,-5.1229,-5.1229,-5.1229,-5.1229,-5.1229,-5.1229,-5.0883,-5.0554,-5.0255,-4.9942,-4.9494,-4.888,-4.8745,-4.8506,-4.7848,-4.7758,-4.7638,-4.7339,-4.698,-4.677,-4.677,-4.6172,-4.5753,-4.5753,-4.4825,-4.4107,-4.3768,-4.3469,-4.329,-4.329,-4.329,-4.329,-4.329,-4.3,-4.2641,-4.2282,-4.2282,-4.2282,-4.2282,-4.2282,-4.2282,-2.8667,-3.1061,-3.3275,-3.2976,-3.2557,-3.2019,-3.1361,-2.9953,-2.8577,-2.8034,-2.7914,-2.8184,-2.9026,-3.0261,-3.1436,-3.2296,-3.4771,-3.8935,-4.5734,-4.9859,-5.3273,-5.6222,-5.9131,-6.0208,-5.8433,-5.9522,-5.9708,-5.8201,-5.7168,-5.6519,-5.6443,-5.5467,-5.488,-5.488,-5.4341,-5.4012,-5.3892,-5.4012,-5.3713,-5.3025,-5.2456,-5.2157,-5.2037,-5.1468,-5.1229,-5.1229,-5.1229,-5.1229,-5.1229,-5.1229,-5.1229,-5.1229,-5.1229,-5.1229,-5.1229,-5.1229,-5.1229,-5.1229,-5.1229,-5.1229,-5.1229,-5.1229,-5.1229,-5.1229,-5.1229,-5.1229,-5.1229,-5.1229,-5.1229,-5.1229,-5.1229,-5.1229,-5.1229,-5.1229,-5.1229,-5.1229,-5.1229,-5.1229,-5.1003,-5.0435,-5.0345,-5.0182,-4.9523,-4.9404,-4.9194,-4.8536,-4.8356,-4.8087,-4.7519,-4.7369,-4.7309,-4.7309,-4.68,-4.6429,-4.6429,-4.5843,-4.5214,-4.4646,-4.3858,-4.3409,-4.329,-4.329,-4.329,-4.329,-4.329,-4.329,-4.329,-4.329,-4.329,-4.329,-4.329,-4.329,-2.9714,-3.142,-3.2258,-3.0612,-3.0492,-3.0642,-3.0013,-2.9681,-2.9442,-2.9322,-2.9292,-2.9831,-3.1599,-3.3146,-3.4486,-3.5607,-3.9245,-4.3223,-4.6711,-5.0047,-5.2544,-5.365,-5.6983,-5.8278,-5.6017,-5.7761,-5.7923,-5.5129,-5.4707,-5.4368,-5.3814,-5.362,-5.3503,-5.3503,-5.3384,-5.3084,-5.2516,-5.3054,-5.2995,-5.2336,-5.2247,-5.1917,-5.1379,-5.1259,-5.1229,-5.1229,-5.1229,-5.1229,-5.1229,-5.1229,-5.1229,-5.1229,-5.1229,-5.1229,-5.1229,-5.1229,-5.1229,-5.1229,-5.1229,-5.1229,-5.1229,-5.1229,-5.1229,-5.1229,-5.1229,-5.1229,-5.1229,-5.1229,-5.1229,-5.1229,-5.1229,-5.1229,-5.1229,-5.1229,-5.1229,-5.1229,-5.1229,-5.1229,-5.1199,-5.1079,-5.1079,-5.087,-5.0166,-5.0046,-4.9853,-4.9269,-4.8626,-4.8237,-4.8147,-4.7638,-4.7309,-4.7309,-4.7219,-4.716,-4.716,-4.6561,-4.607,-4.6022,-4.4814,-4.3858,-4.3319,-4.329,-4.329,-4.329,-4.329,-4.329,-4.329,-4.329,-4.329,-4.329,-4.329,-4.329,-2.8693,-3.0133,-3.13,-3.0761,-3.1659,-3.2467,-3.1839,-3.115,-3.0642,-3.0642,-3.0642,-3.1031,-3.2287,-3.3967,-3.6353,-3.9975,-4.3627,-4.6904,-4.9287,-5.1502,-5.3439,-5.4909,-5.7552,-5.8441,-5.6365,-5.7415,-5.7115,-5.4419,-5.3862,-5.3503,-5.3204,-5.3174,-5.3174,-5.3174,-5.2845,-5.2516,-5.2187,-5.2157,-5.1977,-5.1678,-5.1678,-5.1498,-5.1229,-5.1229,-5.1229,-5.1229,-5.1229,-5.1229,-5.1229,-5.1229,-5.1229,-5.1229,-5.1229,-5.1229,-5.1229,-5.1229,-5.1229,-5.1229,-5.1229,-5.1229,-5.1229,-5.1229,-5.1229,-5.1229,-5.1229,-5.1229,-5.1229,-5.1229,-5.1229,-5.1229,-5.1229,-5.1229,-5.1229,-5.1229,-5.1229,-5.1229,-5.1229,-5.1229,-5.1229,-5.1229,-5.1229,-5.1109,-5.0764,-5.0734,-5.0495,-4.9883,-4.9523,-4.9224,-4.8865,-4.8237,-4.7848,-4.7848,-4.7519,-4.7309,-4.7309,-4.704,-4.6531,-4.5813,-4.5185,-4.4556,-4.3898,-4.3828,-4.3648,-4.329,-4.329,-4.329,-4.329,-4.329,-4.329,-4.329,-4.329,-4.329,-2.8633,-2.9714,-3.0941,-3.175,-3.3006,-3.4053,-3.4173,-3.3185,-3.2318,-3.2796,-3.2766,-3.2856,-3.3544,-3.5429,-3.8633,-4.4086,-4.6965,-4.93,-5.1359,-5.2622,-5.4126,-5.6178,-5.7901,-5.8378,-5.7042,-5.7254,-5.6591,-5.4268,-5.3428,-5.2875,-5.2725,-5.2725,-5.2725,-5.2725,-5.2247,-5.1977,-5.1977,-5.1468,-5.1229,-5.1229,-5.1229,-5.1229,-5.1229,-5.1229,-5.1229,-5.1229,-5.1229,-5.1229,-5.1229,-5.1229,-5.1229,-5.1229,-5.1229,-5.1229,-5.1229,-5.1229,-5.1229,-5.1229,-5.1229,-5.1229,-5.1229,-5.1229,-5.1229,-5.1229,-5.1229,-5.1229,-5.1229,-5.1229,-5.1229,-5.1229,-5.1229,-5.1229,-5.1229,-5.1229,-5.1229,-5.1229,-5.1229,-5.1229,-5.1229,-5.1229,-5.1229,-5.1229,-5.1229,-5.1229,-5.105,-5.0495,-5.0285,-5.0016,-4.9553,-4.8925,-4.8446,-4.8297,-4.7848,-4.7489,-4.7309,-4.7309,-4.686,-4.5813,-4.5454,-4.5065,-4.4556,-4.4556,-4.4227,-4.3529,-4.3529,-4.3439,-4.329,-4.329,-4.329,-4.329,-4.329,-4.329,-3.1659,-3.178,-3.172,-3.3036,-3.3006,-3.3275,-3.5729,-3.5252,-3.4771,-3.6596,-3.6537,-3.6327,-3.6956,-3.92,-4.2446,-4.6992,-4.8326,-4.9501,-5.1616,-5.2417,-5.3559,-5.5442,-5.6435,-5.684,-5.6535,-5.671,-5.5986,-5.4064,-5.291,-5.2007,-5.1379,-5.1349,-5.1349,-5.1349,-5.1319,-5.1289,-5.1289,-5.1229,-5.1229,-5.1229,-5.1229,-5.1229,-5.1229,-5.1229,-5.1229,-5.1229,-5.1229,-5.1229,-5.1229,-5.1229,-5.1229,-5.1229,-5.1229,-5.1229,-5.1229,-5.1229,-5.1229,-5.1229,-5.1229,-5.1229,-5.1229,-5.1229,-5.1229,-5.1229,-5.1229,-5.1229,-5.1229,-5.1229,-5.1229,-5.1229,-5.1229,-5.1229,-5.1229,-5.1229,-5.1229,-5.1229,-5.1229,-5.1229,-5.1229,-5.1229,-5.1229,-5.1229,-5.1229,-5.1229,-5.1199,-5.1169,-5.0584,-5.0166,-5.0136,-4.9583,-4.9,-4.8356,-4.8237,-4.7967,-4.7369,-4.7309,-4.7249,-4.716,-4.5992,-4.5274,-4.5214,-4.5214,-4.4915,-4.4257,-4.4257,-4.3917,-4.329,-4.329,-4.329,-4.329,-4.329,-4.329,-2.9864,-3.0492,-3.13,-3.3066,-3.3933,-3.4861,-3.6656,-3.7315,-3.8003,-3.9559,-3.9709,-3.9589,-3.9828,-4.1923,-4.4555,-4.7512,-4.9178,-5.0627,-5.2281,-5.2701,-5.3546,-5.5421,-5.6534,-5.7232,-5.7614,-5.6669,-5.5459,-5.4013,-5.2472,-5.1468,-5.1229,-5.1229,-5.1229,-5.1229,-5.1229,-5.1229,-5.1229,-5.1229,-5.1229,-5.1229,-5.1229,-5.1229,-5.1229,-5.1229,-5.1229,-5.1229,-5.1229,-5.1229,-5.1229,-5.1229,-5.1229,-5.1229,-5.1229,-5.1229,-5.1229,-5.1229,-5.1229,-5.1229,-5.1229,-5.1229,-5.1229,-5.1229,-5.1229,-5.1229,-5.1229,-5.1229,-5.1229,-5.1229,-5.1229,-5.1229,-5.1229,-5.1229,-5.1229,-5.1229,-5.1229,-5.1229,-5.1229,-5.1229,-5.1229,-5.1229,-5.1229,-5.1229,-5.1229,-5.1229,-5.1229,-5.1229,-5.0973,-5.0794,-5.0794,-5.0272,-4.9763,-4.9523,-4.8775,-4.8177,-4.7938,-4.7549,-4.7309,-4.7309,-4.683,-4.6352,-4.5963,-4.5933,-4.5633,-4.4945,-4.4915,-4.4586,-4.3917,-4.4347,-4.4347,-4.3917,-4.4377,-4.4556,-2.9026,-2.9684,-3.0881,-3.2467,-3.4352,-3.6267,-3.7973,-3.908,-4.0277,-4.2222,-4.2282,-4.2098,-4.241,-4.3518,-4.5218,-4.7787,-4.9416,-5.0949,-5.267,-5.262,-5.3131,-5.5134,-5.5744,-5.6269,-5.7053,-5.5708,-5.4466,-5.3658,-5.2108,-5.1229,-5.1229,-5.1229,-5.1229,-5.1229,-5.1229,-5.1229,-5.1229,-5.1229,-5.1229,-5.1229,-5.1229,-5.1229,-5.1229,-5.1229,-5.1229,-5.1229,-5.1229,-5.1229,-5.1229,-5.1229,-5.1229,-5.1229,-5.1229,-5.1229,-5.1229,-5.1229,-5.1229,-5.1229,-5.1229,-5.1229,-5.1229,-5.1229,-5.1229,-5.1229,-5.1229,-5.1229,-5.1229,-5.1229,-5.1229,-5.1229,-5.1229,-5.1229,-5.1229,-5.1229,-5.1229,-5.1229,-5.1229,-5.1229,-5.1229,-5.1229,-5.1229,-5.1229,-5.1229,-5.1229,-5.1229,-5.1229,-5.1229,-5.1229,-5.1229,-5.0794,-5.0435,-5.0226,-4.9075,-4.8297,-4.8297,-4.7698,-4.7309,-4.7309,-4.7309,-4.71,-4.6651,-4.6621,-4.6322,-4.5633,-4.5633,-4.5304,-4.4616,-4.5065,-4.5065,-4.4646,-4.5095,-4.5304,-2.9924,-3.0043,-3.0672,-3.1361,-3.4053,-3.7195,-3.9828,-4.0427,-4.1384,-4.4646,-4.4287,-4.3636,-4.4617,-4.3996,-4.4519,-4.8112,-4.9057,-5.0125,-5.2537,-5.1926,-5.2063,-5.4337,-5.3569,-5.3352,-5.4505,-5.3569,-5.29,-5.29,-5.1835,-5.1229,-5.1229,-5.1229,-5.1229,-5.1229,-5.1229,-5.1229,-5.1229,-5.1229,-5.1229,-5.1229,-5.1229,-5.1229,-5.1229,-5.1229,-5.1229,-5.1229,-5.1229,-5.1229,-5.1229,-5.1229,-5.1229,-5.1229,-5.1229,-5.1229,-5.1229,-5.1229,-5.1229,-5.1229,-5.1229,-5.1229,-5.1229,-5.1229,-5.1229,-5.1229,-5.1229,-5.1229,-5.1229,-5.1229,-5.1229,-5.1229,-5.1229,-5.1229,-5.1229,-5.1229,-5.1229,-5.1229,-5.1229,-5.1229,-5.1229,-5.1229,-5.1229,-5.1229,-5.1229,-5.1229,-5.1229,-5.1229,-5.1229,-5.1229,-5.1229,-5.1229,-5.0913,-5.0255,-4.9075,-4.8297,-4.8297,-4.7698,-4.7309,-4.7309,-4.7309,-4.7309,-4.7309,-4.7309,-4.701,-4.6309,-4.6279,-4.5992,-4.5304,-4.5304,-4.5304,-4.5304,-4.5304,-4.5304,-2.8663,-2.9654,-3.157,-3.3215,-3.6447,-3.9798,-4.1944,-4.318,-4.4646,-4.7489,-4.704,-4.6047,-4.5886,-4.5631,-4.5927,-4.7455,-4.8607,-4.9839,-5.1499,-5.2109,-5.2664,-5.3309,-5.3828,-5.4253,-5.4589,-5.3569,-5.29,-5.29,-5.1835,-5.1229,-5.1229,-5.1229,-5.1229,-5.1229,-5.1229,-5.1229,-5.1229,-5.1229,-5.1229,-5.1229,-5.1229,-5.1229,-5.1229,-5.1229,-5.1229,-5.1229,-5.1229,-5.1229,-5.1229,-5.1229,-5.1229,-5.1229,-5.1229,-5.1229,-5.1229,-5.1229,-5.1229,-5.1289,-5.1738,-5.1917,-5.1977,-5.2456,-5.2276,-5.1917,-5.1917,-5.1588,-5.1229,-5.1229,-5.1229,-5.1229,-5.1229,-5.1229,-5.1229,-5.1229,-5.1229,-5.1229,-5.1229,-5.1229,-5.1229,-5.1229,-5.1229,-5.1229,-5.1229,-5.1229,-5.1229,-5.1229,-5.1229,-5.1229,-5.1229,-5.1229,-5.1139,-5.0913,-5.0106,-4.9464,-4.906,-4.8386,-4.7788,-4.7339,-4.7309,-4.7309,-4.7309,-4.7309,-4.7219,-4.701,-4.701,-4.6681,-4.6022,-4.6471,-4.6471,-4.6022,-4.6501,-4.6711,-2.9681,-3.0881,-3.2826,-3.507,-3.8033,-4.1205,-4.4186,-4.5723,-4.686,-4.8207,-4.7848,-4.71,-4.6399,-4.6082,-4.6322,-4.7489,-4.8566,-4.9733,-5.102,-5.1819,-5.2215,-5.2215,-5.2812,-5.3253,-5.3253,-5.2664,-5.2215,-5.2215,-5.1588,-5.1229,-5.1229,-5.1229,-5.1229,-5.1229,-5.1229,-5.1229,-5.1229,-5.1229,-5.1229,-5.1229,-5.1229,-5.1229,-5.1229,-5.1229,-5.1229,-5.1229,-5.1229,-5.1229,-5.1229,-5.1229,-5.1229,-5.1229,-5.1229,-5.1229,-5.1229,-5.1229,-5.1229,-5.1319,-5.1977,-5.2187,-5.2306,-5.2965,-5.2725,-5.2187,-5.2187,-5.1738,-5.1229,-5.1229,-5.1229,-5.1229,-5.1229,-5.1229,-5.1229,-5.1229,-5.1229,-5.1229,-5.1229,-5.1229,-5.1229,-5.1229,-5.1229,-5.1229,-5.1229,-5.1229,-5.1229,-5.1229,-5.1229,-5.1229,-5.1229,-5.1229,-5.1229,-5.1229,-5.0584,-5.0016,-4.9673,-4.9045,-4.8386,-4.7728,-4.7698,-4.7578,-4.7309,-4.7309,-4.7309,-4.7309,-4.7309,-4.71,-4.6711,-4.71,-4.71,-4.6741,-4.713,-4.7309,-3.1719,-3.2916,-3.4292,-3.6866,-3.917,-4.1983,-4.6322,-4.7818,-4.8147,-4.7608,-4.7429,-4.7219,-4.6578,-4.5933,-4.6082,-4.7967,-4.888,-4.9703,-5.096,-5.1169,-5.1229,-5.1229,-5.1229,-5.1229,-5.1229,-5.1229,-5.1229,-5.1229,-5.1229,-5.1229,-5.1229,-5.1229,-5.1229,-5.1229,-5.1229,-5.1229,-5.1229,-5.1229,-5.1229,-5.1229,-5.1229,-5.1229,-5.1229,-5.1229,-5.1229,-5.1229,-5.1229,-5.1229,-5.1229,-5.1229,-5.1229,-5.1229,-5.1229,-5.1229,-5.1229,-5.1229,-5.1229,-5.1319,-5.2037,-5.2276,-5.2396,-5.3054,-5.2875,-5.2366,-5.2247,-5.1768,-5.1289,-5.1229,-5.1229,-5.1229,-5.1229,-5.1229,-5.1229,-5.1229,-5.1229,-5.1229,-5.1229,-5.1229,-5.1229,-5.1229,-5.1229,-5.1229,-5.1229,-5.1229,-5.1229,-5.1229,-5.1229,-5.1229,-5.1229,-5.1229,-5.1229,-5.1229,-5.0644,-5.0255,-5.0196,-4.9703,-4.912,-4.8416,-4.8386,-4.8087,-4.7429,-4.7339,-4.7309,-4.7309,-4.7309,-4.7309,-4.7309,-4.7309,-4.7309,-4.7309,-4.7149,-4.7106,-2.9594,-3.2198,-3.5579,-3.7644,-4.1235,-4.4766,-4.683,-4.7818,-4.8386,-4.882,-4.8446,-4.8027,-4.7908,-4.7309,-4.7189,-4.8117,-4.888,-4.9553,-5.0285,-5.09,-5.1229,-5.1229,-5.1229,-5.1229,-5.1229,-5.1229,-5.1229,-5.1229,-5.1229,-5.1229,-5.1229,-5.1229,-5.1229,-5.1229,-5.1229,-5.1229,-5.1229,-5.1229,-5.1229,-5.1229,-5.1229,-5.1229,-5.1229,-5.1229,-5.1229,-5.1229,-5.1229,-5.1229,-5.1229,-5.1229,-5.1229,-5.1229,-5.1229,-5.1229,-5.1229,-5.1229,-5.1229,-5.1379,-5.2576,-5.2965,-5.3084,-5.3773,-5.3892,-5.3593,-5.2516,-5.2097,-5.1887,-5.1379,-5.1229,-5.1229,-5.1229,-5.1229,-5.1229,-5.1229,-5.1229,-5.1229,-5.1229,-5.1229,-5.1229,-5.1229,-5.1229,-5.1229,-5.1229,-5.1229,-5.1229,-5.1229,-5.1229,-5.1229,-5.1229,-5.1229,-5.1229,-5.1229,-5.1079,-5.0764,-5.0226,-5.0076,-4.9763,-4.9149,-4.909,-4.8745,-4.8087,-4.7578,-4.7309,-4.7309,-4.7309,-4.7309,-4.7309,-4.7309,-4.7309,-4.7266,-4.6255,-4.5824,-3.1001,-3.3634,-3.6806,-4.0337,-4.3269,-4.5633,-4.701,-4.7578,-4.7908,-4.8267,-4.8297,-4.8177,-4.7878,-4.7549,-4.7519,-4.8177,-4.8566,-4.9015,-4.9673,-5.0062,-5.0272,-5.0272,-5.0272,-5.0272,-5.0272,-5.0571,-5.0704,-5.0704,-5.105,-5.1229,-5.1229,-5.1229,-5.1229,-5.1229,-5.1229,-5.1229,-5.1229,-5.1229,-5.1229,-5.1229,-5.1229,-5.1229,-5.1229,-5.1229,-5.1229,-5.1229,-5.1229,-5.1229,-5.1229,-5.1229,-5.1229,-5.1229,-5.1229,-5.1229,-5.1229,-5.1229,-5.1229,-5.1379,-5.2366,-5.2725,-5.2815,-5.3503,-5.3503,-5.3114,-5.2426,-5.1977,-5.1648,-5.1319,-5.1229,-5.1229,-5.1229,-5.1229,-5.1229,-5.1229,-5.1229,-5.1229,-5.1229,-5.1229,-5.1229,-5.1229,-5.1229,-5.1229,-5.1229,-5.1229,-5.1229,-5.1229,-5.1229,-5.1229,-5.1229,-5.1229,-5.1229,-5.1229,-5.1229,-5.1079,-5.0704,-5.0674,-5.0421,-4.9763,-4.9733,-4.9434,-4.882,-4.8416,-4.7938,-4.7309,-4.7309,-4.7309,-4.7309,-4.7309,-4.7309,-4.7266,-4.6638,-4.6299,-3.2257,-3.4953,-3.7853,-4.288,-4.4646,-4.5484,-4.683,-4.713,-4.716,-4.7279,-4.7728,-4.7967,-4.7399,-4.7309,-4.7489,-4.8027,-4.8207,-4.8476,-4.906,-4.9239,-4.9299,-4.9299,-4.9299,-4.9299,-4.9299,-4.9763,-5.0016,-5.0016,-5.0571,-5.087,-5.087,-5.087,-5.087,-5.087,-5.099,-5.105,-5.105,-5.1169,-5.1229,-5.1229,-5.1229,-5.1229,-5.1229,-5.1229,-5.1229,-5.1229,-5.1229,-5.1229,-5.1229,-5.1229,-5.1229,-5.1229,-5.1229,-5.1229,-5.1229,-5.1229,-5.1229,-5.1319,-5.1977,-5.2187,-5.2276,-5.2845,-5.2725,-5.2336,-5.2097,-5.1738,-5.1379,-5.1259,-5.1229,-5.1229,-5.1229,-5.1229,-5.1229,-5.1229,-5.1229,-5.1229,-5.1229,-5.1229,-5.1229,-5.1229,-5.1229,-5.1229,-5.1229,-5.1229,-5.1229,-5.1229,-5.1229,-5.1229,-5.1229,-5.1229,-5.1229,-5.1229,-5.1229,-5.1229,-5.1229,-5.1229,-5.0943,-5.0405,-5.0375,-5.0122,-4.9464,-4.9434,-4.8865,-4.7668,-4.7549,-4.7429,-4.7309,-4.7309,-4.7309,-4.7309,-4.7062,-4.6975,-2.8334,-3.2796,-3.8272,-4.2462,-4.3988,-4.4796,-4.6142,-4.6399,-4.6621,-4.7189,-4.7369,-4.7399,-4.7309,-4.7309,-4.7339,-4.7429,-4.7908,-4.8327,-4.8416,-4.894,-4.9299,-4.9299,-4.9299,-4.9299,-4.9299,-4.9389,-4.9449,-4.9449,-4.9464,-4.9569,-4.9569,-4.9569,-4.9569,-4.9569,-5.0062,-5.0315,-5.0315,-5.0883,-5.1229,-5.1229,-5.1229,-5.1229,-5.1229,-5.1229,-5.1229,-5.1229,-5.1229,-5.1229,-5.1229,-5.1229,-5.1229,-5.1229,-5.1229,-5.1229,-5.1229,-5.1229,-5.1229,-5.1319,-5.1977,-5.2187,-5.2217,-5.2306,-5.2665,-5.2845,-5.1708,-5.1678,-5.1947,-5.1379,-5.1229,-5.1229,-5.1229,-5.1229,-5.1229,-5.1229,-5.1229,-5.1229,-5.1229,-5.1229,-5.1229,-5.1229,-5.1229,-5.1229,-5.1229,-5.1229,-5.1229,-5.1229,-5.1229,-5.1229,-5.1229,-5.1229,-5.1229,-5.1229,-5.1229,-5.1229,-5.1229,-5.1229,-5.1169,-5.1079,-5.1079,-5.0734,-5.0076,-5.0076,-4.9763,-4.906,-4.8446,-4.7878,-4.7309,-4.7309,-4.7309,-4.7266,-4.6166,-4.5644,-3.055,-3.4352,-3.8362,-4.2372,-4.3529,-4.4067,-4.5454,-4.5753,-4.5813,-4.6112,-4.6501,-4.686,-4.7249,-4.7309,-4.7309,-4.7309,-4.7549,-4.7728,-4.7728,-4.7967,-4.8177,-4.8177,-4.8177,-4.8177,-4.8177,-4.8506,-4.876,-4.876,-4.912,-4.9299,-4.9299,-4.9299,-4.9299,-4.9299,-4.9553,-4.9703,-4.9703,-5.0331,-5.0794,-5.1229,-5.1229,-5.1229,-5.1229,-5.1229,-5.1229,-5.1229,-5.1229,-5.1229,-5.1229,-5.1229,-5.1229,-5.1229,-5.1229,-5.1229,-5.1229,-5.1229,-5.1229,-5.1259,-5.1558,-5.1648,-5.1648,-5.1648,-5.1858,-5.1977,-5.1379,-5.1409,-5.1588,-5.1289,-5.1229,-5.1229,-5.1229,-5.1229,-5.1229,-5.1229,-5.1229,-5.1229,-5.1229,-5.1229,-5.1229,-5.1229,-5.1229,-5.1229,-5.1229,-5.1229,-5.1229,-5.1229,-5.1229,-5.1229,-5.1229,-5.1229,-5.1229,-5.1229,-5.1229,-5.1229,-5.1229,-5.1229,-5.1229,-5.1229,-5.1229,-5.1079,-5.0764,-5.0734,-5.0481,-4.9823,-4.8805,-4.8147,-4.7848,-4.7489,-4.7309,-4.7309,-4.6726,-4.6462,-3.145,-3.4292,-3.6596,-4.0569,-4.2064,-4.2901,-4.4257,-4.4676,-4.4915,-4.5214,-4.5693,-4.6202,-4.6711,-4.707,-4.7309,-4.7309,-4.7309,-4.7309,-4.7309,-4.7309,-4.7309,-4.7309,-4.7309,-4.7309,-4.7309,-4.7758,-4.8027,-4.8027,-4.8506,-4.882,-4.882,-4.882,-4.882,-4.882,-4.897,-4.906,-4.906,-4.9823,-5.0435,-5.0913,-5.1139,-5.1229,-5.1229,-5.1229,-5.1229,-5.1229,-5.1229,-5.1229,-5.1229,-5.1229,-5.1229,-5.1229,-5.1229,-5.1229,-5.1229,-5.1229,-5.1229,-5.1229,-5.1229,-5.1229,-5.1229,-5.1229,-5.1229,-5.1229,-5.1229,-5.1229,-5.1229,-5.1229,-5.1229,-5.1229,-5.1229,-5.1229,-5.1229,-5.1229,-5.1229,-5.1229,-5.1229,-5.1229,-5.1229,-5.1229,-5.1229,-5.1229,-5.1229,-5.1229,-5.1229,-5.1229,-5.1229,-5.1229,-5.1229,-5.1229,-5.1229,-5.1229,-5.1229,-5.1229,-5.1229,-5.1229,-5.1229,-5.1229,-5.1229,-5.1229,-5.1229,-5.1229,-5.0943,-5.0435,-4.9374,-4.8716,-4.8536,-4.7878,-4.7549,-4.7549,-4.7369,-4.7309,-2.7619,-2.9864,-3.1839,-3.5848,-3.8721,-4.0905,-4.2261,-4.3069,-4.3838,-4.5035,-4.5334,-4.5364,-4.5394,-4.6441,-4.7309,-4.7309,-4.7309,-4.7309,-4.7309,-4.7309,-4.7309,-4.7309,-4.7309,-4.7309,-4.7309,-4.7339,-4.7369,-4.7369,-4.7399,-4.7399,-4.7399,-4.7399,-4.7399,-4.7399,-4.8027,-4.8327,-4.8327,-4.9613,-5.0196,-5.0255,-5.0883,-5.1229,-5.1229,-5.1229,-5.1229,-5.1229,-5.1229,-5.1229,-5.1229,-5.1229,-5.1229,-5.1229,-5.1229,-5.1229,-5.1229,-5.1229,-5.1229,-5.1229,-5.1229,-5.1229,-5.1229,-5.1229,-5.1229,-5.1229,-5.1229,-5.1229,-5.1229,-5.1229,-5.1229,-5.1229,-5.1229,-5.1229,-5.1229,-5.1229,-5.1229,-5.1229,-5.1229,-5.1229,-5.1229,-5.1229,-5.1229,-5.1229,-5.1229,-5.1229,-5.1229,-5.1229,-5.1229,-5.1229,-5.1229,-5.1229,-5.1229,-5.1229,-5.1229,-5.1229,-5.1229,-5.1229,-5.1229,-5.1229,-5.1229,-5.1229,-5.1229,-5.1229,-5.1199,-5.1169,-5.0435,-4.9823,-4.9269,-4.8566,-4.8237,-4.8207,-4.7608,-4.7309,-2.6004,-2.8547,-3.115,-3.3873,-3.6537,-3.8841,-4.0157,-4.1654,-4.289,-4.3369,-4.4077,-4.4676,-4.4676,-4.5394,-4.6172,-4.6591,-4.6681,-4.683,-4.7249,-4.7309,-4.7309,-4.7309,-4.7309,-4.7309,-4.7309,-4.7309,-4.7309,-4.7309,-4.7309,-4.7309,-4.7309,-4.7309,-4.7309,-4.7309,-4.7549,-4.7848,-4.8297,-4.8745,-4.9404,-5.0196,-5.0435,-5.0764,-5.1229,-5.1229,-5.1229,-5.1229,-5.1229,-5.1229,-5.1229,-5.1229,-5.1229,-5.1229,-5.1229,-5.1229,-5.1229,-5.1229,-5.1229,-5.1229,-5.1229,-5.1229,-5.1229,-5.1229,-5.1229,-5.1229,-5.1229,-5.1229,-5.1229,-5.1229,-5.1229,-5.1229,-5.1229,-5.1229,-5.1229,-5.1229,-5.1229,-5.1229,-5.1229,-5.1229,-5.1229,-5.1229,-5.1229,-5.1229,-5.1229,-5.1229,-5.1079,-5.0614,-5.0913,-5.1033,-5.0584,-5.0913,-5.1229,-5.1229,-5.1229,-5.1229,-5.1229,-5.1229,-5.1229,-5.1229,-5.1229,-5.1229,-5.1229,-5.0383,-5.0335,-5.1182,-5.0129,-4.9687,-4.9883,-4.9224,-4.897,-4.897,-4.8686,-4.8104,-2.4328,-2.6871,-2.9774,-3.2228,-3.4143,-3.6148,-3.8775,-4.0098,-4.1063,-4.2171,-4.3099,-4.3718,-4.3958,-4.4347,-4.4915,-4.5843,-4.5963,-4.6202,-4.689,-4.698,-4.707,-4.7279,-4.7309,-4.7309,-4.7309,-4.7309,-4.7309,-4.7309,-4.7309,-4.7309,-4.7309,-4.7309,-4.7309,-4.7309,-4.7309,-4.7519,-4.7967,-4.8177,-4.8835,-4.9912,-5.0076,-5.0524,-5.1229,-5.1229,-5.1229,-5.1229,-5.1229,-5.1229,-5.1229,-5.1229,-5.1229,-5.1229,-5.1229,-5.1229,-5.1229,-5.1229,-5.1229,-5.1229,-5.1229,-5.1229,-5.1229,-5.1229,-5.1229,-5.1229,-5.1229,-5.1229,-5.1229,-5.1229,-5.1229,-5.1229,-5.1229,-5.1229,-5.1229,-5.1229,-5.1229,-5.1229,-5.1229,-5.1229,-5.1229,-5.1229,-5.1229,-5.1229,-5.1229,-5.1229,-5.1079,-5.0584,-5.0883,-5.105,-5.0584,-5.0913,-5.1229,-5.1229,-5.1229,-5.1229,-5.1229,-5.0793,-5.0555,-5.0555,-5.0095,-5.0047,-5.0508,-4.921,-4.9161,-5.0508,-4.921,-4.8686,-4.9135,-4.9469,-4.9401,-4.8929,-4.8722,-4.7619,0.0,0.0,0.0,-3.0524,-3.1361,-3.2766,-3.7938,-3.8182,-3.8212,-4.1572,-4.2261,-4.247,-4.311,-4.326,-4.3678,-4.5005,-4.5244,-4.5514,-4.6202,-4.6249,-4.6488,-4.716,-4.7279,-4.7279,-4.7279,-4.7309,-4.7309,-4.7309,-4.7309,-4.7309,-4.7309,-4.7309,-4.7309,-4.7309,-4.7309,-4.7309,-4.7309,-4.7938,-4.8596,-4.9299,-4.9883,-5.0495,-5.1199,-5.1199,-5.1229,-5.1229,-5.1229,-5.1229,-5.1229,-5.1229,-5.1229,-5.1229,-5.1229,-5.1229,-5.1229,-5.1229,-5.1229,-5.1229,-5.1229,-5.1229,-5.1229,-5.1229,-5.1229,-5.1229,-5.1229,-5.1229,-5.1229,-5.1229,-5.1229,-5.1229,-5.1229,-5.1229,-5.1229,-5.1229,-5.1229,-5.1229,-5.1229,-5.1229,-5.1229,-5.1229,-5.1229,-5.1229,-5.1229,-5.1229,-5.1199,-5.1199,-5.1199,-5.1199,-5.1199,-5.1199,-5.1229,-5.1229,-5.1229,-5.1229,-5.1229,-5.0017,-4.9259,-4.921,-4.7909,-4.7757,-4.9112,-4.7757,-4.7707,-4.9112,-4.7757,-4.7043,-4.7043,-4.9087,-4.9469,-4.8114,-4.7463,-4.5748,-2.2912,0.0,0.0,0.0,0.0,0.0,-3.2437,-3.3425,-3.4801,-3.8093,-3.8781,-3.9409,-4.1534,-4.2312,-4.2761,-4.3159,-4.3958,-4.4825,-4.5484,-4.5574,-4.5633,-4.5813,-4.6292,-4.6591,-4.6591,-4.704,-4.7309,-4.7309,-4.7309,-4.7309,-4.7309,-4.7309,-4.7309,-4.7309,-4.7309,-4.7309,-4.7309,-4.7489,-4.7908,-4.8566,-4.9224,-4.9883,-5.0465,-5.099,-5.1229,-5.1229,-5.1229,-5.1229,-5.1229,-5.1229,-5.1229,-5.1229,-5.1229,-5.1229,-5.1229,-5.1229,-5.1229,-5.1229,-5.1229,-5.1229,-5.1229,-5.1229,-5.1229,-5.1229,-5.1229,-5.1229,-5.1229,-5.1229,-5.1229,-5.1229,-5.1229,-5.1229,-5.1229,-5.1229,-5.1229,-5.1229,-5.1229,-5.1229,-5.1229,-5.1229,-5.1229,-5.1229,-5.1229,-5.1229,-5.105,-5.0524,-5.0853,-5.1003,-5.0524,-5.0883,-5.1229,-5.1229,-5.1229,-5.1229,-5.1229,-5.087,-5.0239,-4.9259,-4.8837,-4.8339,-4.7707,-4.6317,-4.6213,-4.7656,-4.6265,-4.5555,-4.5608,-4.7184,-4.7785,-4.7354,-4.6168,-4.5752,-2.4328,-2.5615,0.0,-2.7619,0.0,0.0,-3.1839,-3.2318,-3.3155,-3.7015,-3.7823,-3.8452,-4.0576,-4.1294,-4.1662,-4.1961,-4.2821,-4.3838,-4.4766,-4.4885,-4.4975,-4.5274,-4.5633,-4.5903,-4.5903,-4.6501,-4.689,-4.689,-4.716,-4.7309,-4.7309,-4.7309,-4.7309,-4.7309,-4.7309,-4.7309,-4.7309,-4.7309,-4.7638,-4.8297,-4.9,-4.9613,-5.0226,-5.0883,-5.1229,-5.1229,-5.1229,-5.1229,-5.1229,-5.1229,-5.1229,-5.1229,-5.1229,-5.1229,-5.1229,-5.1229,-5.1229,-5.1229,-5.1229,-5.1229,-5.1229,-5.1229,-5.1229,-5.1229,-5.1229,-5.1229,-5.1229,-5.1229,-5.1229,-5.1229,-5.1229,-5.1229,-5.1229,-5.1229,-5.1229,-5.1229,-5.1229,-5.1229,-5.1229,-5.1229,-5.1229,-5.1229,-5.1229,-5.1229,-5.1079,-5.0674,-5.0913,-5.1079,-5.0644,-5.0943,-5.1229,-5.1229,-5.1229,-5.1229,-5.1229,-5.0698,-4.9776,-4.8389,-4.7757,-4.7094,-4.6265,-4.4887,-4.4779,-4.6188,-4.4887,-4.4155,-4.4155,-4.6135,-4.6785,-4.6188,-4.5395,-4.5155,-2.6632,-2.744,0.0,-3.0043,-2.8607,0.0,-3.3275,-3.2647,-3.2258,-3.6537,-3.7404,-3.7883,-3.9469,-3.9858,-4.0157,-4.0756,-4.1602,-4.265,-4.3898,-4.4167,-4.4436,-4.5005,-4.5125,-4.5185,-4.5185,-4.5813,-4.6202,-4.6202,-4.683,-4.7219,-4.7309,-4.7309,-4.7309,-4.7309,-4.7309,-4.7309,-4.7309,-4.7309,-4.7608,-4.8177,-4.897,-4.9583,-5.0106,-5.087,-5.1229,-5.1229,-5.1229,-5.1229,-5.1229,-5.1229,-5.1229,-5.1229,-5.1229,-5.1229,-5.1229,-5.1229,-5.1229,-5.1229,-5.1229,-5.1229,-5.1229,-5.1229,-5.1229,-5.1229,-5.1229,-5.1229,-5.1229,-5.1229,-5.1229,-5.1229,-5.1229,-5.1229,-5.1229,-5.1229,-5.1229,-5.1229,-5.1229,-5.1229,-5.1229,-5.1229,-5.1229,-5.1229,-5.1229,-5.1229,-5.1229,-5.1229,-5.1229,-5.1229,-5.1229,-5.1229,-5.1229,-5.1229,-5.1229,-5.1105,-5.1011,-5.0017,-4.8688,-4.6991,-4.582,-4.5102,-4.4779,-4.3657,-4.3547,-4.4725,-4.3602,-4.2986,-4.3042,-4.5449,-4.6083,-4.4994,-4.4833,-4.4209,-2.9654,-2.9834,-2.9953,-2.9175,-2.8996,0.0,-2.7769,-2.7949,-2.8906,-3.0909,-3.1329,-3.2198,-3.5132,-3.6507,-3.7285,-3.7404,-3.932,-4.1235,-4.259,-4.318,-4.3529,-4.3648,-4.4197,-4.4496,-4.4496,-4.5095,-4.5514,-4.5514,-4.6142,-4.6741,-4.7279,-4.7309,-4.7309,-4.7309,-4.7309,-4.7309,-4.7309,-4.7309,-4.7369,-4.7519,-4.8686,-4.9389,-4.9494,-5.069,-5.1229,-5.1229,-5.1229,-5.1229,-5.1229,-5.1229,-5.1229,-5.1229,-5.1229,-5.1229,-5.1229,-5.1229,-5.1229,-5.1229,-5.1229,-5.1229,-5.1229,-5.1229,-5.1229,-5.1229,-5.1229,-5.1229,-5.1229,-5.1229,-5.1229,-5.1229,-5.1229,-5.1229,-5.1229,-5.1229,-5.1229,-5.1229,-5.1229,-5.1229,-5.1229,-5.1229,-5.1229,-5.1229,-5.1229,-5.1229,-5.1229,-5.1229,-5.1229,-5.1229,-5.1229,-5.1229,-5.1229,-5.1229,-5.1229,-5.0745,-4.9679,-5.0335,-4.9259,-4.5661,-4.6213,-4.5714,-4.3492,-4.3129,-4.3129,-4.3381,-4.3129,-4.2986,-4.2986,-4.3547,-4.4209,-4.4994,-4.3907,-4.3797,-3.1689,-3.1509,-3.142,-3.112,-3.0313,0.0,0.0,-2.8547,-2.8727,-3.1061,-3.0731,-3.0851,-3.3484,-3.3993,-3.4322,-3.5342,-3.7404,-3.914,-3.9798,-4.1324,-4.2372,-4.2372,-4.2641,-4.297,-4.3299,-4.3928,-4.4586,-4.5244,-4.5603,-4.6112,-4.677,-4.68,-4.695,-4.7309,-4.7309,-4.7309,-4.7309,-4.7309,-4.7309,-4.7309,-4.8626,-4.9299,-4.9359,-5.0631,-5.1229,-5.1229,-5.1229,-5.1229,-5.1229,-5.1229,-5.1229,-5.1229,-5.1229,-5.1229,-5.1229,-5.1229,-5.1229,-5.1229,-5.1229,-5.1229,-5.1229,-5.1229,-5.1229,-5.1229,-5.1229,-5.1229,-5.1229,-5.1229,-5.1229,-5.1229,-5.1229,-5.1229,-5.1229,-5.1229,-5.1229,-5.1229,-5.1229,-5.1229,-5.1229,-5.1229,-5.1229,-5.1229,-5.1229,-5.1229,-5.1229,-5.1229,-5.1229,-5.1229,-5.1229,-5.1229,-5.1229,-5.1229,-5.1229,-5.065,-4.9308,-4.9824,-4.8688,-4.5209,-4.5661,-4.5155,-4.3073,-4.2986,-4.2986,-4.2986,-4.2986,-4.2986,-4.2986,-4.2986,-4.3351,-4.4016,-4.3295,-4.3351,-3.3784,-3.3544,-3.3604,-3.3365,-3.2018,-3.0851,0.0,0.0,0.0,-3.1689,-3.0971,-3.0462,-3.2228,-3.1689,-3.1511,-3.3275,-3.519,-3.6477,-3.6477,-3.8542,-4.0284,-4.0756,-4.1145,-4.1572,-4.1991,-4.2222,-4.309,-4.4796,-4.4556,-4.4855,-4.6052,-4.6219,-4.6561,-4.71,-4.7249,-4.7309,-4.7309,-4.7309,-4.7309,-4.7309,-4.8626,-4.9299,-4.9359,-5.0631,-5.1229,-5.1229,-5.1229,-5.1229,-5.1229,-5.1229,-5.1229,-5.1229,-5.1229,-5.1229,-5.1229,-5.1229,-5.1229,-5.1229,-5.1229,-5.1229,-5.1229,-5.1229,-5.1229,-5.1229,-5.1229,-5.1229,-5.1229,-5.1229,-5.1229,-5.1229,-5.1229,-5.1229,-5.1229,-5.1229,-5.1229,-5.1229,-5.1229,-5.1229,-5.1229,-5.1229,-5.1229,-5.1229,-5.1229,-5.1229,-5.1229,-5.1229,-5.1229,-5.1229,-5.1229,-5.1229,-5.1229,-5.1229,-5.1229,-5.0555,-4.8936,-4.9063,-4.7859,-4.4779,-4.4833,-4.4427,-4.3073,-4.2986,-4.2986,-4.2986,-4.2986,-4.2986,-4.2986,-4.2986,-4.2986,-4.2986,-4.2986,-4.2986,0.0,-3.7285,-3.6896,-3.3484,-3.3724,-3.3514,-2.8427,0.0,-2.9112,-2.7649,0.0,-2.8184,-2.8996,0.0,0.0,-3.0041,-3.1779,-3.3066,-3.3066,-3.4322,-3.6151,-3.8452,-4.0307,-4.1175,-4.0666,-3.9619,-4.0217,-4.329,-4.1953,-4.2252,-4.5244,-4.5992,-4.6309,-4.6399,-4.701,-4.7309,-4.7309,-4.7309,-4.7309,-4.7309,-4.8626,-4.9299,-4.9359,-5.0631,-5.1229,-5.1229,-5.1229,-5.1229,-5.1229,-5.1229,-5.1229,-5.1229,-5.1229,-5.1229,-5.1229,-5.1229,-5.1229,-5.1229,-5.1229,-5.1229,-5.1229,-5.1229,-5.1229,-5.1229,-5.1229,-5.1229,-5.1229,-5.1229,-5.1229,-5.1229,-5.1229,-5.1229,-5.1229,-5.1229,-5.1229,-5.1229,-5.1229,-5.1229,-5.1229,-5.1229,-5.1229,-5.1229,-5.1229,-5.1229,-5.1229,-5.1229,-5.1229,-5.1229,-5.1229,-5.1229,-5.1229,-5.1229,-5.1229,-5.0143,-4.7554,-4.8489,-4.7503,-4.3492,-4.4318,-4.4427,-4.3073,-4.2986,-4.2986,-4.2986,-4.2986,-4.2986,-4.2986,-4.2986,-4.2986,-4.2986,-4.2986,-4.2986,0.0,-3.7883,-3.7734,-3.4951,-3.4592,-3.3844,-2.9774,-2.8637,-2.8423,-2.8364,0.0,0.0,0.0,0.0,0.0,0.0,-3.0313,-3.121,-3.0851,-3.2258,-3.4173,-3.6447,-3.6776,-3.7135,-3.8033,-3.8302,-3.914,-4.0898,-4.0307,-4.0935,-4.3489,-4.4945,-4.5903,-4.6279,-4.695,-4.7309,-4.7309,-4.7309,-4.7309,-4.7309,-4.8626,-4.9299,-4.9359,-5.0631,-5.1229,-5.1229,-5.1229,-5.1229,-5.1229,-5.1229,-5.1229,-5.1229,-5.1229,-5.1229,-5.1229,-5.1229,-5.1229,-5.1229,-5.1229,-5.1229,-5.1229,-5.1229,-5.1229,-5.1229,-5.1229,-5.1229,-5.1229,-5.1229,-5.1229,-5.1229,-5.1229,-5.1229,-5.1229,-5.1229,-5.1229,-5.1229,-5.1229,-5.1229,-5.1229,-5.1229,-5.1229,-5.1229,-5.1229,-5.1229,-5.1229,-5.1229,-5.1229,-5.1229,-5.1229,-5.1229,-5.0917,-5.0143,-5.0745,-5.0095,-4.7299,-4.7656,-4.6888,-4.4318,-4.3962,-4.3602,-4.3042,-4.2986,-4.2986,-4.2986,-4.2986,-4.2986,-4.2986,-4.2986,-4.2986,-4.2986,-4.2986,-4.2986,-3.8362,-3.8841,-3.8751,-3.5699,-3.4711,-3.3665,-3.0432,-2.9175,-2.8873,-2.9472,-2.9022,0.0,0.0,0.0,0.0,0.0,0.0,-3.0043,-2.9415,-3.0372,-3.1839,-3.3664,-3.3664,-3.4352,-3.6537,-3.6776,-3.7524,-3.9254,-3.8571,-3.932,-4.2231,-4.3758,-4.4975,-4.5992,-4.6681,-4.713,-4.7309,-4.7309,-4.7309,-4.7309,-4.8626,-4.9299,-4.9359,-5.0631,-5.1229,-5.1229,-5.1229,-5.1229,-5.1229,-5.1229,-5.1229,-5.1229,-5.1229,-5.1229,-5.1229,-5.1229,-5.1229,-5.1229,-5.1229,-5.1229,-5.1229,-5.1229,-5.1229,-5.1229,-5.1229,-5.1229,-5.1229,-5.1229,-5.1229,-5.1229,-5.1229,-5.1229,-5.1229,-5.1229,-5.1229,-5.1229,-5.1229,-5.1229,-5.1229,-5.1229,-5.1229,-5.1229,-5.1229,-5.1229,-5.1229,-5.1229,-5.1229,-5.1229,-5.1229,-5.087,-5.0287,-4.9308,-4.9727,-4.9112,-4.6733,-4.6526,-4.5925,-4.4535,-4.3547,-4.2986,-4.2986,-4.2986,-4.2986,-4.2986,-4.2986,-4.2986,-4.2986,-4.2986,-4.2986,-4.2986,-4.2986,-4.2986,-4.0816,-4.1302,-4.0883,-3.5011,-3.4054,-3.3305,-2.8723,-2.9594,-3.1032,-2.9834,-3.1539,-3.2916,0.0,0.0,0.0,0.0,0.0,0.0,0.0,-2.8154,-2.8274,-2.9621,-3.1988,-3.4532,-3.7135,-3.4532,-3.4562,-3.9044,-3.6447,-3.6929,-4.2111,-4.247,-4.3369,-4.5274,-4.5992,-4.6651,-4.7309,-4.7309,-4.7309,-4.7309,-4.8626,-4.9299,-4.9359,-5.0631,-5.1229,-5.1229,-5.1229,-5.1229,-5.1229,-5.1229,-5.1229,-5.1229,-5.1229,-5.1229,-5.1229,-5.1229,-5.1229,-5.1229,-5.1229,-5.1229,-5.1229,-5.1229,-5.1229,-5.1229,-5.1229,-5.1229,-5.1229,-5.1229,-5.1229,-5.1229,-5.1229,-5.1229,-5.1229,-5.1229,-5.1229,-5.1229,-5.1229,-5.1229,-5.1229,-5.1229,-5.1229,-5.1229,-5.1229,-5.1229,-5.1229,-5.1229,-5.1229,-5.1229,-5.1229,-5.0095,-4.9259,-4.921,-4.8038,-4.663,-4.5209,-4.5102,-4.4481,-4.3129,-4.3042,-4.2986,-4.2986,-4.2986,-4.2986,-4.2986,-4.2986,-4.2986,-4.2986,-4.2986,-4.2986,-4.2986,-4.2986,-4.2986,-4.2551,-4.3329,-4.309,-3.8003,-3.6896,-3.5848,-3.124,-3.1212,-3.1899,-3.1032,-3.2258,-3.3215,0.0,0.0,0.0,0.0,0.0,0.0,0.0,0.0,-2.6273,-2.8064,0.0,0.0,0.0,-3.3185,-3.4292,-3.54,-3.528,-3.6507,-3.9595,-4.1452,-4.3099,-4.4586,-4.5723,-4.6651,-4.7309,-4.7309,-4.7519,-4.7967,-4.888,-4.9494,-4.9942,-5.081,-5.1229,-5.1229,-5.1229,-5.1229,-5.1229,-5.1229,-5.1229,-5.1229,-5.1229,-5.1229,-5.1229,-5.1229,-5.1229,-5.1229,-5.1229,-5.1229,-5.1229,-5.1229,-5.1229,-5.1229,-5.1229,-5.1229,-5.1229,-5.1229,-5.1229,-5.1229,-5.1229,-5.1229,-5.1229,-5.1229,-5.1229,-5.1229,-5.1229,-5.1229,-5.1229,-5.1229,-5.1229,-5.1229,-5.1229,-5.1229,-5.1229,-5.1229,-5.1229,-5.087,-4.9969,-5.0239,-4.9455,-4.6682,-4.7656,-4.7554,-4.5209,-4.4994,-4.4427,-4.3073,-4.2986,-4.2986,-4.2986,-4.2986,-4.2986,-4.2986,-4.2986,-4.2986,-4.2986,-4.2986,-4.2986,-4.2986,-4.2986,-4.2986,-4.3838,-4.4496,-4.4287,-4.0127,-3.911,-3.8033,-3.3872,-3.3962,-3.462,-3.3484,-3.4322,-3.519,0.0,0.0,0.0,0.0,0.0,0.0,0.0,-2.5704,0.0,0.0,0.0,0.0,0.0,-3.1868,-3.2976,-3.4442,-3.4053,-3.519,-3.8571,-4.0367,-4.2222,-4.4257,-4.5394,-4.6381,-4.7309,-4.7309,-4.7638,-4.8297,-4.9,-4.9613,-5.0226,-5.0883,-5.1229,-5.1229,-5.1229,-5.1229,-5.1229,-5.1229,-5.1229,-5.1229,-5.1229,-5.1229,-5.1229,-5.1229,-5.1229,-5.1229,-5.1229,-5.1229,-5.1229,-5.1229,-5.1229,-5.1259,-5.1498,-5.1558,-5.1618,-5.1858,-5.1917,-5.1917,-5.1917,-5.1738,-5.1558,-5.1558,-5.1379,-5.1229,-5.1229,-5.1229,-5.1229,-5.1229,-5.1229,-5.1229,-5.1229,-5.1229,-5.1229,-5.1229,-5.1229,-5.0698,-4.9357,-4.9504,-4.8539,-4.5342,-4.6188,-4.6265,-4.4427,-4.4264,-4.3907,-4.3017,-4.2986,-4.2986,-4.2986,-4.2986,-4.2986,-4.2986,-4.2986,-4.2986,-4.2986,-4.2986,-4.2986,-4.2986,-4.2986,-4.2986]},{"header":{"parameterUnit":"m.s-1","parameterCategory":1,"la1":30.6,"la2":29.2853,"lo1":-89.7004,"lo2":-87.6739,"dy":0.0162,"dx":0.0183,"nx":112,"ny":82,"refTime":"2026-04-02T00:00:00:Z","depth":0,"parameterNumber":3,"parameterNumberName":"V-component_of_WINDS"},"data":[0.0,0.0,0.0,0.0,0.0,0.0,0.0,0.0,0.0,0.0,0.0,0.0,0.0,0.0,0.0,0.0,0.0,0.0,0.0,0.0,0.0,0.0,0.0,0.0,0.0,0.0,0.0,0.0,0.0,0.0,0.0,0.0,0.0,0.0,0.0,0.0,0.0,0.0,0.0,0.0,0.0,0.0,0.0,0.0,0.0,0.0,0.0,0.0,0.0,0.0,0.0,0.0,0.0,0.0,0.0,0.0,0.0,0.0,0.0,0.0,0.0,0.0,0.0,0.0,0.0,0.0,0.0,0.0,0.0,0.0,0.0,0.0,0.0,0.0,0.0,0.0,0.0,0.0,0.0,0.0,0.0,0.0,0.0,0.0,0.0,0.0,0.0,0.0,0.0,0.0,1.6313,1.8497,2.1358,2.2669,2.1568,2.1018,1.9965,1.83,0.0,0.0,0.0,0.0,0.0,0.0,0.0,0.0,0.0,0.0,0.0,0.0,0.0,0.0,0.0,0.0,0.0,0.0,0.0,0.0,0.0,0.0,0.0,0.0,0.0,0.0,0.0,0.0,0.0,0.0,0.0,0.0,0.0,0.0,0.0,0.0,0.0,0.0,0.0,0.0,0.0,0.0,0.0,0.0,0.0,0.0,0.0,0.0,0.0,0.0,0.0,0.0,0.0,0.0,0.0,0.0,0.0,0.0,0.0,0.0,0.0,0.0,0.0,0.0,0.0,0.0,0.0,0.0,0.0,0.0,0.0,0.0,0.0,0.0,0.0,0.0,0.0,0.0,0.0,0.0,0.0,0.0,0.0,0.0,0.0,0.0,0.0,0.0,0.0,0.0,0.0,0.0,0.0,0.0,0.0,0.0,0.0,0.0,0.0,0.0,0.0,0.0,0.0,0.0,1.7266,2.125,2.251,2.2669,2.1568,2.1018,1.9963,1.8297,0.0,0.0,0.0,0.0,0.0,0.0,0.0,0.0,0.0,0.0,0.0,0.0,0.0,0.0,0.0,0.0,0.0,0.0,0.0,0.0,0.0,0.0,0.0,0.0,0.0,0.0,0.0,0.0,0.0,0.0,0.0,0.0,0.0,0.0,0.0,0.0,0.0,0.0,0.0,0.0,0.0,0.0,0.0,0.0,0.0,0.0,0.0,0.0,0.0,0.0,0.0,0.0,0.0,0.0,0.0,0.0,0.0,0.0,0.0,0.0,0.0,0.0,0.0,0.0,0.0,0.0,0.0,0.0,0.0,0.0,0.0,0.0,0.0,0.0,0.0,0.0,0.0,0.0,0.0,0.0,0.0,0.0,0.0,0.0,0.0,0.0,0.0,0.0,0.0,0.0,0.0,0.0,0.0,0.0,0.0,0.0,0.0,0.0,0.0,0.0,0.0,0.0,0.0,1.6173,1.8409,2.1938,2.2769,2.2669,2.1568,2.1018,2.0117,1.8727,1.6461,0.0,0.0,0.0,0.0,0.0,0.0,0.0,0.0,0.0,0.0,0.0,0.0,0.0,0.0,0.0,0.0,0.0,0.0,0.0,0.0,0.0,0.0,0.0,0.0,0.0,0.0,0.0,0.0,0.0,0.0,0.0,0.0,0.0,0.0,0.0,0.0,0.0,0.0,0.0,0.0,0.0,0.0,0.0,0.0,0.0,0.0,0.0,0.0,0.0,0.0,0.0,0.0,0.0,0.0,0.0,0.0,0.0,0.0,0.0,0.0,0.0,0.0,0.0,0.0,0.0,0.0,0.0,0.0,0.0,0.0,0.0,0.0,0.0,0.0,0.0,0.0,0.0,0.0,0.0,0.0,0.0,0.0,0.0,0.0,0.0,0.0,0.0,0.0,0.0,0.0,0.0,0.0,0.0,0.0,0.0,0.0,0.0,0.0,0.0,0.0,0.0,0.0,1.8122,1.9526,2.2185,2.2844,2.2669,2.1568,2.0893,2.0016,1.8864,1.6204,0.0,0.0,0.0,0.0,0.0,0.0,0.0,0.0,0.0,0.0,0.0,0.0,0.0,0.0,0.0,0.0,0.0,0.0,0.0,0.0,0.0,0.0,0.0,0.0,0.0,0.0,0.0,0.0,0.0,0.0,0.0,0.0,0.0,0.0,0.0,0.0,0.0,0.0,0.0,0.0,0.0,0.0,0.0,0.0,0.0,0.0,0.0,0.0,0.0,0.0,0.0,0.0,0.0,0.0,0.0,0.0,0.0,0.0,0.0,0.0,0.0,0.0,0.0,0.0,0.0,0.0,0.0,0.0,0.0,0.0,0.0,0.0,0.0,0.0,0.0,0.0,0.0,0.0,0.0,0.0,0.0,0.0,0.0,0.0,0.0,0.0,0.0,0.0,0.0,0.0,0.0,0.0,0.0,0.0,0.0,0.0,0.0,0.0,0.0,0.0,0.0,0.0,1.8498,2.0552,2.281,2.307,2.2669,2.1568,2.0489,1.9409,1.8327,1.546,0.0,0.0,0.0,0.0,0.0,0.0,0.0,0.0,0.0,0.0,0.0,0.0,0.0,0.0,0.0,0.0,0.0,0.0,0.0,0.0,0.0,0.0,0.0,0.0,0.0,0.0,0.0,0.0,0.0,0.0,0.0,0.0,0.0,0.0,0.0,0.0,0.0,0.0,0.0,0.0,0.0,0.0,0.0,0.0,0.0,0.0,0.0,0.0,0.0,0.0,0.0,0.0,0.0,0.0,0.0,0.0,0.0,0.0,0.0,0.0,0.0,0.0,0.0,0.0,0.0,0.0,0.0,0.0,0.0,0.0,0.0,0.0,0.0,0.0,0.0,0.0,0.0,0.0,0.0,0.0,0.0,0.0,0.0,0.0,0.0,0.0,0.0,0.0,0.0,0.0,0.0,0.0,0.0,0.0,0.0,0.0,0.0,0.0,0.0,0.0,0.0,0.0,1.8894,2.0645,2.2865,2.3095,2.2669,2.1568,2.1091,2.0066,1.8193,0.0,0.0,0.0,0.0,0.0,0.0,0.0,0.0,0.0,0.0,0.0,0.0,0.0,0.0,0.0,0.0,0.0,0.0,0.0,0.0,0.0,0.0,0.0,0.0,0.0,0.0,0.0,0.0,0.0,0.0,0.0,0.0,0.0,0.0,0.0,0.0,0.0,0.0,0.0,0.0,0.0,0.0,0.0,0.0,0.0,0.0,0.0,0.0,0.0,0.0,0.0,0.0,0.0,0.0,0.0,0.0,0.0,0.0,0.0,0.0,0.0,0.0,0.0,0.0,0.0,0.0,0.0,0.0,0.0,0.0,0.0,0.0,0.0,0.0,0.0,0.0,0.0,0.0,0.0,0.0,0.0,0.0,0.0,0.0,0.0,0.0,0.0,0.0,0.0,0.0,0.0,0.0,0.0,0.0,0.0,0.0,0.0,0.0,0.0,0.0,0.0,0.0,1.7798,1.9425,2.1066,2.2895,2.3095,2.2669,2.1568,2.1016,1.9915,1.8104,0.0,0.0,0.0,0.0,0.0,0.0,0.0,0.0,0.0,0.0,0.0,0.0,0.0,0.0,0.0,0.0,0.0,0.0,0.0,0.0,0.0,0.0,0.0,0.0,0.0,0.0,0.0,0.0,0.0,0.0,0.0,0.0,0.0,0.0,0.0,0.0,0.0,0.0,0.0,0.0,0.0,0.0,0.0,0.0,0.0,0.0,0.0,0.0,0.0,0.0,0.0,0.0,0.0,0.0,0.0,0.0,0.0,0.0,0.0,0.0,0.0,0.0,0.0,0.0,0.0,0.0,0.0,0.0,0.0,0.0,0.0,0.0,0.0,0.0,0.0,0.0,0.0,0.0,0.0,0.0,0.0,0.0,0.0,0.0,0.0,0.0,0.0,0.0,0.0,0.0,0.0,0.0,0.0,0.0,0.0,0.0,0.0,0.0,0.0,0.0,0.0,0.0,1.7994,2.017,2.192,2.2995,2.3095,2.2669,2.1594,1.9961,1.8724,0.0,0.0,0.0,0.0,0.0,0.0,0.0,0.0,0.0,0.0,0.0,0.0,0.0,0.0,0.0,0.0,0.0,0.0,0.0,0.0,0.0,0.0,0.0,0.0,0.0,0.0,0.0,0.0,0.0,0.0,0.0,0.0,0.0,0.0,0.0,0.0,0.0,0.0,0.0,0.0,0.0,0.0,0.0,0.0,0.0,0.0,0.0,0.0,0.0,0.0,0.0,0.0,0.0,0.0,0.0,0.0,0.0,0.0,0.0,0.0,0.0,0.0,0.0,0.0,0.0,0.0,0.0,0.0,0.0,0.0,0.0,0.0,0.0,0.0,0.0,0.0,0.0,0.0,0.0,0.0,0.0,0.0,0.0,0.0,0.0,0.0,0.0,0.0,0.0,0.0,0.0,0.0,0.0,0.0,0.0,0.0,0.0,0.0,0.0,0.0,0.0,0.0,0.0,1.7812,2.0095,2.192,2.2995,2.3095,2.2819,2.2121,2.0916,1.9709,1.851,0.0,0.0,0.0,0.0,0.0,0.0,0.0,0.0,0.0,0.0,0.0,0.0,0.0,0.0,0.0,0.0,0.0,0.0,0.0,0.0,0.0,0.0,0.0,0.0,0.0,0.0,0.0,0.0,0.0,0.0,0.0,0.0,0.0,0.0,0.0,0.0,0.0,0.0,0.0,0.0,0.0,0.0,0.0,0.0,0.0,0.0,0.0,0.0,0.0,0.0,0.0,0.0,0.0,0.0,0.0,0.0,0.0,0.0,0.0,0.0,0.0,0.0,0.0,0.0,0.0,0.0,0.0,0.0,0.0,0.0,0.0,0.0,0.0,0.0,0.0,0.0,0.0,0.0,0.0,0.0,0.0,0.0,0.0,0.0,0.0,0.0,0.0,0.0,0.0,0.0,0.0,0.0,0.0,0.0,0.0,0.0,0.0,0.0,0.0,0.0,0.0,0.0,1.807,2.0559,2.2397,2.302,2.3321,2.312,2.2372,2.132,2.0118,1.8764,0.0,0.0,0.0,0.0,0.0,0.0,0.0,0.0,0.0,0.0,0.0,0.0,0.0,0.0,0.0,0.0,0.0,0.0,0.0,0.0,0.0,0.0,0.0,0.0,0.0,0.0,0.0,0.0,0.0,0.0,0.0,0.0,0.0,0.0,0.0,0.0,0.0,0.0,0.0,0.0,0.0,0.0,0.0,0.0,0.0,0.0,0.0,0.0,0.0,0.0,0.0,0.0,0.0,0.0,0.0,0.0,0.0,0.0,0.0,0.0,0.0,0.0,0.0,0.0,0.0,0.0,0.0,0.0,0.0,0.0,0.0,0.0,0.0,0.0,0.0,0.0,0.0,0.0,0.0,0.0,0.0,0.0,0.0,0.0,0.0,0.0,0.0,0.0,0.0,0.0,0.0,0.0,0.0,0.0,0.0,0.0,0.0,0.0,0.0,0.0,0.0,0.0,1.863,2.1342,2.3145,2.3246,2.3703,2.3577,2.2548,2.1395,2.0194,1.8962,0.0,0.0,0.0,0.0,0.0,0.0,0.0,0.0,0.0,0.0,0.0,0.0,0.0,0.0,0.0,0.0,0.0,0.0,0.0,0.0,0.0,0.0,0.0,0.0,0.0,0.0,0.0,0.0,0.0,0.0,0.0,0.0,0.0,0.0,0.0,0.0,0.0,0.0,0.0,0.0,0.0,0.0,0.0,0.0,0.0,0.0,0.0,0.0,0.0,0.0,0.0,0.0,0.0,0.0,0.0,0.0,0.0,0.0,0.0,0.0,1.9384,1.8596,0.0,0.0,0.0,0.0,0.0,0.0,0.0,0.0,0.0,0.0,0.0,0.0,0.0,0.0,0.0,0.0,0.0,0.0,0.0,0.0,0.0,0.0,0.0,0.0,0.0,0.0,0.0,0.0,0.0,0.0,0.0,0.0,0.0,0.0,0.0,0.0,0.0,0.0,0.0,0.0,1.862,2.1331,2.3446,2.4324,2.418,2.3904,2.3653,2.1848,2.0321,1.9486,1.763,0.0,0.0,0.0,0.0,0.0,0.0,0.0,0.0,0.0,0.0,0.0,0.0,0.0,0.0,0.0,0.0,0.0,0.0,0.0,0.0,0.0,0.0,0.0,0.0,0.0,0.0,0.0,0.0,0.0,0.0,0.0,0.0,0.0,0.0,0.0,0.0,0.0,0.0,0.0,0.0,0.0,0.0,0.0,0.0,0.0,0.0,0.0,0.0,0.0,0.0,0.0,0.0,0.0,0.0,0.0,0.0,0.0,0.0,0.0,2.244,2.1403,0.0,0.0,0.0,0.0,0.0,0.0,0.0,0.0,0.0,0.0,0.0,0.0,0.0,0.0,0.0,0.0,0.0,0.0,0.0,0.0,0.0,0.0,0.0,0.0,0.0,0.0,0.0,0.0,0.0,0.0,0.0,0.0,0.0,0.0,0.0,0.0,0.0,0.0,0.0,0.0,1.9046,2.1986,2.4148,2.4725,2.4782,2.4556,2.4029,2.2673,2.1352,2.0195,1.8401,0.0,0.0,0.0,0.0,0.0,0.0,0.0,0.0,0.0,0.0,0.0,0.0,0.0,0.0,0.0,0.0,0.0,0.0,0.0,0.0,0.0,0.0,0.0,0.0,0.0,0.0,0.0,0.0,0.0,0.0,0.0,0.0,0.0,0.0,0.0,0.0,0.0,0.0,0.0,0.0,0.0,0.0,0.0,0.0,0.0,0.0,0.0,0.0,0.0,0.0,0.0,0.0,0.0,2.4687,2.5369,2.5991,2.6537,2.7514,2.8537,2.5872,2.4923,2.5241,2.4589,0.0,0.0,0.0,0.0,0.0,0.0,0.0,0.0,0.0,0.0,0.0,0.0,0.0,0.0,0.0,0.0,0.0,0.0,0.0,0.0,0.0,0.0,2.3506,2.3376,2.4476,2.4575,2.1164,0.0,0.0,0.0,0.0,0.0,0.0,0.0,0.0,0.0,0.0,0.0,1.9817,2.288,2.4983,2.5109,2.541,2.5209,2.423,2.3496,2.2443,2.0943,1.9247,1.7786,0.0,0.0,0.0,0.0,0.0,0.0,0.0,0.0,0.0,0.0,0.0,0.0,0.0,0.0,0.0,0.0,0.0,0.0,0.0,0.0,0.0,0.0,0.0,0.0,0.0,0.0,0.0,0.0,0.0,0.0,0.0,0.0,1.8227,1.8887,0.0,0.0,0.0,0.0,0.0,0.0,0.0,0.0,0.0,0.0,0.0,0.0,0.0,2.3105,2.3906,2.5527,2.6387,2.6504,2.7363,2.8349,2.9405,2.8505,2.9384,3.1728,3.1283,0.0,2.9683,2.8954,0.0,0.0,0.0,0.0,0.0,0.0,0.0,0.0,0.0,0.0,0.0,0.0,0.0,0.0,0.0,0.0,0.0,0.0,0.0,0.0,0.0,0.0,2.8662,2.8125,2.8199,2.796,2.6515,2.3256,2.0314,1.9434,1.8179,1.6873,0.0,0.0,0.0,0.0,0.0,0.0,2.1044,2.3709,2.5686,2.6223,2.5862,2.536,2.4725,2.3722,2.2594,2.1468,2.0682,1.9946,1.9336,1.8105,0.0,0.0,0.0,0.0,0.0,0.0,0.0,0.0,0.0,0.0,0.0,0.0,0.0,0.0,0.0,0.0,0.0,0.0,0.0,0.0,0.0,0.0,0.0,0.0,0.0,0.0,0.0,0.0,0.0,1.8262,1.9883,2.0332,2.043,2.0098,0.0,0.0,0.0,0.0,0.0,0.0,0.0,0.0,0.0,2.5078,2.5556,2.626,2.7305,2.8301,2.8926,2.9199,2.9805,3.05,3.1268,3.1252,3.2496,3.4773,3.5031,3.5138,3.51,3.2871,3.1066,2.9401,0.0,0.0,0.0,0.0,2.5559,2.5894,2.7522,2.7924,2.7627,2.7005,0.0,0.0,0.0,0.0,0.0,0.0,0.0,2.4184,2.5973,2.8113,2.988,3.0231,3.0306,3.0005,2.8925,2.6917,2.4582,2.2117,2.1619,2.0614,1.7626,1.7601,0.0,0.0,0.0,2.1259,2.2694,2.4446,2.5812,2.6424,2.6273,2.5862,2.531,2.4499,2.3572,2.2468,2.1589,2.0862,2.0273,1.9406,1.8426,0.0,0.0,0.0,0.0,0.0,0.0,0.0,0.0,0.0,0.0,0.0,0.0,0.0,0.0,0.0,0.0,0.0,0.0,0.0,0.0,0.0,0.0,0.0,0.0,0.0,0.0,0.0,0.0,1.994,2.1465,2.1658,2.2305,2.2148,0.0,0.0,0.0,0.0,0.0,0.0,2.4707,2.5176,2.6289,2.8315,2.8491,2.9004,3.0059,3.0488,3.0879,3.123,3.1543,3.1855,3.2209,3.2852,3.4477,3.67,3.704,3.8065,3.927,3.6207,3.3972,3.2323,3.0876,2.961,2.8664,2.9124,2.9451,2.9951,3.1937,3.2567,3.229,3.1361,3.0281,2.8863,2.644,0.0,0.0,0.0,0.0,2.619,2.8358,2.9688,3.0658,3.1587,3.1712,3.1336,3.0407,2.9754,2.8286,2.485,2.46,2.3879,2.0313,2.0238,0.0,1.9384,2.1016,2.2849,2.423,2.536,2.6223,2.665,2.6575,2.6273,2.5636,2.5234,2.4525,2.3396,2.2447,2.1718,2.1328,2.0478,1.969,1.9025,0.0,0.0,0.0,0.0,0.0,0.0,0.0,0.0,0.0,0.0,0.0,0.0,0.0,0.0,0.0,0.0,0.0,0.0,0.0,0.0,0.0,0.0,0.0,0.0,0.0,0.0,0.0,0.0,0.0,2.3042,2.4141,0.0,0.0,0.0,0.0,2.3535,2.4414,2.5712,2.7434,2.7871,2.8711,3.0019,3.0508,3.0957,3.1406,3.1855,3.209,3.2109,3.219,3.2209,3.2229,3.227,3.3871,3.6687,3.6757,3.8427,4.0974,3.8743,3.6835,3.5282,3.5186,3.4485,3.3577,3.3564,3.3283,3.295,3.3583,3.3477,3.3194,3.4148,3.2692,3.0507,3.0331,2.8185,0.0,0.0,2.8909,2.8882,3.1365,3.2022,3.224,3.2842,3.2566,3.2014,3.1436,3.0909,2.9854,2.7519,2.6264,2.5159,2.3929,0.0,2.2744,2.2196,2.3521,2.4858,2.5435,2.649,2.7253,2.7278,2.6801,2.6273,2.5636,2.5561,2.5109,2.4029,2.3371,2.3039,2.3162,2.1485,2.1102,2.2238,1.9293,0.0,0.0,0.0,0.0,0.0,0.0,0.0,0.0,0.0,0.0,0.0,0.0,0.0,0.0,0.0,0.0,0.0,0.0,0.0,0.0,0.0,0.0,0.0,0.0,0.0,0.0,0.0,0.0,2.5547,2.6523,0.0,2.5527,2.5664,2.5957,2.6319,2.7376,2.8476,2.9668,3.0137,3.082,3.1836,3.2031,3.2324,3.2734,3.2891,3.2969,3.2969,3.2969,3.2969,3.2969,3.2969,3.4697,3.7686,3.7314,3.8958,4.1781,4.0626,3.917,3.7613,3.6885,3.6132,3.5529,3.5881,3.5881,3.5805,3.6358,3.5956,3.5173,3.4826,3.3822,3.2717,3.2717,3.1705,3.0744,3.1655,3.168,3.168,3.2574,3.2767,3.2817,3.3061,3.2918,3.2516,3.1587,3.1235,3.0683,2.9202,2.8273,2.7168,2.5335,2.546,2.5485,2.4556,2.5561,2.659,2.7143,2.757,2.767,2.7318,2.7153,2.6801,2.6223,2.5511,2.4933,2.4556,2.3296,2.2434,2.2161,2.1563,2.1106,2.0765,1.9657,1.834,0.0,0.0,0.0,0.0,0.0,0.0,0.0,0.0,0.0,0.0,0.0,0.0,0.0,0.0,0.0,0.0,0.0,0.0,0.0,0.0,0.0,0.0,0.0,0.0,0.0,2.4434,2.6426,2.7148,2.8379,2.8769,2.7754,2.8184,2.8594,2.875,2.9668,3.0605,3.1484,3.1797,3.2266,3.2988,3.3144,3.3359,3.3633,3.3633,3.3633,3.3633,3.3496,3.3418,3.3418,3.3418,3.486,3.7424,3.7569,3.9209,4.1669,4.1613,4.0978,3.9873,3.8212,3.7121,3.6456,3.6304,3.6154,3.6107,3.6946,3.6997,3.6531,3.5579,3.4901,3.4424,3.4223,3.3922,3.3621,3.3621,3.3621,3.3596,3.3395,3.3345,3.3294,3.3162,3.2918,3.2591,3.1838,3.1386,3.0909,3.0206,2.9603,2.8674,2.7017,2.7344,2.7519,2.659,2.7243,2.7971,2.8323,2.8373,2.8247,2.7871,2.7494,2.7178,2.6801,2.5711,2.4976,2.48,2.3396,2.2347,2.1794,2.1476,2.0913,2.0145,1.9942,1.9059,1.7477,0.0,0.0,0.0,0.0,0.0,0.0,0.0,0.0,0.0,0.0,0.0,0.0,0.0,0.0,0.0,0.0,0.0,0.0,0.0,0.0,0.0,0.0,0.0,2.3887,2.6465,2.8203,2.7904,2.9648,3.043,2.916,2.9785,3.0449,3.0918,3.1348,3.1953,3.2793,3.2851,3.3047,3.3457,3.3867,3.4082,3.4082,3.4082,3.4082,3.4082,3.3672,3.3457,3.3437,3.3437,3.4258,3.5867,3.7445,3.9053,4.0683,4.1694,4.2158,4.1923,3.9401,3.775,3.6635,3.5161,3.4258,3.399,3.5418,3.6501,3.7136,3.6631,3.6031,3.5458,3.4931,3.4801,3.4731,3.4705,3.4705,3.4625,3.4073,3.3922,3.3771,3.3244,3.2667,3.224,3.2215,3.1386,3.0658,3.0633,3.0181,2.9628,2.9013,2.8913,2.8737,2.8247,2.8624,0.0,2.8913,2.8913,2.8913,2.8888,2.7971,2.7318,2.7293,2.6239,2.5385,2.4825,2.3697,2.2819,2.2318,2.127,2.0731,2.0799,2.0221,1.9554,1.8798,0.0,0.0,0.0,0.0,0.0,0.0,0.0,0.0,0.0,0.0,0.0,0.0,0.0,0.0,0.0,0.0,0.0,0.0,0.0,0.0,0.0,2.4648,2.6133,2.6133,2.791,2.9648,3.0859,3.1465,3.1797,3.1738,3.166,3.1797,3.2246,3.2656,3.3144,3.3691,3.4004,3.4238,3.4336,3.4473,3.4531,3.4531,3.4531,3.4531,3.4531,3.4394,3.4199,3.3887,3.3887,3.4622,3.5806,3.6295,3.8022,4.065,4.0908,4.1513,4.2082,4.0923,4.0067,3.9396,3.9002,3.8502,3.8041,3.8033,3.8216,3.8366,3.7739,3.7186,3.6709,3.6558,3.6232,3.583,3.5382,3.5282,3.5157,3.465,3.4198,3.3847,3.3721,3.3244,3.2717,3.229,3.1989,3.1537,3.0758,3.0482,3.0206,2.9654,2.9553,2.9503,2.9352,2.9453,2.9553,2.9553,2.9553,2.9402,2.8938,2.8612,2.8147,2.7379,2.6239,2.5385,2.4825,2.3,2.2046,2.2297,2.127,2.0696,2.073,2.054,1.9875,0.0,0.0,0.0,0.0,0.0,0.0,0.0,0.0,0.0,0.0,0.0,0.0,0.0,0.0,0.0,0.0,0.0,0.0,0.0,0.0,0.0,0.0,2.6953,2.8535,2.9101,3.0019,3.1172,3.2539,3.2851,3.3125,3.3555,3.3359,3.332,3.3574,3.3828,3.4062,3.4316,3.457,3.4707,3.4707,3.4883,3.498,3.498,3.498,3.498,3.498,3.4785,3.4473,3.4082,3.4082,3.4382,3.486,3.5499,3.6881,3.8676,4.0047,4.0941,4.1496,0.0,0.0,0.0,0.0,3.8703,3.8742,3.8447,3.8561,3.8818,3.8492,3.799,3.7487,3.7262,3.696,3.6631,3.6031,3.5881,3.5755,3.5157,3.4781,3.4474,3.3997,3.3646,3.3269,3.2692,3.239,3.2039,3.1411,3.0934,0.0,3.0206,2.9955,2.9804,2.9804,2.9804,2.9804,2.9804,2.9804,2.9654,2.9327,2.9038,2.8674,2.8021,2.6741,0.0,0.0,0.0,2.2121,2.197,2.1144,0.0,0.0,0.0,0.0,0.0,0.0,0.0,0.0,2.0106,2.0049,0.0,0.0,0.0,0.0,0.0,0.0,0.0,0.0,0.0,0.0,0.0,0.0,0.0,0.0,0.0,0.0,2.9062,3.0859,3.2129,3.2344,3.2656,3.3398,3.3887,3.4297,3.4668,3.4707,3.4707,3.4707,3.4746,3.4785,3.4785,3.4824,0.0,0.0,0.0,3.5469,3.5469,3.5469,3.5469,3.5469,3.5039,3.4629,3.4219,3.416,3.3906,3.3559,3.4943,3.5745,3.6295,3.9147,4.0534,4.0832,4.0386,3.9938,3.9213,3.7294,3.7138,3.7814,3.7767,0.0,0.0,3.902,3.8567,3.8015,3.7538,3.7287,3.7086,3.6631,3.6455,3.6304,3.5755,3.5533,3.5257,3.4324,3.3997,3.3771,3.3269,3.2717,3.229,3.2215,3.1436,3.0758,3.0633,3.0156,2.9804,2.9804,2.9804,2.9804,2.9804,2.9804,2.9804,2.9804,2.9327,0.0,2.8888,2.7519,2.6625,2.6499,2.4481,2.2819,2.182,2.1395,2.137,2.1769,2.1897,2.243,2.34,2.4013,2.4314,2.4286,2.2878,2.2753,0.0,0.0,0.0,0.0,0.0,0.0,0.0,0.0,0.0,0.0,0.0,0.0,0.0,0.0,0.0,2.8789,3.0605,3.2109,3.3047,3.3476,3.3769,3.3926,3.4316,3.4609,3.4687,3.4707,3.4707,3.4707,3.5039,3.5254,3.5254,3.5586,3.5762,3.5762,3.5859,3.5898,3.5898,3.5898,3.5898,3.5898,3.5801,0.0,3.5117,3.4746,3.4336,3.399,3.3871,3.5335,3.7805,3.8402,4.0187,4.2494,4.1972,4.1673,4.1449,4.0133,3.9766,3.9854,3.9407,3.939,3.9546,3.9546,3.9145,3.8743,3.8617,3.7914,0.0,3.7061,3.6757,3.638,3.6279,3.5881,3.5433,3.5232,3.455,3.3872,3.3771,3.3294,3.2767,3.229,3.2039,3.1637,3.0758,3.0156,2.9804,2.9804,2.9804,2.9804,2.9804,2.9804,2.9804,2.9804,2.9704,2.9428,2.8938,2.8222,2.7394,2.6549,2.5234,2.4173,2.3527,2.3828,2.3853,2.3527,2.4012,2.4157,2.395,2.4551,2.5132,2.5626,2.5471,2.4898,0.0,0.0,0.0,0.0,0.0,0.0,0.0,0.0,0.0,0.0,0.0,2.4277,2.5762,0.0,2.9121,3.0625,3.1953,3.3027,3.3652,3.4316,3.4726,3.4726,3.4922,3.5137,3.5332,3.5351,3.5351,3.5351,3.5566,3.5703,3.5703,3.5898,3.6016,3.6016,3.6016,3.6016,3.6016,3.6016,3.6016,3.6016,3.6016,3.5801,3.5391,3.5156,3.4687,3.4062,3.3848,3.5022,3.7122,3.8757,4.0822,4.2961,4.2715,4.2464,4.2137,4.153,4.1153,4.0852,4.03,4.0099,4.0074,3.9798,3.9496,3.922,3.8994,3.8517,3.7914,3.7337,3.6985,3.6757,3.648,3.6157,3.5881,3.5558,3.5082,3.4575,3.4022,3.3696,3.3319,3.2742,3.2416,3.2039,3.1512,3.0733,3.0105,2.9829,2.9804,2.9804,2.9804,2.9804,2.9804,2.9804,2.9804,2.9679,2.9377,2.885,2.8047,2.6977,2.6364,2.5812,2.5292,2.5485,2.5511,2.5267,2.5262,2.5397,2.5704,2.5434,2.5903,2.7059,2.7282,2.6722,0.0,0.0,0.0,0.0,0.0,0.0,0.0,2.2405,2.3144,2.4512,2.5762,2.7051,2.8535,2.9785,3.1016,3.2207,3.3047,3.373,3.4258,3.4863,3.5293,3.5391,3.5469,3.5644,3.5996,3.6016,3.6016,3.6016,3.6016,3.6016,3.6016,3.6016,3.6016,3.6016,3.6016,3.6016,3.6016,3.6016,3.6016,3.6016,3.6016,3.584,3.5508,3.543,3.4961,3.4244,3.4389,3.4956,3.599,3.8616,4.0822,4.2488,4.2206,4.2184,4.2363,4.2263,4.1882,4.143,4.0877,4.0601,4.045,3.9998,3.9772,3.9622,3.917,3.8994,3.8718,3.7764,3.7362,3.7086,3.6681,3.648,3.6304,3.5805,3.5583,3.5257,3.4399,3.4048,3.3771,3.3319,3.2767,3.234,3.224,3.1486,3.0708,3.0055,2.9854,2.9804,2.9804,2.9804,2.9804,2.9804,2.9804,2.9804,2.9804,2.9277,2.8512,2.767,2.7494,2.7278,2.6826,2.6826,2.6826,2.6826,2.6314,2.654,2.7444,2.6515,2.6791,2.8097,2.8315,2.7974,2.2369,2.0944,2.0215,2.1758,2.1973,2.2695,0.0,2.6367,2.6348,2.8008,2.9062,2.9883,3.0488,3.1348,3.2246,3.3144,3.3691,3.4297,3.5137,3.498,3.4922,3.5351,3.5723,3.5976,3.6016,3.6016,3.6016,3.6016,3.6016,3.6016,3.6016,3.6016,3.6016,3.6016,3.6016,3.6016,3.6016,3.6016,3.6016,3.6016,3.6016,3.5996,3.5937,3.5566,3.5117,3.4655,3.5331,3.5664,3.5806,3.6152,3.8141,4.0707,3.9288,4.0453,4.2836,4.2389,4.2162,4.2037,4.143,4.0874,4.0501,4.045,4.0099,3.9697,3.9622,3.927,3.8894,3.8768,3.7965,3.7161,3.7111,3.6782,3.638,3.6329,3.5906,3.5458,3.5332,3.46,3.3872,3.3822,3.337,3.2817,3.229,3.2114,3.1687,3.0683,3.0105,2.9804,2.9804,2.9804,2.9804,2.9804,2.9804,2.9804,2.9804,2.9277,2.8838,2.8712,2.8273,2.7971,2.7921,2.7921,2.7921,2.7921,2.7846,2.7896,2.8021,2.7896,2.7921,2.8097,2.8131,2.8077,2.4199,2.3616,2.3432,2.4153,2.5195,2.6348,2.7715,2.832,2.8887,2.9863,3.0742,3.1484,3.1914,3.25,3.3086,3.3711,3.416,3.457,3.4941,3.5059,3.498,3.4668,3.5,3.5351,3.5625,3.5664,3.5762,3.5996,3.6016,3.6016,3.6016,3.6016,3.6016,3.6016,3.6016,3.6016,3.6016,3.6016,3.6016,3.6016,3.6016,3.6016,3.6016,3.584,3.5371,3.4733,3.5787,3.6079,3.5928,3.7843,3.9405,4.0534,3.9873,4.1019,4.2961,4.2766,4.269,4.2559,4.2007,4.1656,4.1354,4.0727,4.035,4.0124,3.9798,3.9521,3.927,3.902,3.8592,3.8064,3.7362,3.701,3.6807,3.648,3.6182,3.5931,3.5583,3.5132,3.4675,3.4022,3.3721,3.337,3.2817,3.2441,3.2064,3.1612,3.0809,3.0156,2.9829,2.9804,2.9804,2.9804,2.9804,2.9804,2.9804,2.9578,2.9428,2.9428,2.9227,2.9076,2.9076,2.9076,2.9076,2.9076,2.875,2.875,2.9076,2.8423,2.8448,2.9076,2.875,2.8775,2.5058,2.5215,2.5771,2.6172,2.7695,2.9121,2.916,3.0,3.0859,3.1328,3.1992,3.2598,3.291,3.3223,3.3594,3.416,3.4492,3.4746,3.4863,3.498,3.4746,3.3984,3.3965,3.4219,3.4805,3.5059,3.5371,3.582,3.584,3.5898,3.6016,3.6016,3.6016,3.6016,3.6016,3.6016,3.6016,3.6016,3.6016,3.6016,3.6016,3.6016,3.6016,3.5898,3.5508,3.4929,3.5564,3.5915,3.6179,3.8387,3.9814,4.0592,4.0592,4.159,4.2986,4.2986,4.2986,4.2911,4.2564,4.2338,4.2087,4.1229,4.0777,4.045,4.0049,3.9823,3.9622,3.922,3.8994,3.8743,3.7864,3.7412,3.7086,3.6732,3.6505,3.6304,3.5855,3.5608,3.5257,3.45,3.4098,3.3771,3.337,3.2842,3.239,3.224,3.1562,3.0809,3.0105,2.988,2.9804,2.9804,2.9804,2.9804,2.9804,2.9804,2.9804,2.9804,2.9804,2.9804,2.9804,2.9804,2.9804,2.9804,2.9377,2.9377,2.9804,2.8976,2.9001,2.9779,2.9352,2.9402,2.4601,2.4766,2.5986,2.7285,2.8648,2.9883,3.1133,3.1777,3.2226,3.2656,3.3086,3.3379,3.3398,3.3418,3.3691,3.4551,3.4687,3.4863,3.5312,3.4648,3.3945,3.3496,3.2734,3.2578,3.3398,3.4238,3.4922,3.5371,3.541,3.5586,3.5996,3.6016,3.6016,3.6016,3.6016,3.6016,3.6016,3.6016,3.6016,3.6016,3.6016,3.6016,3.6016,3.5605,3.5391,3.5332,3.4518,3.5067,3.6436,3.6056,3.7783,4.0592,4.0592,4.159,4.2986,4.2986,4.2986,4.2986,4.2961,4.2665,4.2213,4.2162,4.1379,4.0526,4.0501,4.0124,3.9697,3.9672,3.927,3.8919,3.8869,3.8064,3.7186,3.7161,3.6807,3.6405,3.638,3.5906,3.5483,3.5458,3.4625,3.3897,3.3872,3.342,3.2867,3.229,3.219,3.1788,3.0733,3.0131,2.9804,2.9804,2.9804,2.9804,2.9804,2.9804,2.9804,2.9804,2.9804,2.9804,2.9804,2.9804,2.9804,2.9804,2.9779,2.9779,2.9804,2.9754,2.9754,2.9804,2.9779,2.9779,2.6596,2.709,2.8164,2.9473,3.0547,3.1484,3.2207,3.2695,3.2969,3.2832,3.2695,3.25,3.2207,3.2148,3.2441,3.3301,3.3906,3.4336,3.4492,3.4492,3.4023,3.2734,3.2578,3.2578,3.2598,3.3359,3.4277,3.5312,3.5391,3.5586,3.5996,3.6016,3.6016,3.6016,3.6016,3.6016,3.6016,3.6016,3.6016,3.6016,3.6016,3.6016,3.6016,3.5879,3.5664,3.5438,3.6269,3.6597,3.6666,3.8701,3.9941,4.0592,4.0592,4.159,4.2849,4.1785,4.2069,4.2986,4.2986,4.2861,4.269,4.2338,4.1961,4.148,4.0752,4.0375,4.0174,3.9798,3.9572,3.932,3.8969,3.8642,3.8265,3.7814,3.7312,3.6958,3.6958,3.6483,3.5981,3.5583,3.5207,3.4751,3.4022,3.3746,3.3445,3.2867,3.2139,3.1411,3.0708,3.0457,3.0206,2.9829,2.9804,2.9804,2.9804,2.9804,2.9804,2.9804,2.9804,2.9804,2.9804,2.9804,2.9804,2.9804,2.9804,2.9804,2.9804,2.9804,2.9804,2.9804,2.9804,2.9804,2.7922,2.8613,2.9687,3.1016,3.1875,3.25,3.293,3.3105,3.3027,3.2461,3.1875,3.1328,3.0898,3.0566,3.084,3.2324,3.3027,3.3613,3.4219,3.4394,3.4023,3.2773,3.2598,3.2519,3.2402,3.2871,3.3672,3.4844,3.5059,3.5332,3.5781,3.5937,3.6016,3.6016,3.6016,3.6016,3.6016,3.6016,3.6016,3.6016,3.6016,3.6016,3.6016,3.6016,3.6198,3.6569,3.7532,3.8252,3.8901,4.0688,4.1537,4.1686,4.1492,4.2069,4.2849,4.1842,4.2093,4.2986,4.2986,4.2986,4.2911,4.2615,4.2363,4.2087,4.1329,4.0827,4.045,4.0099,3.9848,3.9622,3.927,3.9019,3.8768,3.8391,3.7889,3.7412,3.7236,3.6958,3.6483,3.5931,3.5633,3.5282,3.46,3.4148,3.3771,3.342,3.2591,3.1788,3.126,3.1009,3.0683,3.0156,3.008,3.0005,2.9804,2.9804,2.9804,2.9804,2.9804,2.9804,2.9804,2.9804,2.9804,2.9804,2.9804,2.9804,2.9804,2.9804,2.9804,2.9804,2.9804,2.9804,2.8536,2.9355,3.0644,3.1914,3.2539,3.293,3.3301,3.3109,3.2603,3.1661,3.0799,3.0035,2.9564,2.8824,2.9082,3.1601,3.2109,3.2773,3.4434,3.4336,3.3945,3.3496,3.2734,3.2402,3.2812,3.2832,3.3184,3.4043,3.4473,3.4902,3.5391,3.5801,3.6016,3.6016,3.6016,3.6016,3.6016,3.6016,3.6016,3.6016,3.6016,3.6016,3.6016,3.6016,3.6924,3.8576,3.818,3.985,4.2766,4.1923,4.2394,4.3714,4.3187,4.2986,4.2986,4.2986,4.2986,4.2986,4.2986,4.2986,4.2986,4.2986,4.269,4.2238,4.2213,4.143,4.0576,4.0526,4.0149,3.9722,3.9697,3.9295,3.8969,3.8969,3.8467,3.7914,3.7387,3.7236,3.7036,3.6556,3.5931,3.5508,3.5508,3.4605,3.3922,3.3897,3.3445,3.2893,3.229,3.1763,3.1235,3.0708,3.0658,3.0432,2.993,2.9854,2.9829,2.9829,2.9804,2.9804,2.9804,2.9804,2.9804,2.9804,2.9804,2.9804,2.9804,2.9804,2.9804,2.9804,2.9804,2.9804,3.0221,3.1172,3.2285,3.2949,3.3184,3.3203,3.3008,3.3074,3.2781,3.1559,3.0424,2.9322,2.8164,2.7901,2.8242,2.9531,3.1367,3.3008,3.4082,3.4414,3.4375,3.3965,3.3437,3.3281,3.3711,3.3457,3.3613,3.4473,3.4629,3.5039,3.582,3.5957,3.6016,3.6016,3.6016,3.6016,3.6016,3.6016,3.6016,3.6016,3.6016,3.6016,3.6016,3.6016,3.6924,3.8642,3.9367,4.0655,4.2364,4.2919,4.3198,4.3162,4.3037,4.2986,4.2986,4.2986,4.2986,4.2986,4.2986,4.2986,4.2986,4.2986,4.2942,4.274,4.2338,4.2011,4.158,4.0752,4.0425,4.0199,3.9798,3.9597,3.9496,3.9496,3.9044,3.8617,3.8517,3.7789,3.7136,3.701,3.6207,3.5508,3.5508,3.4931,3.4374,3.3972,3.3771,3.3319,3.234,3.2089,3.1788,3.126,3.1185,3.1135,3.0984,3.0633,3.0407,3.0407,3.003,2.9804,2.9804,2.9804,2.9804,2.9804,2.9804,2.9804,2.9804,2.9804,2.9804,2.9804,2.9804,2.9804,3.1329,3.2246,3.3125,3.3359,3.3281,3.293,3.2148,3.219,3.1802,2.9838,2.8695,2.7562,2.6139,2.5953,2.6426,2.7851,3.0098,3.2226,3.3848,3.4434,3.4687,3.4648,3.4258,3.4082,3.4316,3.4121,3.4277,3.4961,3.4824,3.5,3.5703,3.5918,3.6016,3.6016,3.6016,3.6016,3.6016,3.6016,3.6016,3.6016,3.6016,3.6016,3.6016,3.6789,3.7984,3.9412,4.0869,4.2127,4.3232,4.3614,4.3614,4.3313,4.3062,4.2986,4.2986,4.2986,4.2986,4.2986,4.2986,4.2986,4.2986,4.2986,4.2986,4.2911,4.2665,4.2414,4.2087,4.1404,4.0877,4.045,4.0149,3.9873,3.9697,3.9697,3.9446,3.917,3.8969,3.8416,3.7764,3.7287,3.6483,3.5906,3.5906,3.5454,3.4931,3.4675,3.4198,3.3671,3.3043,3.2742,3.2365,3.1813,3.1763,3.1662,3.1411,3.111,3.0959,3.0959,3.0658,3.0407,3.0156,3.0156,3.003,2.9804,2.9804,2.9804,2.9804,2.9804,2.9804,2.9804,2.9804,2.9804,3.2109,3.2871,3.3437,3.3496,3.3105,3.2444,3.1328,3.1025,3.0287,2.7878,2.6626,2.5614,2.4177,2.3932,2.4611,2.6582,2.8769,3.1074,3.3633,3.4355,3.4805,3.5332,3.5039,3.4805,3.4863,3.4824,3.498,3.5449,3.5059,3.5,3.5449,3.582,3.6016,3.6016,3.6016,3.6016,3.6016,3.6016,3.6016,3.6016,3.6016,3.6016,3.6084,3.7693,3.9174,4.0397,4.1985,4.3216,4.4153,4.3801,4.3576,4.333,4.3106,4.2986,4.2986,4.2986,4.2986,4.2986,4.2986,4.2986,4.2986,4.2986,4.2986,4.2986,4.2986,4.269,4.2313,4.2238,4.148,4.0727,4.0651,4.0224,3.9798,3.9798,3.9747,3.9572,3.9094,3.8969,3.8592,3.7412,3.6832,3.648,3.643,3.5981,3.5583,3.5508,3.4726,3.4098,3.4022,3.347,3.2893,3.239,3.2315,3.2139,3.1662,3.1537,3.1486,3.1486,3.1436,3.1185,3.0733,3.0708,3.0507,3.0005,3.0005,3.0005,3.0005,3.0005,2.998,2.9905,2.9905,2.9854,3.2969,3.332,3.3516,3.3867,3.3105,3.2235,3.1791,3.0727,0.0,2.8421,2.6835,2.5264,2.3831,2.43,2.5224,2.634,2.8574,3.0976,3.3223,3.3906,3.4492,0.0,3.5332,3.541,3.5762,3.5469,3.5449,3.5879,3.5508,3.5469,3.5879,3.5976,3.6016,3.6016,3.6016,3.6016,3.6016,3.6016,3.6016,3.6016,3.6016,3.6016,3.6064,3.7319,3.8809,4.0374,4.1154,4.165,4.2024,4.2804,4.2354,4.1254,4.2538,4.2986,4.2986,4.2986,4.2986,4.2986,4.2986,4.2986,4.2986,4.2986,4.2986,4.2986,4.2986,4.2911,4.2791,4.2338,4.2062,4.1781,4.1304,4.0724,4.0375,4.0375,4.0023,3.9672,3.9572,3.9195,3.8592,3.7412,3.7111,3.6933,3.648,3.6329,3.6056,3.5583,3.5332,3.5056,3.465,3.3696,3.3043,3.2943,3.2918,3.2893,3.2792,3.234,3.2064,3.2064,3.1637,3.1361,3.126,3.126,3.121,3.111,3.111,3.111,3.111,3.111,3.0884,3.0482,3.0482,3.0231,3.4735,3.4206,3.3535,3.3965,3.2773,3.1328,3.0608,0.0,0.0,2.6806,2.5627,2.4496,2.3282,2.4034,2.4914,2.5022,2.7231,2.9684,3.1798,3.2676,3.3652,3.5215,3.5586,3.5801,3.5996,3.584,3.5801,3.5996,3.584,3.5801,3.6016,3.6016,3.6016,3.6016,3.6016,3.6016,3.6016,3.6016,3.6016,3.6016,3.6016,3.6016,3.6064,3.818,3.9401,3.9993,4.1769,4.2421,4.2266,4.2781,4.2569,4.1923,4.3006,4.3413,4.3413,4.3413,4.3413,4.3363,4.3087,4.2986,4.2986,4.2986,4.2986,4.2986,4.2986,4.2986,4.2911,4.2715,4.2439,4.2137,4.1831,4.1354,4.0877,4.0576,4.0099,3.9697,3.9697,3.927,3.8768,3.8165,3.7814,3.7437,3.6885,3.6832,3.6609,3.6056,3.5683,3.5408,3.5132,3.4424,3.3822,3.3545,3.3244,3.3111,3.3111,3.2817,3.2667,3.2667,3.2416,3.2139,3.1838,3.1813,3.1687,3.1411,3.1386,3.1386,3.1386,3.1386,3.126,3.1009,3.1009,3.0884,3.5996,3.4916,3.3496,3.3848,3.2568,3.0837,2.9622,2.8287,2.6851,2.5312,2.4438,2.3718,2.2813,2.3626,2.4415,2.428,2.6114,2.8288,3.0611,3.1604,3.2793,3.4863,3.5566,0.0,3.6016,3.6016,3.6016,3.6016,3.6016,3.6016,3.6016,3.6016,3.6016,3.6016,3.6016,3.6016,3.6016,3.6016,3.6016,3.6016,3.6016,3.6219,3.6654,3.9024,4.0101,4.0211,4.2574,4.3194,4.2513,4.2849,4.2793,4.2562,4.3475,4.374,4.3639,4.3765,4.374,4.3564,4.3137,4.2986,4.2986,4.2986,4.2986,4.2986,4.2986,4.2986,4.2986,4.2986,4.2715,4.2389,4.2389,4.1932,4.1354,4.0676,4.0199,3.9848,3.9722,3.9346,3.907,3.8944,3.8492,3.8015,3.7462,3.7262,3.7036,3.6656,3.6081,3.5683,3.5683,3.5182,3.4726,3.4299,3.3746,3.3395,3.3269,3.3244,3.3194,3.3136,3.3111,3.2867,3.2416,3.239,3.219,3.1763,3.1738,3.1738,3.1738,3.1738,3.1687,3.1562,3.1562,3.1512,3.5559,3.461,3.3437,3.3476,3.2734,3.1662,3.0313,0.0,2.6688,2.5728,2.4272,2.3078,2.2599,2.3253,2.4315,2.5687,2.6271,2.7613,3.073,3.1399,3.2226,3.3984,0.0,0.0,3.5976,3.6016,3.6016,3.6016,3.6016,3.6016,3.6016,3.6016,3.6016,3.6016,3.6016,3.6016,3.6016,3.6016,3.6016,3.6016,3.6016,3.6789,3.8378,3.9187,4.0402,4.1934,4.2725,4.2256,4.0937,4.2375,4.215,4.1009,4.3027,4.3489,4.3112,4.3614,4.3489,4.3037,4.2986,4.2986,4.2986,4.2986,4.2986,4.2986,4.2986,4.2986,4.2986,4.2986,4.2936,4.2911,4.2911,4.2484,4.1806,4.0777,4.0475,4.03,3.9798,3.9647,3.9471,3.8969,3.8869,3.8617,3.804,3.7513,3.7161,3.7111,3.6681,3.6329,3.6329,3.5805,3.5408,3.5357,3.4856,3.4374,3.3872,3.3822,3.3621,3.3119,3.3111,3.3086,3.2993,3.2993,3.2968,3.2918,3.2918,3.2918,3.2918,3.2918,3.2641,3.2139,3.2139,3.1863,3.6568,3.5273,3.3418,3.3418,3.2512,3.1303,2.9916,2.8019,2.6277,2.5294,2.4023,2.3049,2.288,2.3007,2.3386,2.4164,2.4228,0.0,2.7573,2.841,2.9824,3.2598,3.3691,3.4687,3.5898,3.6016,3.6016,3.6016,3.6016,3.6016,3.6016,3.6016,3.6016,3.6016,3.6016,3.6016,3.6016,3.6016,3.5898,3.5644,3.5644,3.587,3.6345,3.8263,3.9498,4.0264,4.2185,4.2093,4.0707,4.2319,4.2012,4.0813,4.297,4.3664,4.3489,4.3714,4.3664,4.3413,4.3087,4.2986,4.2986,4.2986,4.2986,4.2986,4.2986,4.2986,4.2986,4.2986,4.2986,4.2986,4.2986,4.2615,4.2112,4.1605,4.1003,4.045,4.0249,3.9923,3.9622,3.9396,3.9371,3.9195,3.8617,3.8341,3.7965,3.7287,3.6985,3.6782,3.6455,3.6182,3.6031,3.6031,3.5253,3.4625,3.4399,3.4399,3.4148,3.3596,3.3571,3.342,3.3093,3.3111,3.3111,3.3111,3.3111,3.3111,3.3111,3.3111,3.3011,3.2742,3.2742,3.2616,3.719,3.6096,3.4289,3.3963,3.3006,3.1685,2.9916,2.7995,2.6275,2.5037,2.3898,2.3095,2.3095,2.3083,2.3147,2.34,2.3351,2.3886,2.5732,2.6586,2.8105,3.1055,3.2148,3.3359,3.5078,3.5723,3.6016,3.6016,3.6016,3.6219,3.6742,3.6789,3.6539,3.6016,3.6016,3.6016,3.6016,3.6539,3.6589,3.6084,3.615,3.6153,3.6251,3.808,3.9145,3.9785,4.203,4.2093,4.0707,4.2319,4.2012,4.0813,4.297,4.3689,4.3589,4.374,4.3689,4.3514,4.3112,4.2986,4.2986,4.2986,4.2986,4.2986,4.2986,4.2986,4.2986,4.2986,4.2986,4.2986,4.2986,4.274,4.2414,4.2263,4.1609,4.0902,4.0576,4.0199,3.9898,3.9722,3.9697,3.9572,3.917,3.902,3.8642,3.7789,3.7538,3.7236,3.6732,3.6656,3.6581,3.643,3.568,3.5152,3.4931,3.4931,3.4726,3.4173,3.4148,3.3972,3.3571,3.3395,3.3319,3.3319,3.3169,3.3111,3.3111,3.3111,3.3111,3.3111,3.3111,3.3111,3.7003,3.692,3.6315,3.5335,3.4491,3.3288,3.0613,2.8615,2.6816,2.5126,2.3898,2.3095,2.3095,2.3572,2.4013,2.4168,2.4391,0.0,2.6505,2.6861,2.7656,2.945,3.0371,3.1582,3.3281,3.5,3.6016,3.6016,3.6016,3.6722,3.8465,3.8531,3.7775,3.6084,3.6016,3.6016,3.6016,3.7709,3.8301,3.7796,3.784,3.8487,3.9618,3.9126,3.9808,4.1412,4.2567,4.2093,4.0707,4.2319,4.2012,4.0813,4.297,4.3463,4.3062,4.3589,4.3463,4.2986,4.2986,4.2986,4.2986,4.2986,4.2986,4.2986,4.2986,4.2986,4.2986,4.2986,4.2986,4.2986,4.2986,4.2961,4.2891,4.2338,4.2213,4.1886,4.0752,4.0501,4.035,3.9798,3.9697,3.9697,3.9697,3.922,3.8919,3.8894,3.8366,3.7789,3.7236,3.7186,3.696,3.6455,3.6405,3.6132,3.5533,3.5483,3.5257,3.4751,3.468,3.468,3.4655,3.4173,3.3897,3.3897,3.3345,3.3111,3.3111,3.3111,3.3111,3.3111,3.3111,3.3111,3.4066,3.4119,3.3533,3.2561,3.2286,3.1597,2.8977,2.7815,2.6716,2.4682,2.3622,2.3095,2.3095,2.2819,2.3119,2.485,2.4737,2.4864,2.6246,2.7241,2.8644,3.0975,3.3852,3.5524,3.5183,3.5703,3.6016,3.6016,3.7126,3.8021,3.8531,3.9693,4.0148,3.9562,3.9562,3.9562,3.9562,4.0083,4.0101,3.9618,3.9289,3.9184,3.9225,3.9831,4.0364,4.0946,4.2393,4.2093,4.0707,4.2319,4.2012,4.0789,4.2574,4.3137,4.3011,4.3162,4.3137,4.2986,4.2986,4.2986,4.2986,4.2986,4.2986,4.2986,4.2986,4.2986,4.2986,4.2986,4.2986,4.2986,4.2986,4.2986,4.2936,4.2816,4.2489,4.2112,4.1706,4.1053,4.0475,4.03,3.9948,3.9697,3.9697,3.9546,3.9295,3.8969,3.8718,3.8391,3.7814,3.7412,3.7111,3.6935,3.6631,3.6329,3.6107,3.6107,3.5881,3.5282,3.5232,3.5082,3.4751,3.455,3.4449,3.4449,3.3922,3.3646,3.3646,3.3269,3.3111,3.3111,3.3111,3.3111,3.2415,3.3196,3.3102,3.2293,3.1781,3.086,2.8603,2.7324,2.6138,2.4356,2.3521,2.3095,2.3095,2.2604,2.271,2.4188,2.4361,2.472,2.585,2.7116,2.8736,3.1072,3.4063,3.5759,3.5281,3.5742,3.6016,3.6016,3.7642,3.8861,3.9583,4.1245,4.2454,4.3107,4.1884,4.1181,4.1181,4.182,4.1885,4.1381,4.0938,4.0433,3.9905,4.0422,4.0592,4.0707,4.2319,4.2093,0.0,4.2319,4.2012,4.0765,4.2375,4.2986,4.2986,4.2986,4.2986,4.2986,4.2986,4.2986,4.2986,4.2986,4.2986,4.2986,4.2986,4.2986,4.2986,4.2986,4.2986,4.2986,4.2986,4.2986,4.2986,4.2986,4.271,4.2464,4.2263,4.163,4.1003,4.0601,4.0249,3.9948,3.9722,3.9697,3.9572,3.922,3.917,3.8969,3.8391,3.804,3.7739,3.7513,3.701,3.6732,3.6732,3.6531,3.6254,3.5881,3.5855,3.5705,3.5353,3.5152,3.4981,3.4981,3.45,3.4198,3.4198,3.3872,3.3696,3.3696,3.3696,3.3696,0.0,3.3345,3.4073,3.3545,3.2215,3.0608,2.8963,2.7017,0.0,2.4155,2.3471,2.312,2.3221,2.2945,2.271,2.29,2.3825,2.4828,2.5641,2.7035,2.8661,3.0608,3.2295,3.3658,3.4507,3.5559,3.6219,3.6336,3.7955,3.9693,4.1309,4.2958,4.462,4.624,4.3232,4.1565,4.1565,4.3083,4.3593,4.3068,4.2688,4.2138,4.1529,4.1004,4.0765,4.0822,4.2375,4.215,4.0904,4.2375,4.215,4.0937,4.2432,4.2986,4.2986,4.2986,4.2986,4.2986,4.2986,4.2986,4.2986,4.2986,4.2986,4.2986,4.2986,4.2986,4.2986,4.2986,4.2986,4.2986,4.2986,4.2986,4.2986,4.2986,4.2986,4.2836,4.2389,4.2238,4.1911,4.0827,4.0601,4.04,3.9848,3.9747,3.9747,3.9697,3.9697,3.9521,3.9045,3.8944,3.8668,3.8115,3.7563,3.7236,3.7236,3.6757,3.6405,3.6405,3.6405,3.6405,3.6405,3.5881,3.5558,3.5558,3.5006,3.4731,3.468,3.468,3.468,3.468,3.468,3.468,2.6967,0.0,2.9001,2.8875,2.8259,2.7329,0.0,2.5352,2.465,2.3547,2.3195,2.3371,2.4224,2.3369,2.3469,2.6311,2.6769,2.6853,2.7158,3.0782,3.4267,3.6669,3.7885,3.8779,3.9452,3.8606,3.8531,3.9888,4.1565,4.2706,4.3083,4.4767,4.5853,4.6301,4.555,4.5098,4.5098,4.5464,4.5399,4.4913,4.4342,4.3796,4.3226,4.268,4.2432,4.2432,4.2849,4.2793,4.2432,4.2849,4.2793,4.2488,4.2849,4.2986,4.2986,4.2986,4.2986,4.2986,4.2986,4.2986,4.2986,4.2986,4.2986,4.2986,4.2986,4.2986,4.2986,4.2986,4.2986,4.2986,4.2986,4.2986,4.2986,4.2986,4.2986,4.2936,4.2811,4.2514,4.2137,4.1861,4.143,4.0924,4.0425,4.0325,4.0174,3.9747,3.9697,3.9647,3.9521,3.912,3.8869,3.8668,3.8165,3.7814,3.7814,3.691,3.6405,3.6405,3.6405,3.6405,3.6405,3.6279,3.6182,3.6182,3.5629,3.5107,3.468,3.468,3.468,3.468,3.468,3.468,2.4707,2.6239,2.767,2.767,2.7278,2.665,2.5762,2.4983,2.4173,2.3271,2.3095,2.3371,2.428,2.362,2.3676,2.5871,2.6989,2.8005,2.9414,3.2134,3.5015,3.7597,3.8017,3.8852,4.1008,3.9627,3.9322,4.1052,4.2769,4.3731,4.3731,4.5342,4.6301,4.6301,4.6075,4.5924,4.5924,4.5924,4.5648,4.507,4.4518,4.4091,4.379,4.3237,4.2986,4.2986,4.2986,4.2986,4.2986,4.2986,4.2986,4.2986,4.2986,4.2986,4.2986,4.2986,4.2986,4.2986,4.2986,4.2986,4.2986,4.2986,4.2986,4.2986,4.2986,4.2986,4.2986,4.2986,4.2986,4.2986,4.2986,4.2986,4.2986,4.2986,4.2986,4.2986,4.2986,4.2791,4.2514,4.2263,4.1907,4.153,4.0924,4.0902,4.0701,4.0149,4.0074,3.9973,3.9722,3.9421,3.9245,3.9245,3.8743,3.8391,3.8391,3.7613,3.701,3.6807,3.6556,3.6405,3.6405,3.6405,3.6405,3.6405,3.6081,3.578,3.5479,3.5479,3.5479,3.5479,3.5479,3.5479,2.4054,2.6063,2.7921,2.767,2.7318,2.6927,2.6373,2.5134,2.3979,2.3471,2.3371,2.3597,2.4356,2.4016,2.3904,2.4837,2.6681,2.9141,3.2547,3.3236,3.4514,3.7566,3.6949,3.7805,4.1583,4.0148,3.9801,4.1706,4.3177,4.3959,4.3802,4.5217,4.605,4.605,4.5598,4.5321,4.5221,4.5321,4.507,4.4493,4.4016,4.3765,4.3664,4.3187,4.2986,4.2986,4.2986,4.2986,4.2986,4.2986,4.2986,4.2986,4.2986,4.2986,4.2986,4.2986,4.2986,4.2986,4.2986,4.2986,4.2986,4.2986,4.2986,4.2986,4.2986,4.2986,4.2986,4.2986,4.2986,4.2986,4.2986,4.2986,4.2986,4.2986,4.2986,4.2986,4.2986,4.2986,4.2891,4.2414,4.2338,4.2108,4.1555,4.1455,4.1279,4.0727,4.0576,4.035,3.9873,3.9747,3.9697,3.9697,3.927,3.9045,3.9045,3.8467,3.7939,3.7462,3.6883,3.6505,3.6405,3.6405,3.6405,3.6405,3.6405,3.6405,3.6405,3.6405,3.6405,3.6405,3.6405,3.6405,2.4933,2.6364,2.7067,2.5686,2.5586,2.5711,2.5184,2.485,2.465,2.455,2.4525,2.4976,2.6515,2.5205,2.5171,2.8963,2.9574,3.162,3.7657,3.7372,3.8263,4.2866,4.1591,4.1665,4.5159,4.2643,4.1891,4.4642,4.5097,4.5017,4.446,4.4694,4.4895,4.4895,4.4794,4.4543,4.4066,4.4518,4.4468,4.3915,4.384,4.3564,4.3112,4.3011,4.2986,4.2986,4.2986,4.2986,4.2986,4.2986,4.2986,4.2986,4.2986,4.2986,4.2986,4.2986,4.2986,4.2986,4.2986,4.2986,4.2986,4.2986,4.2986,4.2986,4.2986,4.2986,4.2986,4.2986,4.2986,4.2986,4.2986,4.2986,4.2986,4.2986,4.2986,4.2986,4.2986,4.2986,4.2961,4.2861,4.2861,4.2685,4.2187,4.2087,4.1831,4.125,4.0802,4.0475,4.04,3.9973,3.9697,3.9697,3.9622,3.9572,3.9572,3.9069,3.8743,3.8617,3.7687,3.6883,3.643,3.6405,3.6405,3.6405,3.6405,3.6405,3.6405,3.6405,3.6405,3.6405,3.6405,3.6405,2.4023,2.5285,2.6264,2.5812,2.6565,2.7243,2.6716,2.6138,2.5711,2.5711,2.5711,2.6038,2.7092,2.72,2.8211,3.1443,3.1263,3.2236,3.6888,3.7504,3.8559,4.1565,4.0392,4.0826,4.4535,4.2388,4.2071,4.526,4.5196,4.4895,4.4644,4.4618,4.4618,4.4618,4.4342,4.4066,4.379,4.3765,4.3614,4.3363,4.3363,4.3212,4.2986,4.2986,4.2986,4.2986,4.2986,4.2986,4.2986,4.2986,4.2986,4.2986,4.2986,4.2986,4.2986,4.2986,4.2986,4.2986,4.2986,4.2986,4.2986,4.2986,4.2986,4.2986,4.2986,4.2986,4.2986,4.2986,4.2986,4.2986,4.2986,4.2986,4.2986,4.2986,4.2986,4.2986,4.2986,4.2986,4.2986,4.2986,4.2986,4.2886,4.269,4.2665,4.2464,4.1856,4.1555,4.1304,4.1003,4.0475,4.0149,4.0149,3.9873,3.9697,3.9697,3.9471,3.9044,3.8442,3.7914,3.7387,3.6835,3.6857,3.6707,3.6405,3.6405,3.6405,3.6405,3.6405,3.6405,3.6405,3.6405,3.6405,2.3973,2.4933,2.5963,2.67,2.7695,2.8574,2.8674,2.7846,2.7178,2.758,2.7555,2.763,2.8147,2.9729,3.1494,3.3146,3.3038,3.3646,3.6297,3.7622,3.8608,3.9427,3.8779,3.9469,4.2498,4.1217,4.1399,4.4339,4.4436,4.4367,4.4242,4.4242,4.4242,4.4242,4.384,4.3614,4.3614,4.3187,4.2986,4.2986,4.2986,4.2986,4.2986,4.2986,4.2986,4.2986,4.2986,4.2986,4.2986,4.2986,4.2986,4.2986,4.2986,4.2986,4.2986,4.2986,4.2986,4.2986,4.2986,4.2986,4.2986,4.2986,4.2986,4.2986,4.2986,4.2986,4.2986,4.2986,4.2986,4.2986,4.2986,4.2986,4.2986,4.2986,4.2986,4.2986,4.2986,4.2986,4.2986,4.2986,4.2986,4.2986,4.2986,4.2986,4.2836,4.2464,4.2288,4.2062,4.158,4.1053,4.0651,4.0526,4.0149,3.9848,3.9697,3.9697,3.932,3.8442,3.814,3.7814,3.7387,3.7387,3.7111,3.6606,3.6606,3.6531,3.6405,3.6405,3.6405,3.6405,3.6405,3.6405,2.6565,2.6725,2.6675,2.772,2.7695,2.7921,2.998,2.9515,2.9176,3.0708,3.0658,3.0482,3.1009,3.2893,3.4296,3.4142,3.5759,3.7642,3.9249,4.0131,4.0177,3.9183,3.9333,3.9707,4.014,3.9893,4.0304,4.1578,4.3037,4.3639,4.3112,4.3087,4.3087,4.3087,4.3062,4.3037,4.3037,4.2986,4.2986,4.2986,4.2986,4.2986,4.2986,4.2986,4.2986,4.2986,4.2986,4.2986,4.2986,4.2986,4.2986,4.2986,4.2986,4.2986,4.2986,4.2986,4.2986,4.2986,4.2986,4.2986,4.2986,4.2986,4.2986,4.2986,4.2986,4.2986,4.2986,4.2986,4.2986,4.2986,4.2986,4.2986,4.2986,4.2986,4.2986,4.2986,4.2986,4.2986,4.2986,4.2986,4.2986,4.2986,4.2986,4.2986,4.2961,4.2936,4.2539,4.2187,4.2162,4.1605,4.1025,4.0576,4.0475,4.0249,3.9747,3.9697,3.9647,3.9572,3.8592,3.799,3.7939,3.7939,3.7688,3.7136,3.7136,3.6933,3.6405,3.6405,3.6405,3.6405,3.6405,3.6405,2.5059,2.5586,2.6264,2.7745,2.8473,2.9252,3.0758,3.1311,3.1888,3.3194,3.3319,3.3219,3.342,3.3949,3.4654,3.5479,3.7227,3.8935,4.0116,4.0531,4.0258,3.9077,3.8222,3.7881,3.8224,3.8856,3.9833,4.1259,4.2585,4.3187,4.2986,4.2986,4.2986,4.2986,4.2986,4.2986,4.2986,4.2986,4.2986,4.2986,4.2986,4.2986,4.2986,4.2986,4.2986,4.2986,4.2986,4.2986,4.2986,4.2986,4.2986,4.2986,4.2986,4.2986,4.2986,4.2986,4.2986,4.2986,4.2986,4.2986,4.2986,4.2986,4.2986,4.2986,4.2986,4.2986,4.2986,4.2986,4.2986,4.2986,4.2986,4.2986,4.2986,4.2986,4.2986,4.2986,4.2986,4.2986,4.2986,4.2986,4.2986,4.2986,4.2986,4.2986,4.2986,4.2986,4.2866,4.2715,4.2715,4.2183,4.1756,4.1555,4.0927,4.0425,4.0224,3.9898,3.9697,3.9697,3.9295,3.8894,3.8567,3.8542,3.8291,3.7713,3.7688,3.7412,3.6933,3.7211,3.7211,3.6933,3.7236,3.7387,2.4356,2.4908,2.5912,2.7243,2.8825,3.0432,3.1863,3.2792,3.3796,3.5429,3.5479,3.509,3.465,3.4771,3.5328,3.6668,3.8521,3.9985,4.0507,4.1019,4.0677,3.8875,3.8133,3.7776,3.7584,3.8736,3.9936,4.108,4.229,4.2986,4.2986,4.2986,4.2986,4.2986,4.2986,4.2986,4.2986,4.2986,4.2986,4.2986,4.2986,4.2986,4.2986,4.2986,4.2986,4.2986,4.2986,4.2986,4.2986,4.2986,4.2986,4.2986,4.2986,4.2986,4.2986,4.2986,4.2986,4.2986,4.2986,4.2986,4.2986,4.2986,4.2986,4.2986,4.2986,4.2986,4.2986,4.2986,4.2986,4.2986,4.2986,4.2986,4.2986,4.2986,4.2986,4.2986,4.2986,4.2986,4.2986,4.2986,4.2986,4.2986,4.2986,4.2986,4.2986,4.2986,4.2986,4.2986,4.2986,4.2715,4.2414,4.2238,4.1178,4.0526,4.0526,4.0023,3.9697,3.9697,3.9697,3.9521,3.9145,3.912,3.8868,3.8291,3.8291,3.8015,3.7437,3.7814,3.7814,3.7462,3.7839,3.8015,2.5109,2.5209,2.5737,2.6373,2.8574,3.121,3.342,3.3922,3.4726,3.7462,3.7161,3.6051,3.4702,3.5548,3.6699,3.7589,3.9726,4.1136,4.0679,4.1955,4.1785,3.858,3.9639,3.9931,3.8342,3.9639,4.0592,4.0592,4.2069,4.2986,4.2986,4.2986,4.2986,4.2986,4.2986,4.2986,4.2986,4.2986,4.2986,4.2986,4.2986,4.2986,4.2986,4.2986,4.2986,4.2986,4.2986,4.2986,4.2986,4.2986,4.2986,4.2986,4.2986,4.2986,4.2986,4.2986,4.2986,4.2986,4.2986,4.2986,4.2986,4.2986,4.2986,4.2986,4.2986,4.2986,4.2986,4.2986,4.2986,4.2986,4.2986,4.2986,4.2986,4.2986,4.2986,4.2986,4.2986,4.2986,4.2986,4.2986,4.2986,4.2986,4.2986,4.2986,4.2986,4.2986,4.2986,4.2986,4.2986,4.2986,4.2816,4.2263,4.1178,4.0526,4.0526,4.0023,3.9697,3.9697,3.9697,3.9697,3.9697,3.9697,3.9446,3.8944,3.8919,3.8592,3.8015,3.8015,3.8015,3.8015,3.8015,3.8015,2.3998,2.4883,2.6549,2.7871,3.0583,3.3395,3.5273,3.6232,3.7462,3.9848,3.9471,3.8467,3.7742,3.7867,3.8367,3.9032,4.0336,4.1543,4.2171,4.1728,4.0961,3.9989,3.9288,3.8698,3.8223,3.9639,4.0592,4.0592,4.2069,4.2986,4.2986,4.2986,4.2986,4.2986,4.2986,4.2986,4.2986,4.2986,4.2986,4.2986,4.2986,4.2986,4.2986,4.2986,4.2986,4.2986,4.2986,4.2986,4.2986,4.2986,4.2986,4.2986,4.2986,4.2986,4.2986,4.2986,4.2986,4.3037,4.3413,4.3564,4.3614,4.4016,4.3865,4.3564,4.3564,4.3288,4.2986,4.2986,4.2986,4.2986,4.2986,4.2986,4.2986,4.2986,4.2986,4.2986,4.2986,4.2986,4.2986,4.2986,4.2986,4.2986,4.2986,4.2986,4.2986,4.2986,4.2986,4.2986,4.2986,4.2986,4.2911,4.2816,4.2137,4.1505,4.1075,4.0601,4.0099,3.9722,3.9697,3.9697,3.9697,3.9697,3.9622,3.9446,3.9446,3.917,3.8617,3.8994,3.8994,3.8617,3.9019,3.9195,2.485,2.5912,2.7605,2.9428,3.1913,3.4575,3.7159,3.8366,3.932,4.045,4.0149,3.9521,3.902,3.8668,3.8868,3.9848,4.0752,4.1731,4.2811,4.215,4.1533,4.1533,4.0707,4.0129,4.0129,4.0961,4.1533,4.1533,4.2432,4.2986,4.2986,4.2986,4.2986,4.2986,4.2986,4.2986,4.2986,4.2986,4.2986,4.2986,4.2986,4.2986,4.2986,4.2986,4.2986,4.2986,4.2986,4.2986,4.2986,4.2986,4.2986,4.2986,4.2986,4.2986,4.2986,4.2986,4.2986,4.3062,4.3614,4.379,4.389,4.4443,4.4242,4.379,4.379,4.3413,4.2986,4.2986,4.2986,4.2986,4.2986,4.2986,4.2986,4.2986,4.2986,4.2986,4.2986,4.2986,4.2986,4.2986,4.2986,4.2986,4.2986,4.2986,4.2986,4.2986,4.2986,4.2986,4.2986,4.2986,4.2986,4.2986,4.2539,4.2062,4.1681,4.1153,4.0601,4.0049,4.0023,3.9923,3.9697,3.9697,3.9697,3.9697,3.9697,3.9521,3.9195,3.9521,3.9521,3.922,3.9546,3.9697,2.6615,2.762,2.8775,3.0934,3.2867,3.5228,3.8868,4.0124,4.04,3.9948,3.9798,3.9622,3.917,3.8542,3.8668,4.0249,4.0924,4.1706,4.276,4.2936,4.2986,4.2986,4.2986,4.2986,4.2986,4.2986,4.2986,4.2986,4.2986,4.2986,4.2986,4.2986,4.2986,4.2986,4.2986,4.2986,4.2986,4.2986,4.2986,4.2986,4.2986,4.2986,4.2986,4.2986,4.2986,4.2986,4.2986,4.2986,4.2986,4.2986,4.2986,4.2986,4.2986,4.2986,4.2986,4.2986,4.2986,4.3062,4.3664,4.3865,4.3966,4.4518,4.4367,4.394,4.384,4.3438,4.3037,4.2986,4.2986,4.2986,4.2986,4.2986,4.2986,4.2986,4.2986,4.2986,4.2986,4.2986,4.2986,4.2986,4.2986,4.2986,4.2986,4.2986,4.2986,4.2986,4.2986,4.2986,4.2986,4.2986,4.2986,4.2986,4.259,4.2263,4.2213,4.1706,4.1125,4.0626,4.0601,4.035,3.9798,3.9722,3.9697,3.9697,3.9697,3.9697,3.9697,3.9697,3.9697,3.9697,3.9826,3.9878,2.4833,2.7017,2.9854,3.1587,3.46,3.7563,3.9295,4.0124,4.0601,4.0874,4.0651,4.03,4.0199,3.9697,3.9597,4.0375,4.0924,4.158,4.2288,4.271,4.2986,4.2986,4.2986,4.2986,4.2986,4.2986,4.2986,4.2986,4.2986,4.2986,4.2986,4.2986,4.2986,4.2986,4.2986,4.2986,4.2986,4.2986,4.2986,4.2986,4.2986,4.2986,4.2986,4.2986,4.2986,4.2986,4.2986,4.2986,4.2986,4.2986,4.2986,4.2986,4.2986,4.2986,4.2986,4.2986,4.2986,4.3112,4.4116,4.4443,4.4543,4.5121,4.5221,4.497,4.4066,4.3714,4.3539,4.3112,4.2986,4.2986,4.2986,4.2986,4.2986,4.2986,4.2986,4.2986,4.2986,4.2986,4.2986,4.2986,4.2986,4.2986,4.2986,4.2986,4.2986,4.2986,4.2986,4.2986,4.2986,4.2986,4.2986,4.2986,4.2861,4.269,4.2238,4.2112,4.1756,4.115,4.11,4.0902,4.035,3.9923,3.9697,3.9697,3.9697,3.9697,3.9697,3.9697,3.9697,3.9749,4.0743,4.1169,2.6013,2.8222,3.0884,3.3847,3.6307,3.8291,3.9446,3.9923,4.0199,4.0501,4.0526,4.0425,4.0174,3.9898,3.9873,4.0425,4.0752,4.1128,4.1681,4.2007,4.2183,4.2183,4.2183,4.2183,4.2183,4.2434,4.264,4.264,4.2836,4.2986,4.2986,4.2986,4.2986,4.2986,4.2986,4.2986,4.2986,4.2986,4.2986,4.2986,4.2986,4.2986,4.2986,4.2986,4.2986,4.2986,4.2986,4.2986,4.2986,4.2986,4.2986,4.2986,4.2986,4.2986,4.2986,4.2986,4.2986,4.3112,4.394,4.4242,4.4317,4.4895,4.4895,4.4568,4.3991,4.3614,4.3338,4.3062,4.2986,4.2986,4.2986,4.2986,4.2986,4.2986,4.2986,4.2986,4.2986,4.2986,4.2986,4.2986,4.2986,4.2986,4.2986,4.2986,4.2986,4.2986,4.2986,4.2986,4.2986,4.2986,4.2986,4.2986,4.2986,4.2861,4.264,4.2615,4.2308,4.1756,4.1731,4.148,4.0874,4.0626,4.0224,3.9697,3.9697,3.9697,3.9697,3.9697,3.9697,3.9749,4.0364,4.0693,2.7007,2.9264,3.1763,3.5981,3.7462,3.8165,3.9295,3.9546,3.9572,3.9672,4.0049,4.0249,3.9772,3.9697,3.9848,4.03,4.045,4.0676,4.1075,4.1225,4.1275,4.1275,4.1275,4.1275,4.1275,4.1756,4.2062,4.2062,4.2434,4.2685,4.2685,4.2685,4.2685,4.2685,4.2785,4.2836,4.2836,4.2936,4.2986,4.2986,4.2986,4.2986,4.2986,4.2986,4.2986,4.2986,4.2986,4.2986,4.2986,4.2986,4.2986,4.2986,4.2986,4.2986,4.2986,4.2986,4.2986,4.3062,4.3614,4.379,4.3865,4.4342,4.4242,4.3915,4.3714,4.3413,4.3112,4.3011,4.2986,4.2986,4.2986,4.2986,4.2986,4.2986,4.2986,4.2986,4.2986,4.2986,4.2986,4.2986,4.2986,4.2986,4.2986,4.2986,4.2986,4.2986,4.2986,4.2986,4.2986,4.2986,4.2986,4.2986,4.2986,4.2986,4.2986,4.2986,4.2841,4.2389,4.2363,4.2057,4.1505,4.148,4.1003,3.9998,3.9898,3.9798,3.9697,3.9697,3.9697,3.9697,3.9929,4.0032,2.3722,2.7519,3.2114,3.5629,3.691,3.7588,3.8718,3.902,3.912,3.9597,3.9747,3.9772,3.9697,3.9697,3.9722,3.9798,4.0199,4.0551,4.0626,4.0974,4.1275,4.1275,4.1275,4.1275,4.1275,4.1351,4.1401,4.1401,4.1505,4.1501,4.1501,4.1501,4.1501,4.1501,4.2007,4.2313,4.2313,4.2791,4.2986,4.2986,4.2986,4.2986,4.2986,4.2986,4.2986,4.2986,4.2986,4.2986,4.2986,4.2986,4.2986,4.2986,4.2986,4.2986,4.2986,4.2986,4.2986,4.3062,4.3614,4.379,4.3815,4.389,4.4192,4.4342,4.3388,4.3363,4.3589,4.3112,4.2986,4.2986,4.2986,4.2986,4.2986,4.2986,4.2986,4.2986,4.2986,4.2986,4.2986,4.2986,4.2986,4.2986,4.2986,4.2986,4.2986,4.2986,4.2986,4.2986,4.2986,4.2986,4.2986,4.2986,4.2986,4.2986,4.2986,4.2986,4.2936,4.2861,4.2861,4.2665,4.2112,4.2112,4.1756,4.1075,4.0651,4.0174,3.9697,3.9697,3.9697,3.9749,4.0844,4.1369,2.5578,2.8825,3.219,3.5554,3.6606,3.7059,3.814,3.8391,3.8442,3.8693,3.9019,3.932,3.9647,3.9697,3.9697,3.9697,3.9898,4.0049,4.0049,4.0249,4.0425,4.0425,4.0425,4.0425,4.0425,4.0701,4.0824,4.0824,4.1125,4.1275,4.1275,4.1275,4.1275,4.1275,4.158,4.1706,4.1706,4.2233,4.2715,4.2986,4.2986,4.2986,4.2986,4.2986,4.2986,4.2986,4.2986,4.2986,4.2986,4.2986,4.2986,4.2986,4.2986,4.2986,4.2986,4.2986,4.2986,4.3011,4.3263,4.3338,4.3338,4.3338,4.3514,4.3614,4.3112,4.3137,4.3288,4.3037,4.2986,4.2986,4.2986,4.2986,4.2986,4.2986,4.2986,4.2986,4.2986,4.2986,4.2986,4.2986,4.2986,4.2986,4.2986,4.2986,4.2986,4.2986,4.2986,4.2986,4.2986,4.2986,4.2986,4.2986,4.2986,4.2986,4.2986,4.2986,4.2986,4.2986,4.2986,4.2861,4.269,4.2665,4.2359,4.1806,4.0953,4.04,4.0149,3.9848,3.9697,3.9697,4.0262,4.0567,2.6389,2.8775,3.0708,3.4117,3.5374,3.6078,3.7136,3.7487,3.7688,3.7939,3.8341,3.8768,3.9195,3.9496,3.9697,3.9697,3.9697,3.9697,3.9697,3.9697,3.9697,3.9697,3.9697,3.9697,3.9697,4.0074,4.03,4.03,4.0701,4.0874,4.0874,4.0874,4.0874,4.0874,4.1,4.1075,4.1075,4.1806,4.2414,4.2816,4.2911,4.2986,4.2986,4.2986,4.2986,4.2986,4.2986,4.2986,4.2986,4.2986,4.2986,4.2986,4.2986,4.2986,4.2986,4.2986,4.2986,4.2986,4.2986,4.2986,4.2986,4.2986,4.2986,4.2986,4.2986,4.2986,4.2986,4.2986,4.2986,4.2986,4.2986,4.2986,4.2986,4.2986,4.2986,4.2986,4.2986,4.2986,4.2986,4.2986,4.2986,4.2986,4.2986,4.2986,4.2986,4.2986,4.2986,4.2986,4.2986,4.2986,4.2986,4.2986,4.2986,4.2986,4.2986,4.2986,4.2986,4.2986,4.2986,4.2986,4.2986,4.2986,4.2841,4.2414,4.143,4.0877,4.0727,4.0174,3.9898,3.9898,3.9747,3.9697,2.3175,2.5059,2.6716,3.008,3.2491,3.4324,3.5382,3.606,3.6784,3.7789,3.804,3.8065,3.809,3.8969,3.9697,3.9697,3.9697,3.9697,3.9697,3.9697,3.9697,3.9697,3.9697,3.9697,3.9697,3.9722,3.9747,3.9747,3.9772,3.9772,3.9772,3.9772,3.9772,3.9772,4.03,4.0551,4.0551,4.163,4.2213,4.2263,4.2791,4.2986,4.2986,4.2986,4.2986,4.2986,4.2986,4.2986,4.2986,4.2986,4.2986,4.2986,4.2986,4.2986,4.2986,4.2986,4.2986,4.2986,4.2986,4.2986,4.2986,4.2986,4.2986,4.2986,4.2986,4.2986,4.2986,4.2986,4.2986,4.2986,4.2986,4.2986,4.2986,4.2986,4.2986,4.2986,4.2986,4.2986,4.2986,4.2986,4.2986,4.2986,4.2986,4.2986,4.2986,4.2986,4.2986,4.2986,4.2986,4.2986,4.2986,4.2986,4.2986,4.2986,4.2986,4.2986,4.2986,4.2986,4.2986,4.2986,4.2986,4.2986,4.2961,4.2936,4.2414,4.1806,4.125,4.0752,4.0475,4.045,3.9948,3.9697,2.182,2.3954,2.6138,2.8423,3.0658,3.2591,3.3696,3.4951,3.5909,3.631,3.6985,3.7487,3.7487,3.809,3.8743,3.9094,3.917,3.9295,3.9647,3.9697,3.9697,3.9697,3.9697,3.9697,3.9697,3.9697,3.9697,3.9697,3.9697,3.9697,3.9697,3.9697,3.9697,3.9697,3.9898,4.0149,4.0526,4.0902,4.1455,4.2213,4.2414,4.269,4.2986,4.2986,4.2986,4.2986,4.2986,4.2986,4.2986,4.2986,4.2986,4.2986,4.2986,4.2986,4.2986,4.2986,4.2986,4.2986,4.2986,4.2986,4.2986,4.2986,4.2986,4.2986,4.2986,4.2986,4.2986,4.2986,4.2986,4.2986,4.2986,4.2986,4.2986,4.2986,4.2986,4.2986,4.2986,4.2986,4.2986,4.2986,4.2986,4.2986,4.2986,4.2986,4.2861,4.2564,4.2816,4.2916,4.2539,4.2816,4.2986,4.2986,4.2986,4.2986,4.2986,4.2986,4.2986,4.2986,4.2986,4.2986,4.2986,4.3797,4.3852,4.3042,4.3672,4.3287,4.1856,4.1304,4.1,4.1,4.0852,4.1176,2.0413,2.2548,2.4983,2.7042,2.8649,3.0331,3.2608,3.3646,3.4379,3.5307,3.6085,3.6684,3.6885,3.7211,3.7688,3.8467,3.8567,3.8768,3.9346,3.9421,3.9496,3.9672,3.9697,3.9697,3.9697,3.9697,3.9697,3.9697,3.9697,3.9697,3.9697,3.9697,3.9697,3.9697,3.9697,3.9873,4.0249,4.0425,4.0978,4.1882,4.2112,4.2489,4.2986,4.2986,4.2986,4.2986,4.2986,4.2986,4.2986,4.2986,4.2986,4.2986,4.2986,4.2986,4.2986,4.2986,4.2986,4.2986,4.2986,4.2986,4.2986,4.2986,4.2986,4.2986,4.2986,4.2986,4.2986,4.2986,4.2986,4.2986,4.2986,4.2986,4.2986,4.2986,4.2986,4.2986,4.2986,4.2986,4.2986,4.2986,4.2986,4.2986,4.2986,4.2986,4.2861,4.2539,4.2791,4.2836,4.2539,4.2816,4.2986,4.2986,4.2986,4.2986,4.2986,4.3381,4.3657,4.3657,4.4126,4.418,4.3713,4.4994,4.5048,4.3713,4.4994,4.5103,4.3854,4.2344,4.1821,4.2253,4.2074,4.297,0.0,0.0,0.0,2.5669,2.6373,2.7555,3.1905,3.2039,3.2064,3.4806,3.5382,3.5558,3.6254,3.638,3.6732,3.7764,3.7965,3.8191,3.8768,3.8894,3.9095,3.9572,3.9672,3.9672,3.9672,3.9697,3.9697,3.9697,3.9697,3.9697,3.9697,3.9697,3.9697,3.9697,3.9697,3.9697,3.9697,4.0224,4.0777,4.1275,4.1856,4.2464,4.2961,4.2961,4.2986,4.2986,4.2986,4.2986,4.2986,4.2986,4.2986,4.2986,4.2986,4.2986,4.2986,4.2986,4.2986,4.2986,4.2986,4.2986,4.2986,4.2986,4.2986,4.2986,4.2986,4.2986,4.2986,4.2986,4.2986,4.2986,4.2986,4.2986,4.2986,4.2986,4.2986,4.2986,4.2986,4.2986,4.2986,4.2986,4.2986,4.2986,4.2986,4.2986,4.2961,4.2961,4.2961,4.2961,4.2961,4.2961,4.2986,4.2986,4.2986,4.2986,4.2986,4.4155,4.4941,4.4994,4.6265,4.6422,4.5102,4.6422,4.6474,4.5102,4.6422,4.7146,4.7146,4.3908,4.3003,4.4282,4.3779,4.4957,1.9183,0.0,0.0,0.0,0.0,0.0,2.7218,2.8047,2.9202,3.1964,3.2541,3.3068,3.4851,3.5504,3.5881,3.6135,3.6885,3.7613,3.8165,3.8241,3.8291,3.8442,3.8843,3.9094,3.9094,3.9471,3.9697,3.9697,3.9697,3.9697,3.9697,3.9697,3.9697,3.9697,3.9697,3.9697,3.9697,3.9848,4.0199,4.0752,4.1304,4.1856,4.2439,4.2785,4.2986,4.2986,4.2986,4.2986,4.2986,4.2986,4.2986,4.2986,4.2986,4.2986,4.2986,4.2986,4.2986,4.2986,4.2986,4.2986,4.2986,4.2986,4.2986,4.2986,4.2986,4.2986,4.2986,4.2986,4.2986,4.2986,4.2986,4.2986,4.2986,4.2986,4.2986,4.2986,4.2986,4.2986,4.2986,4.2986,4.2986,4.2986,4.2986,4.2986,4.2836,4.2489,4.2766,4.2891,4.2489,4.2791,4.2986,4.2986,4.2986,4.2986,4.2986,4.3351,4.3962,4.4941,4.5342,4.5872,4.6474,4.7859,4.7959,4.6526,4.7909,4.8638,4.8589,4.6672,4.5944,4.6332,4.7186,4.7481,2.0413,2.1493,0.0,2.3175,0.0,0.0,2.6716,2.7178,2.7882,3.106,3.1738,3.2265,3.4048,3.465,3.4881,3.5132,3.5931,3.6784,3.7563,3.7663,3.7739,3.799,3.8291,3.8517,3.8517,3.9019,3.9346,3.9346,3.9572,3.9697,3.9697,3.9697,3.9697,3.9697,3.9697,3.9697,3.9697,3.9697,3.9973,4.0526,4.1025,4.163,4.2238,4.2791,4.2986,4.2986,4.2986,4.2986,4.2986,4.2986,4.2986,4.2986,4.2986,4.2986,4.2986,4.2986,4.2986,4.2986,4.2986,4.2986,4.2986,4.2986,4.2986,4.2986,4.2986,4.2986,4.2986,4.2986,4.2986,4.2986,4.2986,4.2986,4.2986,4.2986,4.2986,4.2986,4.2986,4.2986,4.2986,4.2986,4.2986,4.2986,4.2986,4.2986,4.2861,4.2615,4.2816,4.2861,4.259,4.2841,4.2986,4.2986,4.2986,4.2986,4.2986,4.3492,4.4427,4.582,4.6422,4.7094,4.7909,4.9308,4.9406,4.8038,4.9308,5.0017,5.0017,4.8088,4.7402,4.8038,4.8787,4.9063,2.2347,2.3025,0.0,2.5209,2.4004,0.0,2.7921,2.7454,2.7128,3.0658,3.1386,3.1788,3.3119,3.3445,3.3696,3.4198,3.4831,3.5708,3.6835,3.7061,3.7287,3.7764,3.7864,3.7914,3.7914,3.8442,3.8768,3.8768,3.9295,3.9622,3.9697,3.9697,3.9697,3.9697,3.9697,3.9697,3.9697,3.9697,3.9948,4.0425,4.1,4.1605,4.2137,4.2685,4.2986,4.2986,4.2986,4.2986,4.2986,4.2986,4.2986,4.2986,4.2986,4.2986,4.2986,4.2986,4.2986,4.2986,4.2986,4.2986,4.2986,4.2986,4.2986,4.2986,4.2986,4.2986,4.2986,4.2986,4.2986,4.2986,4.2986,4.2986,4.2986,4.2986,4.2986,4.2986,4.2986,4.2986,4.2986,4.2986,4.2986,4.2986,4.2986,4.2986,4.2986,4.2986,4.2986,4.2986,4.2986,4.2986,4.2986,4.2986,4.2986,4.3073,4.3184,4.4155,4.5502,4.7197,4.8389,4.9112,4.9406,5.0555,5.065,4.9455,5.0603,5.1229,5.1182,4.8738,4.8139,4.921,4.9357,4.9969,2.4883,2.5034,2.5134,2.4481,2.433,0.0,2.3301,2.3452,2.4255,2.5879,2.623,2.7017,2.9414,3.0633,3.1286,3.1386,3.2993,3.46,3.5658,3.6232,3.6606,3.6707,3.7086,3.7337,3.7337,3.7839,3.8191,3.8191,3.8718,3.922,3.9672,3.9697,3.9697,3.9697,3.9697,3.9697,3.9697,3.9697,3.9747,3.9873,4.0852,4.1351,4.153,4.2534,4.2986,4.2986,4.2986,4.2986,4.2986,4.2986,4.2986,4.2986,4.2986,4.2986,4.2986,4.2986,4.2986,4.2986,4.2986,4.2986,4.2986,4.2986,4.2986,4.2986,4.2986,4.2986,4.2986,4.2986,4.2986,4.2986,4.2986,4.2986,4.2986,4.2986,4.2986,4.2986,4.2986,4.2986,4.2986,4.2986,4.2986,4.2986,4.2986,4.2986,4.2986,4.2986,4.2986,4.2986,4.2986,4.2986,4.2986,4.2986,4.2986,4.3436,4.4535,4.3852,4.4941,4.8539,4.7959,4.8489,5.0698,5.1058,5.1058,5.0793,5.1058,5.1229,5.1229,5.065,4.9969,4.921,5.0287,5.0383,2.659,2.644,2.6364,2.6113,2.5435,0.0,0.0,2.3954,2.4104,2.6063,2.5787,2.5887,2.8097,2.8524,2.88,2.959,3.1386,3.2842,3.3395,3.4675,3.5554,3.5554,3.578,3.6056,3.6332,3.686,3.7412,3.7965,3.8266,3.8693,3.9245,3.927,3.9396,3.9697,3.9697,3.9697,3.9697,3.9697,3.9697,3.9697,4.0802,4.1275,4.1326,4.2484,4.2986,4.2986,4.2986,4.2986,4.2986,4.2986,4.2986,4.2986,4.2986,4.2986,4.2986,4.2986,4.2986,4.2986,4.2986,4.2986,4.2986,4.2986,4.2986,4.2986,4.2986,4.2986,4.2986,4.2986,4.2986,4.2986,4.2986,4.2986,4.2986,4.2986,4.2986,4.2986,4.2986,4.2986,4.2986,4.2986,4.2986,4.2986,4.2986,4.2986,4.2986,4.2986,4.2986,4.2986,4.2986,4.2986,4.2986,4.2986,4.2986,4.3547,4.4887,4.4372,4.5502,4.9014,4.8539,4.9063,5.1105,5.1229,5.1229,5.1229,5.1229,5.1229,5.1229,5.1229,5.087,5.0191,5.0917,5.087,2.8348,2.8147,2.8197,2.7996,2.6866,2.5887,0.0,0.0,0.0,2.659,2.5988,2.5561,2.7042,2.659,2.6499,2.786,2.9528,3.0608,3.0608,3.234,3.3727,3.4198,3.4525,3.4806,3.5157,3.5429,3.6157,3.7588,3.7387,3.7638,3.8642,3.8869,3.9069,3.9521,3.9647,3.9697,3.9697,3.9697,3.9697,3.9697,4.0802,4.1275,4.1326,4.2484,4.2986,4.2986,4.2986,4.2986,4.2986,4.2986,4.2986,4.2986,4.2986,4.2986,4.2986,4.2986,4.2986,4.2986,4.2986,4.2986,4.2986,4.2986,4.2986,4.2986,4.2986,4.2986,4.2986,4.2986,4.2986,4.2986,4.2986,4.2986,4.2986,4.2986,4.2986,4.2986,4.2986,4.2986,4.2986,4.2986,4.2986,4.2986,4.2986,4.2986,4.2986,4.2986,4.2986,4.2986,4.2986,4.2986,4.2986,4.2986,4.2986,4.3657,4.5236,4.5155,4.6317,4.9406,4.9357,4.9776,5.1105,5.1229,5.1229,5.1229,5.1229,5.1229,5.1229,5.1229,5.1229,5.1229,5.1229,5.1229,0.0,3.1286,3.0959,2.8097,2.8298,2.8122,2.3853,0.0,2.4374,2.3201,0.0,2.3597,2.433,0.0,0.0,2.5151,2.6666,2.7745,2.7745,2.88,3.0267,3.2265,3.3822,3.455,3.4123,3.3244,3.3746,3.6405,3.5203,3.5454,3.7965,3.8592,3.8944,3.902,3.9446,3.9697,3.9697,3.9697,3.9697,3.9697,4.0802,4.1275,4.1326,4.2484,4.2986,4.2986,4.2986,4.2986,4.2986,4.2986,4.2986,4.2986,4.2986,4.2986,4.2986,4.2986,4.2986,4.2986,4.2986,4.2986,4.2986,4.2986,4.2986,4.2986,4.2986,4.2986,4.2986,4.2986,4.2986,4.2986,4.2986,4.2986,4.2986,4.2986,4.2986,4.2986,4.2986,4.2986,4.2986,4.2986,4.2986,4.2986,4.2986,4.2986,4.2986,4.2986,4.2986,4.2986,4.2986,4.2986,4.2986,4.2986,4.2986,4.4071,4.663,4.5714,4.6682,5.0698,4.9873,4.9776,5.1105,5.1229,5.1229,5.1229,5.1229,5.1229,5.1229,5.1229,5.1229,5.1229,5.1229,5.1229,0.0,3.1788,3.1662,2.9327,2.9026,2.8398,2.4983,2.4029,2.3797,2.3747,0.0,0.0,0.0,0.0,0.0,0.0,2.5435,2.6189,2.5887,2.7067,2.8674,3.0583,3.0859,3.116,3.1913,3.2139,3.2842,3.4394,3.3822,3.4349,3.6411,3.7713,3.8517,3.8919,3.9396,3.9697,3.9697,3.9697,3.9697,3.9697,4.0802,4.1275,4.1326,4.2484,4.2986,4.2986,4.2986,4.2986,4.2986,4.2986,4.2986,4.2986,4.2986,4.2986,4.2986,4.2986,4.2986,4.2986,4.2986,4.2986,4.2986,4.2986,4.2986,4.2986,4.2986,4.2986,4.2986,4.2986,4.2986,4.2986,4.2986,4.2986,4.2986,4.2986,4.2986,4.2986,4.2986,4.2986,4.2986,4.2986,4.2986,4.2986,4.2986,4.2986,4.2986,4.2986,4.2986,4.2986,4.2986,4.2986,4.3295,4.4071,4.3436,4.4126,4.6888,4.6526,4.7299,4.9873,5.0239,5.0603,5.1182,5.1229,5.1229,5.1229,5.1229,5.1229,5.1229,5.1229,5.1229,5.1229,5.1229,5.1229,3.219,3.2591,3.2516,2.9955,2.9126,2.8186,2.5536,2.4481,2.4173,2.4675,2.4299,0.0,0.0,0.0,0.0,0.0,0.0,2.5209,2.4682,2.5485,2.6716,2.8247,2.8247,2.8825,3.0658,3.0859,3.1486,3.3011,3.2365,3.2993,3.5357,3.6636,3.7739,3.8592,3.917,3.9546,3.9697,3.9697,3.9697,3.9697,4.0802,4.1275,4.1326,4.2484,4.2986,4.2986,4.2986,4.2986,4.2986,4.2986,4.2986,4.2986,4.2986,4.2986,4.2986,4.2986,4.2986,4.2986,4.2986,4.2986,4.2986,4.2986,4.2986,4.2986,4.2986,4.2986,4.2986,4.2986,4.2986,4.2986,4.2986,4.2986,4.2986,4.2986,4.2986,4.2986,4.2986,4.2986,4.2986,4.2986,4.2986,4.2986,4.2986,4.2986,4.2986,4.2986,4.2986,4.2986,4.2986,4.3351,4.3907,4.4887,4.4481,4.5102,4.7453,4.7656,4.8289,4.9679,5.065,5.1229,5.1229,5.1229,5.1229,5.1229,5.1229,5.1229,5.1229,5.1229,5.1229,5.1229,5.1229,5.1229,3.4248,3.458,3.4229,2.9377,2.8512,2.7885,2.4048,2.4833,2.6097,2.5034,2.6465,2.762,0.0,0.0,0.0,0.0,0.0,0.0,0.0,2.3572,2.3672,2.48,2.6841,2.8976,3.116,2.8976,2.9001,3.2835,3.0583,3.0919,3.5257,3.5558,3.631,3.799,3.8592,3.9145,3.9697,3.9697,3.9697,3.9697,4.0802,4.1275,4.1326,4.2484,4.2986,4.2986,4.2986,4.2986,4.2986,4.2986,4.2986,4.2986,4.2986,4.2986,4.2986,4.2986,4.2986,4.2986,4.2986,4.2986,4.2986,4.2986,4.2986,4.2986,4.2986,4.2986,4.2986,4.2986,4.2986,4.2986,4.2986,4.2986,4.2986,4.2986,4.2986,4.2986,4.2986,4.2986,4.2986,4.2986,4.2986,4.2986,4.2986,4.2986,4.2986,4.2986,4.2986,4.2986,4.2986,4.4126,4.4941,4.4994,4.6188,4.7554,4.9014,4.9112,4.9727,5.1058,5.1182,5.1229,5.1229,5.1229,5.1229,5.1229,5.1229,5.1229,5.1229,5.1229,5.1229,5.1229,5.1229,5.1229,3.5705,3.6358,3.6157,3.1888,3.0959,3.008,2.6214,2.6248,2.6826,2.6097,2.7067,2.7871,0.0,0.0,0.0,0.0,0.0,0.0,0.0,0.0,2.2046,2.3496,0.0,0.0,0.0,2.7846,2.8775,2.9704,2.9603,3.0633,3.3151,3.4705,3.6085,3.7412,3.8366,3.9145,3.9697,3.9697,3.9873,4.0249,4.0924,4.153,4.1907,4.2635,4.2986,4.2986,4.2986,4.2986,4.2986,4.2986,4.2986,4.2986,4.2986,4.2986,4.2986,4.2986,4.2986,4.2986,4.2986,4.2986,4.2986,4.2986,4.2986,4.2986,4.2986,4.2986,4.2986,4.2986,4.2986,4.2986,4.2986,4.2986,4.2986,4.2986,4.2986,4.2986,4.2986,4.2986,4.2986,4.2986,4.2986,4.2986,4.2986,4.2986,4.2986,4.2986,4.2986,4.3351,4.4209,4.3962,4.4725,4.7503,4.6526,4.663,4.9014,4.921,4.9776,5.1105,5.1229,5.1229,5.1229,5.1229,5.1229,5.1229,5.1229,5.1229,5.1229,5.1229,5.1229,5.1229,5.1229,5.1229,3.6784,3.7337,3.7161,3.3671,3.2817,3.1913,2.8485,2.8561,2.9114,2.8158,2.88,2.9528,0.0,0.0,0.0,0.0,0.0,0.0,0.0,2.1568,0.0,0.0,0.0,0.0,0.0,2.6681,2.767,2.89,2.8574,2.9528,3.2365,3.3872,3.5429,3.7136,3.809,3.8919,3.9697,3.9697,3.9973,4.0526,4.1025,4.163,4.2238,4.2791,4.2986,4.2986,4.2986,4.2986,4.2986,4.2986,4.2986,4.2986,4.2986,4.2986,4.2986,4.2986,4.2986,4.2986,4.2986,4.2986,4.2986,4.2986,4.2986,4.3011,4.3212,4.3263,4.3313,4.3514,4.3564,4.3564,4.3564,4.3413,4.3263,4.3263,4.3112,4.2986,4.2986,4.2986,4.2986,4.2986,4.2986,4.2986,4.2986,4.2986,4.2986,4.2986,4.2986,4.3492,4.4833,4.4671,4.5661,4.8837,4.8038,4.7909,4.9776,4.9921,5.0287,5.1152,5.1229,5.1229,5.1229,5.1229,5.1229,5.1229,5.1229,5.1229,5.1229,5.1229,5.1229,5.1229,5.1229,5.1229]}]]